Darstellungsparameter: Aktuell verwendete Einstellungen:
Skalierung der Graphiken ... ?
xyx+y,   Skalierungsfaktor:      Skalierung: Modus: x, Faktor: 1
Darstellungszeitraum ... ?
Vom - - bis: - -   Zeitraum: 09.11.2019 - 07.12.2019
Min/Max/Avg-Anzeige ... ?
Zeige MMA aktuell
Zeige MMA Monat
Zeige MMA alles
Zeige --A aktuell
Zeige --A Monat
Zeige --A alles
Keine MMA-Anzeige
MMA:
Average (ber die Originaldaten)
MMA-Basis: 09.11.2019 - 07.12.2019
Quicknavigation für Darstellung... ?
Tage:      1T, 2T, 3T, 5T -1T -2T -3T -5T +1T +2T +3T +5T
Wochen: 1W, 2W, 3W -1W -2W -3W +1W +2W +3W
Monate: 1M, 3M, 6M -1M -3M -6M +1M +3M +6M
Jahre:    1J, 3J, 5J, 10J -1J -3J -5J -10J +1J +3J +5J +10J
Nutze für die Darstellung ... ?
Originaldaten oder Mittelwerte auf ...
Stundenbasis Tagesbasis Wochenbasis
Monatsbasis Jahresbasis      Datenbasis: Original-Daten
Darstellen als:
Statistik (Auto) Statistik J:M      Darstellung:
Zur Graphik,    zurück zur Übersicht aller Sensoren.
 
Tabellarische Datenbersicht: ?
 
Sensor: Nr:Datum:Temp:Feuchte:
Aussen-T/F 1 09-11-2019 00:09:17 4.6 C 40 %
2 09-11-2019 00:19:17 4.5 C 40 %
3 09-11-2019 00:29:17 4.5 C 40 %
4 09-11-2019 00:39:17 4.5 C 40 %
5 09-11-2019 00:48:17 4.5 C 40 %
6 09-11-2019 00:58:17 4.5 C 40 %
7 09-11-2019 01:08:17 4.4 C 40 %
8 09-11-2019 01:18:17 4.4 C 40 %
9 09-11-2019 01:28:17 4.3 C 40 %
10 09-11-2019 01:38:17 4.3 C 39 %
11 09-11-2019 01:49:17 4.2 C 39 %
12 09-11-2019 01:59:17 4.2 C 39 %
13 09-11-2019 02:09:18 4.3 C 39 %
14 09-11-2019 02:19:17 4.3 C 39 %
15 09-11-2019 02:29:17 4.3 C 38 %
16 09-11-2019 02:39:17 4.3 C 38 %
17 09-11-2019 02:49:17 4.3 C 38 %
18 09-11-2019 02:59:17 4.3 C 38 %
19 09-11-2019 03:09:18 4.3 C 38 %
20 09-11-2019 03:19:17 4.3 C 38 %
21 09-11-2019 03:29:17 4.4 C 38 %
22 09-11-2019 03:39:17 4.5 C 38 %
23 09-11-2019 03:49:17 4.5 C 37 %
24 09-11-2019 03:59:17 4.6 C 37 %
25 09-11-2019 04:09:18 4.6 C 37 %
Sensor: Nr:Datum:Temp:Feuchte:
Aussen-T/F 26 09-11-2019 04:19:17 4.5 C 37 %
27 09-11-2019 04:29:17 4.5 C 37 %
28 09-11-2019 04:39:17 3.6 C 39 %
29 09-11-2019 04:49:17 3.5 C 40 %
30 09-11-2019 04:59:17 3.6 C 40 %
31 09-11-2019 05:09:17 4 C 40 %
32 09-11-2019 05:19:17 4.2 C 39 %
33 09-11-2019 05:29:17 4.5 C 36 %
34 09-11-2019 05:39:17 4.5 C 36 %
35 09-11-2019 05:49:17 4.6 C 36 %
36 09-11-2019 05:59:17 4.4 C 33 %
37 09-11-2019 06:09:17 4.1 C 31 %
38 09-11-2019 06:19:17 3.9 C 31 %
39 09-11-2019 06:29:17 3.8 C 30 %
40 09-11-2019 06:39:17 3.6 C 31 %
41 09-11-2019 06:49:17 3.5 C 31 %
42 09-11-2019 06:59:17 3.2 C 32 %
43 09-11-2019 07:09:17 2.8 C 35 %
44 09-11-2019 07:19:17 2.8 C 36 %
45 09-11-2019 07:29:17 2.8 C 37 %
46 09-11-2019 07:39:17 2.6 C 38 %
47 09-11-2019 07:49:18 2.3 C 39 %
48 09-11-2019 07:59:18 2.3 C 40 %
49 09-11-2019 08:09:17 2.1 C 40 %
50 09-11-2019 08:19:17 2.2 C 40 %
Sensor: Nr:Datum:Temp:Feuchte:
Aussen-T/F 51 09-11-2019 08:29:17 2.4 C 41 %
52 09-11-2019 08:39:17 2.7 C 41 %
53 09-11-2019 08:49:18 2.8 C 41 %
54 09-11-2019 08:59:18 3.6 C 41 %
55 09-11-2019 09:09:17 3.7 C 40 %
56 09-11-2019 09:19:17 4 C 37 %
57 09-11-2019 09:29:17 4.7 C 32 %
58 09-11-2019 09:39:17 4.8 C 28 %
59 09-11-2019 09:49:18 5 C 26 %
60 09-11-2019 09:59:18 5 C 25 %
61 09-11-2019 10:09:17 5.2 C 25 %
62 09-11-2019 10:19:17 5.2 C 25 %
63 09-11-2019 10:29:17 6 C 25 %
64 09-11-2019 10:39:17 5.8 C 23 %
65 09-11-2019 10:49:17 5.5 C 23 %
66 09-11-2019 10:59:17 5.7 C 25 %
67 09-11-2019 11:09:17 5.4 C 25 %
68 09-11-2019 11:19:17 5.3 C 23 %
69 09-11-2019 11:29:17 5.5 C 23 %
70 09-11-2019 11:39:17 5.5 C 23 %
71 09-11-2019 11:49:18 5.6 C 23 %
72 09-11-2019 11:59:18 5.6 C 23 %
73 09-11-2019 12:09:17 5.6 C 23 %
74 09-11-2019 12:19:17 5.8 C 23 %
75 09-11-2019 12:29:17 6 C 23 %
Sensor: Nr:Datum:Temp:Feuchte:
Aussen-T/F 76 09-11-2019 12:39:17 6.5 C 20 %
77 09-11-2019 12:49:18 6.5 C 20 %
78 09-11-2019 12:59:18 6.8 C 20 %
79 09-11-2019 13:09:17 6.5 C 20 %
80 09-11-2019 13:19:17 6.8 C 20 %
81 09-11-2019 13:29:17 6.9 C 20 %
82 09-11-2019 13:39:17 7.2 C 20 %
83 09-11-2019 13:49:17 6.9 C 20 %
84 09-11-2019 13:59:17 6.6 C 20 %
85 09-11-2019 14:09:17 6.6 C 20 %
86 09-11-2019 14:19:17 6.6 C 20 %
87 09-11-2019 14:29:17 6.5 C 20 %
88 09-11-2019 14:39:17 6.5 C 20 %
89 09-11-2019 14:49:17 6.5 C 20 %
90 09-11-2019 14:59:17 6.5 C 21 %
91 09-11-2019 15:09:17 6.2 C 23 %
92 09-11-2019 15:19:17 5.7 C 26 %
93 09-11-2019 15:29:17 5.6 C 29 %
94 09-11-2019 15:39:17 5.6 C 30 %
95 09-11-2019 15:49:17 5.6 C 30 %
96 09-11-2019 15:59:17 5.7 C 29 %
97 09-11-2019 16:09:18 6 C 27 %
98 09-11-2019 16:19:17 5.9 C 29 %
99 09-11-2019 16:29:17 5.8 C 29 %
100 09-11-2019 16:39:17 5.7 C 30 %
Sensor: Nr:Datum:Temp:Feuchte:
Aussen-T/F 101 09-11-2019 16:49:17 5.6 C 31 %
102 09-11-2019 16:59:17 5.6 C 30 %
103 09-11-2019 17:09:17 5.7 C 30 %
104 09-11-2019 17:19:17 5.7 C 30 %
105 09-11-2019 17:29:17 5.4 C 30 %
106 09-11-2019 17:39:17 5.2 C 30 %
107 09-11-2019 17:49:18 5 C 31 %
108 09-11-2019 17:59:18 5.1 C 30 %
109 09-11-2019 18:09:17 5.1 C 29 %
110 09-11-2019 18:19:17 4.7 C 30 %
111 09-11-2019 18:29:17 4.3 C 35 %
112 09-11-2019 18:39:17 4.1 C 36 %
113 09-11-2019 18:49:17 3.8 C 38 %
114 09-11-2019 18:59:17 3.6 C 39 %
115 09-11-2019 19:09:17 4.3 C 39 %
116 09-11-2019 19:19:17 4.7 C 32 %
117 09-11-2019 19:29:17 4.7 C 29 %
118 09-11-2019 19:39:17 4.6 C 28 %
119 09-11-2019 19:49:17 4.3 C 30 %
120 09-11-2019 19:59:17 3.9 C 30 %
121 09-11-2019 20:09:18 3.4 C 31 %
122 09-11-2019 20:19:17 2.5 C 33 %
123 09-11-2019 20:29:17 2.5 C 37 %
124 09-11-2019 20:39:17 2.7 C 39 %
125 09-11-2019 20:49:17 2.5 C 39 %
Sensor: Nr:Datum:Temp:Feuchte:
Aussen-T/F 126 09-11-2019 20:59:17 2.4 C 40 %
127 09-11-2019 21:09:17 2.4 C 40 %
128 09-11-2019 21:19:17 2.4 C 40 %
129 09-11-2019 21:29:17 2.1 C 40 %
130 09-11-2019 21:39:17 2.1 C 40 %
131 09-11-2019 21:49:17 2.2 C 41 %
132 09-11-2019 21:59:17 2 C 41 %
133 09-11-2019 22:09:17 1.6 C 41 %
134 09-11-2019 22:19:17 1.2 C 41 %
135 09-11-2019 22:29:17 1.3 C 42 %
136 09-11-2019 22:39:17 1.5 C 42 %
137 09-11-2019 22:49:18 1.4 C 42 %
138 09-11-2019 22:59:18 1.2 C 42 %
139 09-11-2019 23:09:17 1 C 41 %
140 09-11-2019 23:19:17 0.7 C 43 %
141 09-11-2019 23:29:17 0.6 C 43 %
142 09-11-2019 23:39:17 0.7 C 43 %
143 09-11-2019 23:49:17 0.7 C 43 %
144 09-11-2019 23:59:17 0.2 C 43 %
145 10-11-2019 00:09:18 0.1 C 43 %
146 10-11-2019 00:19:17 -0.1 C 43 %
147 10-11-2019 00:29:17 -0.1 C 42 %
148 10-11-2019 00:39:17 -0.1 C 43 %
149 10-11-2019 00:49:17 0.1 C 43 %
150 10-11-2019 00:59:17 0 C 43 %
Sensor: Nr:Datum:Temp:Feuchte:
Aussen-T/F 151 10-11-2019 01:09:17 0.4 C 43 %
152 10-11-2019 01:19:17 0.8 C 43 %
153 10-11-2019 01:29:17 0.9 C 43 %
154 10-11-2019 01:39:17 1 C 42 %
155 10-11-2019 01:49:17 1 C 42 %
156 10-11-2019 01:59:17 0.8 C 43 %
157 10-11-2019 02:09:18 1 C 42 %
158 10-11-2019 02:19:17 0.7 C 43 %
159 10-11-2019 02:29:17 0.6 C 43 %
160 10-11-2019 02:39:17 0.7 C 43 %
161 10-11-2019 02:49:17 0.8 C 43 %
162 10-11-2019 02:59:17 0.8 C 43 %
163 10-11-2019 03:09:17 0.6 C 43 %
164 10-11-2019 03:19:17 0.5 C 43 %
165 10-11-2019 03:29:17 0.6 C 43 %
166 10-11-2019 03:39:17 0.5 C 43 %
167 10-11-2019 03:49:17 0.6 C 43 %
168 10-11-2019 03:59:18 0.5 C 43 %
169 10-11-2019 04:09:17 0.4 C 43 %
170 10-11-2019 04:19:17 0.3 C 42 %
171 10-11-2019 04:29:17 0.4 C 42 %
172 10-11-2019 04:39:17 0.4 C 42 %
173 10-11-2019 04:49:18 0.3 C 42 %
174 10-11-2019 04:59:18 0.5 C 42 %
175 10-11-2019 05:09:17 0.5 C 43 %
Sensor: Nr:Datum:Temp:Feuchte:
Aussen-T/F 176 10-11-2019 05:19:17 0.8 C 43 %
177 10-11-2019 05:29:17 0.9 C 43 %
178 10-11-2019 05:39:17 0.9 C 43 %
179 10-11-2019 05:49:17 0.9 C 43 %
180 10-11-2019 05:59:17 0.9 C 43 %
181 10-11-2019 06:09:17 0.9 C 43 %
182 10-11-2019 06:19:17 1.1 C 41 %
183 10-11-2019 06:29:17 0.8 C 42 %
184 10-11-2019 06:39:17 0.9 C 42 %
185 10-11-2019 06:49:17 0.9 C 42 %
186 10-11-2019 06:59:17 0.9 C 42 %
187 10-11-2019 07:09:17 0.9 C 42 %
188 10-11-2019 07:19:18 0.9 C 43 %
189 10-11-2019 07:29:18 0.9 C 42 %
190 10-11-2019 07:39:17 0.9 C 42 %
191 10-11-2019 07:49:17 0.9 C 42 %
192 10-11-2019 07:59:17 1 C 41 %
193 10-11-2019 08:09:17 1.1 C 41 %
194 10-11-2019 08:19:17 1.2 C 42 %
195 10-11-2019 08:29:17 1.3 C 41 %
196 10-11-2019 08:39:17 1.3 C 42 %
197 10-11-2019 08:49:17 1.4 C 41 %
198 10-11-2019 08:59:17 1.6 C 41 %
199 10-11-2019 09:09:18 1.6 C 41 %
200 10-11-2019 09:19:17 1.8 C 41 %
Sensor: Nr:Datum:Temp:Feuchte:
Aussen-T/F 201 10-11-2019 09:29:18 1.7 C 41 %
202 10-11-2019 09:39:17 2 C 40 %
203 10-11-2019 09:49:17 2.1 C 40 %
204 10-11-2019 09:59:17 2.3 C 39 %
205 10-11-2019 10:09:17 2.3 C 38 %
206 10-11-2019 10:19:17 2.4 C 38 %
207 10-11-2019 10:29:17 2.4 C 36 %
208 10-11-2019 10:39:18 2.8 C 36 %
209 10-11-2019 10:49:17 3.1 C 35 %
210 10-11-2019 10:59:17 2.8 C 32 %
211 10-11-2019 11:09:17 3.2 C 33 %
212 10-11-2019 11:19:17 3.4 C 33 %
213 10-11-2019 11:29:17 3.5 C 33 %
214 10-11-2019 11:39:17 3.7 C 33 %
215 10-11-2019 11:49:17 3.6 C 30 %
216 10-11-2019 11:59:17 3.5 C 30 %
217 10-11-2019 12:09:17 3.4 C 30 %
218 10-11-2019 12:19:17 3.6 C 30 %
219 10-11-2019 12:29:17 3.6 C 28 %
220 10-11-2019 12:39:17 3.5 C 27 %
221 10-11-2019 12:49:17 3.6 C 26 %
222 10-11-2019 12:59:17 3.6 C 26 %
223 10-11-2019 13:09:17 3.6 C 26 %
224 10-11-2019 13:19:17 3.8 C 26 %
225 10-11-2019 13:29:17 4.1 C 26 %
Sensor: Nr:Datum:Temp:Feuchte:
Aussen-T/F 226 10-11-2019 13:39:17 4.1 C 25 %
227 10-11-2019 13:49:17 4.2 C 25 %
228 10-11-2019 13:59:17 4.1 C 25 %
229 10-11-2019 14:09:17 4.2 C 25 %
230 10-11-2019 14:19:17 4.1 C 25 %
231 10-11-2019 14:29:17 4.3 C 25 %
232 10-11-2019 14:39:17 4.4 C 25 %
233 10-11-2019 14:49:17 4.4 C 23 %
234 10-11-2019 14:59:17 4.5 C 23 %
235 10-11-2019 15:09:18 4.5 C 23 %
236 10-11-2019 15:19:17 4.5 C 25 %
237 10-11-2019 15:29:17 4.5 C 25 %
238 10-11-2019 15:39:17 4.5 C 25 %
239 10-11-2019 15:49:17 4.3 C 25 %
240 10-11-2019 15:59:17 4.3 C 26 %
241 10-11-2019 16:09:17 4.2 C 25 %
242 10-11-2019 16:19:17 4.1 C 26 %
243 10-11-2019 16:29:17 4.1 C 26 %
244 10-11-2019 16:39:17 4 C 27 %
245 10-11-2019 16:49:18 3.9 C 28 %
246 10-11-2019 16:59:18 3.8 C 28 %
247 10-11-2019 17:09:17 3.7 C 29 %
248 10-11-2019 17:19:17 3.7 C 29 %
249 10-11-2019 17:29:17 3.7 C 30 %
250 10-11-2019 17:39:17 3.7 C 30 %
Sensor: Nr:Datum:Temp:Feuchte:
Aussen-T/F 251 10-11-2019 17:49:18 3.7 C 30 %
252 10-11-2019 17:59:18 3.6 C 30 %
253 10-11-2019 18:09:17 3.7 C 30 %
254 10-11-2019 18:19:17 3.7 C 30 %
255 10-11-2019 18:29:17 3.6 C 30 %
256 10-11-2019 18:39:17 3.6 C 30 %
257 10-11-2019 18:49:18 3.6 C 30 %
258 10-11-2019 18:59:18 3.5 C 31 %
259 10-11-2019 19:09:17 3.5 C 31 %
260 10-11-2019 19:19:17 3.4 C 31 %
261 10-11-2019 19:29:17 3.4 C 32 %
262 10-11-2019 19:39:17 3.4 C 32 %
263 10-11-2019 19:49:17 3.4 C 32 %
264 10-11-2019 19:59:17 3.4 C 33 %
265 10-11-2019 20:09:17 3.5 C 34 %
266 10-11-2019 20:19:17 3.6 C 34 %
267 10-11-2019 20:29:17 3.6 C 33 %
268 10-11-2019 20:39:17 3.6 C 33 %
269 10-11-2019 20:49:17 3.7 C 34 %
270 10-11-2019 20:59:17 3.7 C 34 %
271 10-11-2019 21:09:18 3.7 C 34 %
272 10-11-2019 21:19:17 3.7 C 32 %
273 10-11-2019 21:29:17 3.7 C 32 %
274 10-11-2019 21:39:17 3.6 C 32 %
275 10-11-2019 21:49:17 3.6 C 33 %
Sensor: Nr:Datum:Temp:Feuchte:
Aussen-T/F 276 10-11-2019 21:59:17 3.6 C 33 %
277 10-11-2019 22:09:17 3.6 C 32 %
278 10-11-2019 22:19:17 3.6 C 33 %
279 10-11-2019 22:29:17 3.7 C 34 %
280 10-11-2019 22:39:17 3.7 C 35 %
281 10-11-2019 22:49:17 3.8 C 32 %
282 10-11-2019 22:59:17 3.9 C 31 %
283 10-11-2019 23:09:17 3.9 C 31 %
284 10-11-2019 23:19:17 3.8 C 30 %
285 10-11-2019 23:29:17 3.8 C 29 %
286 10-11-2019 23:39:17 3.8 C 30 %
287 10-11-2019 23:49:17 3.8 C 29 %
288 10-11-2019 23:59:17 3.8 C 29 %
289 11-11-2019 00:09:17 3.8 C 28 %
290 11-11-2019 00:19:17 3.7 C 27 %
291 11-11-2019 00:29:17 3.6 C 27 %
292 11-11-2019 00:39:17 3.5 C 28 %
293 11-11-2019 00:49:17 3.5 C 27 %
294 11-11-2019 00:59:17 3.4 C 27 %
295 11-11-2019 01:09:17 3.2 C 27 %
296 11-11-2019 01:19:17 3.2 C 27 %
297 11-11-2019 01:29:17 3.1 C 28 %
298 11-11-2019 01:39:17 3.1 C 28 %
299 11-11-2019 01:49:17 3 C 28 %
300 11-11-2019 01:59:17 3 C 28 %
Sensor: Nr:Datum:Temp:Feuchte:
Aussen-T/F 301 11-11-2019 02:09:17 3.1 C 28 %
302 11-11-2019 02:19:17 3 C 29 %
303 11-11-2019 02:29:17 3 C 28 %
304 11-11-2019 02:39:17 3.1 C 28 %
305 11-11-2019 02:49:17 2.8 C 28 %
306 11-11-2019 02:59:17 2.8 C 29 %
307 11-11-2019 03:09:17 2.7 C 30 %
308 11-11-2019 03:19:17 2.7 C 29 %
309 11-11-2019 03:29:17 2.7 C 29 %
310 11-11-2019 03:39:17 2.6 C 29 %
311 11-11-2019 03:49:17 2.5 C 28 %
312 11-11-2019 03:59:17 2.5 C 28 %
313 11-11-2019 04:09:17 2.4 C 29 %
314 11-11-2019 04:19:17 2.4 C 30 %
315 11-11-2019 04:29:17 2.4 C 30 %
316 11-11-2019 04:39:17 2.4 C 30 %
317 11-11-2019 04:49:17 2.5 C 30 %
318 11-11-2019 04:59:17 2.5 C 30 %
319 11-11-2019 05:09:17 2.6 C 30 %
320 11-11-2019 05:19:17 2.6 C 30 %
321 11-11-2019 05:29:17 2.6 C 30 %
322 11-11-2019 05:39:17 2.6 C 30 %
323 11-11-2019 05:49:17 2.7 C 30 %
324 11-11-2019 05:59:17 2.6 C 30 %
325 11-11-2019 06:09:17 2.7 C 29 %
Sensor: Nr:Datum:Temp:Feuchte:
Aussen-T/F 326 11-11-2019 06:19:17 2.7 C 29 %
327 11-11-2019 06:29:17 2.6 C 30 %
328 11-11-2019 06:39:17 2.7 C 30 %
329 11-11-2019 06:49:17 2.7 C 30 %
330 11-11-2019 06:59:17 2.7 C 31 %
331 11-11-2019 07:09:17 2.7 C 31 %
332 11-11-2019 07:19:18 2.7 C 31 %
333 11-11-2019 07:29:18 2.8 C 31 %
334 11-11-2019 07:39:17 2.9 C 32 %
335 11-11-2019 07:49:17 3 C 31 %
336 11-11-2019 07:59:17 3.2 C 30 %
337 11-11-2019 08:09:17 3.5 C 26 %
338 11-11-2019 08:19:17 3.7 C 25 %
339 11-11-2019 08:29:17 3.9 C 25 %
340 11-11-2019 08:39:17 4.2 C 21 %
341 11-11-2019 08:49:17 4.4 C 20 %
342 11-11-2019 08:59:17 4.7 C 20 %
343 11-11-2019 09:09:17 4.7 C 20 %
344 11-11-2019 09:19:17 4.5 C 20 %
345 11-11-2019 09:29:17 4.9 C 20 %
346 11-11-2019 09:39:17 5.2 C 20 %
347 11-11-2019 09:49:17 5.4 C 20 %
348 11-11-2019 09:59:17 5.2 C 20 %
349 11-11-2019 10:09:17 5.2 C 20 %
350 11-11-2019 10:19:17 5.2 C 20 %
Sensor: Nr:Datum:Temp:Feuchte:
Aussen-T/F 351 11-11-2019 10:29:17 5 C 20 %
352 11-11-2019 10:39:17 5.1 C 20 %
353 11-11-2019 10:49:17 4.8 C 20 %
354 11-11-2019 10:59:17 5.3 C 20 %
355 11-11-2019 11:09:17 5.2 C 20 %
356 11-11-2019 11:19:17 5.6 C 20 %
357 11-11-2019 11:29:17 5.9 C 20 %
358 11-11-2019 11:39:17 5.9 C 20 %
359 11-11-2019 11:49:17 6 C 20 %
360 11-11-2019 11:59:17 5.8 C 20 %
361 11-11-2019 12:09:17 6.4 C 20 %
362 11-11-2019 12:19:17 6.2 C 20 %
363 11-11-2019 12:29:17 6.4 C 20 %
364 11-11-2019 12:39:17 6.5 C 20 %
365 11-11-2019 12:49:17 6.5 C 20 %
366 11-11-2019 12:59:17 7.1 C 20 %
367 11-11-2019 13:09:17 7.2 C 20 %
368 11-11-2019 13:19:17 7.2 C 20 %
369 11-11-2019 13:29:17 6.5 C 20 %
370 11-11-2019 13:39:17 6.7 C 20 %
371 11-11-2019 13:49:17 6.5 C 20 %
372 11-11-2019 13:59:17 6.4 C 20 %
373 11-11-2019 14:09:17 6.2 C 20 %
374 11-11-2019 14:19:17 6.2 C 20 %
375 11-11-2019 14:29:17 6.3 C 20 %
Sensor: Nr:Datum:Temp:Feuchte:
Aussen-T/F 376 11-11-2019 14:39:17 5.8 C 20 %
377 11-11-2019 14:49:17 5.4 C 20 %
378 11-11-2019 14:59:17 5.3 C 20 %
379 11-11-2019 15:09:17 5.5 C 20 %
380 11-11-2019 15:19:17 5.5 C 20 %
381 11-11-2019 15:29:17 5.3 C 20 %
382 11-11-2019 15:39:17 5.1 C 20 %
383 11-11-2019 15:49:17 4.9 C 20 %
384 11-11-2019 15:59:17 4.8 C 20 %
385 11-11-2019 16:09:17 4.7 C 21 %
386 11-11-2019 16:19:17 4.7 C 20 %
387 11-11-2019 16:29:17 4.6 C 23 %
388 11-11-2019 16:39:17 4.6 C 23 %
389 11-11-2019 16:49:17 4.6 C 23 %
390 11-11-2019 16:59:17 4.5 C 23 %
391 11-11-2019 17:09:17 4.5 C 21 %
392 11-11-2019 17:19:17 4.5 C 23 %
393 11-11-2019 17:29:17 4.4 C 23 %
394 11-11-2019 17:39:17 4.3 C 23 %
395 11-11-2019 17:49:17 4.1 C 25 %
396 11-11-2019 17:59:17 4.1 C 25 %
397 11-11-2019 18:09:17 3.9 C 26 %
398 11-11-2019 18:19:17 4 C 25 %
399 11-11-2019 18:29:17 4.1 C 25 %
400 11-11-2019 18:39:17 4 C 26 %
Sensor: Nr:Datum:Temp:Feuchte:
Aussen-T/F 401 11-11-2019 18:49:17 3.9 C 30 %
402 11-11-2019 18:59:17 3.9 C 31 %
403 11-11-2019 19:09:17 3.9 C 35 %
404 11-11-2019 19:19:17 3.8 C 36 %
405 11-11-2019 19:29:17 3.9 C 39 %
406 11-11-2019 19:39:17 3.9 C 40 %
407 11-11-2019 19:49:17 3.8 C 40 %
408 11-11-2019 19:59:17 3.8 C 41 %
409 11-11-2019 20:09:17 3.8 C 41 %
410 11-11-2019 20:19:17 3.8 C 41 %
411 11-11-2019 20:29:17 3.8 C 40 %
412 11-11-2019 20:39:18 3.9 C 40 %
413 11-11-2019 20:49:17 3.9 C 40 %
414 11-11-2019 20:59:17 4 C 39 %
415 11-11-2019 21:09:17 4.1 C 39 %
416 11-11-2019 21:19:17 4.2 C 37 %
417 11-11-2019 21:29:17 4.2 C 37 %
418 11-11-2019 21:39:17 4.3 C 37 %
419 11-11-2019 21:49:17 4.4 C 36 %
420 11-11-2019 21:59:17 4.4 C 36 %
421 11-11-2019 22:09:17 4.4 C 36 %
422 11-11-2019 22:19:17 4.4 C 36 %
423 11-11-2019 22:29:17 4.3 C 35 %
424 11-11-2019 22:39:17 4.4 C 37 %
425 11-11-2019 22:49:17 4.4 C 38 %
Sensor: Nr:Datum:Temp:Feuchte:
Aussen-T/F 426 11-11-2019 22:59:17 4.4 C 39 %
427 11-11-2019 23:09:17 4.5 C 39 %
428 11-11-2019 23:19:17 4.5 C 39 %
429 11-11-2019 23:29:17 4.5 C 39 %
430 11-11-2019 23:39:17 4.5 C 39 %
431 11-11-2019 23:49:17 4.5 C 38 %
432 11-11-2019 23:59:17 4.2 C 38 %
433 12-11-2019 00:09:17 4.3 C 40 %
434 12-11-2019 00:19:17 4.4 C 40 %
435 12-11-2019 00:29:17 4.3 C 40 %
436 12-11-2019 00:39:17 4.5 C 39 %
437 12-11-2019 00:49:17 3.8 C 38 %
438 12-11-2019 00:59:17 4 C 40 %
439 12-11-2019 01:09:17 4.5 C 37 %
440 12-11-2019 01:19:17 4.8 C 35 %
441 12-11-2019 01:29:17 4.7 C 32 %
442 12-11-2019 01:39:17 5 C 28 %
443 12-11-2019 01:49:17 4.9 C 28 %
444 12-11-2019 01:59:17 5 C 27 %
445 12-11-2019 02:09:17 5.2 C 25 %
446 12-11-2019 02:19:17 4.9 C 30 %
447 12-11-2019 02:29:17 4.7 C 31 %
448 12-11-2019 02:39:17 4.7 C 32 %
449 12-11-2019 02:49:17 5.1 C 26 %
450 12-11-2019 02:59:17 5 C 28 %
Sensor: Nr:Datum:Temp:Feuchte:
Aussen-T/F 451 12-11-2019 03:09:17 5.1 C 26 %
452 12-11-2019 03:19:17 5 C 26 %
453 12-11-2019 03:29:17 4.8 C 28 %
454 12-11-2019 03:39:17 4.9 C 27 %
455 12-11-2019 03:49:17 4.8 C 27 %
456 12-11-2019 03:59:17 4.8 C 28 %
457 12-11-2019 04:09:17 4.8 C 29 %
458 12-11-2019 04:19:17 5.1 C 25 %
459 12-11-2019 04:29:17 5 C 25 %
460 12-11-2019 04:39:17 5.2 C 23 %
461 12-11-2019 04:49:17 5 C 25 %
462 12-11-2019 04:59:17 4.9 C 26 %
463 12-11-2019 05:09:17 4.7 C 26 %
464 12-11-2019 05:19:17 4.5 C 30 %
465 12-11-2019 05:29:17 4.5 C 31 %
466 12-11-2019 05:39:17 4.4 C 31 %
467 12-11-2019 05:49:17 4.4 C 30 %
468 12-11-2019 05:59:17 4.5 C 30 %
469 12-11-2019 06:09:17 4.6 C 30 %
470 12-11-2019 06:19:18 4.8 C 29 %
471 12-11-2019 06:29:18 4.9 C 26 %
472 12-11-2019 06:39:17 4.7 C 26 %
473 12-11-2019 06:49:17 4.8 C 26 %
474 12-11-2019 06:59:17 4.9 C 26 %
475 12-11-2019 07:09:17 4.9 C 25 %
Sensor: Nr:Datum:Temp:Feuchte:
Aussen-T/F 476 12-11-2019 07:19:17 5 C 25 %
477 12-11-2019 07:29:17 5 C 23 %
478 12-11-2019 07:39:17 5.2 C 21 %
479 12-11-2019 07:49:17 5.5 C 23 %
480 12-11-2019 07:59:17 5 C 23 %
481 12-11-2019 08:09:17 5.1 C 25 %
482 12-11-2019 08:19:17 5.1 C 25 %
483 12-11-2019 08:29:17 5.2 C 25 %
484 12-11-2019 08:39:17 5.4 C 20 %
485 12-11-2019 08:49:17 5.3 C 21 %
486 12-11-2019 08:59:17 5.6 C 20 %
487 12-11-2019 09:09:17 6 C 20 %
488 12-11-2019 09:19:17 6.3 C 20 %
489 12-11-2019 09:29:17 6.4 C 20 %
490 12-11-2019 09:39:17 7.2 C 20 %
491 12-11-2019 09:49:17 7.1 C 20 %
492 12-11-2019 09:59:17 7.2 C 20 %
493 12-11-2019 10:09:17 7.5 C 20 %
494 12-11-2019 10:19:17 7.8 C 20 %
495 12-11-2019 10:29:17 7.8 C 20 %
496 12-11-2019 10:39:17 7.9 C 20 %
497 12-11-2019 10:49:17 8.3 C 20 %
498 12-11-2019 10:59:17 8.2 C 20 %
499 12-11-2019 11:09:17 8.1 C 20 %
500 12-11-2019 11:19:17 8 C 20 %
Sensor: Nr:Datum:Temp:Feuchte:
Aussen-T/F 501 12-11-2019 11:29:17 7.5 C 20 %
502 12-11-2019 11:39:17 7.1 C 20 %
503 12-11-2019 11:49:17 7 C 20 %
504 12-11-2019 11:59:17 7.1 C 20 %
505 12-11-2019 12:09:17 7.6 C 20 %
506 12-11-2019 12:19:17 7.8 C 20 %
507 12-11-2019 12:29:17 8.4 C 20 %
508 12-11-2019 12:39:17 7.9 C 20 %
509 12-11-2019 12:49:17 7.6 C 20 %
510 12-11-2019 12:59:17 7.7 C 20 %
511 12-11-2019 13:09:17 7.8 C 20 %
512 12-11-2019 13:19:17 7.5 C 20 %
513 12-11-2019 13:29:17 7.5 C 20 %
514 12-11-2019 13:39:17 7.3 C 20 %
515 12-11-2019 13:49:17 7.3 C 20 %
516 12-11-2019 13:59:17 7.5 C 20 %
517 12-11-2019 14:09:17 7.5 C 20 %
518 12-11-2019 14:19:17 7.9 C 20 %
519 12-11-2019 14:29:17 7.8 C 20 %
520 12-11-2019 14:39:17 7.6 C 20 %
521 12-11-2019 14:49:17 7.6 C 20 %
522 12-11-2019 14:59:17 7.7 C 20 %
523 12-11-2019 15:09:17 7.8 C 20 %
524 12-11-2019 15:19:17 7.8 C 20 %
525 12-11-2019 15:29:17 7.8 C 20 %
Sensor: Nr:Datum:Temp:Feuchte:
Aussen-T/F 526 12-11-2019 15:39:17 7.4 C 20 %
527 12-11-2019 15:49:17 7.2 C 20 %
528 12-11-2019 15:59:17 7.2 C 20 %
529 12-11-2019 16:09:17 7.1 C 20 %
530 12-11-2019 16:19:17 7 C 20 %
531 12-11-2019 16:29:17 6.9 C 20 %
532 12-11-2019 16:39:17 6.8 C 20 %
533 12-11-2019 16:49:17 6.4 C 20 %
534 12-11-2019 16:59:17 6.4 C 20 %
535 12-11-2019 17:09:17 6.3 C 20 %
536 12-11-2019 17:19:17 6 C 20 %
537 12-11-2019 17:29:17 6 C 20 %
538 12-11-2019 17:39:17 6.1 C 20 %
539 12-11-2019 17:49:17 5.7 C 20 %
540 12-11-2019 17:59:17 5.5 C 20 %
541 12-11-2019 18:09:17 4.8 C 26 %
542 12-11-2019 18:19:17 4.7 C 26 %
543 12-11-2019 18:29:17 5.1 C 21 %
544 12-11-2019 18:39:17 4.9 C 26 %
545 12-11-2019 18:49:17 4.6 C 25 %
546 12-11-2019 18:59:17 4.8 C 23 %
547 12-11-2019 19:09:18 4.4 C 25 %
548 12-11-2019 19:19:17 3.7 C 28 %
549 12-11-2019 19:29:17 3.2 C 30 %
550 12-11-2019 19:39:17 3 C 31 %
Sensor: Nr:Datum:Temp:Feuchte:
Aussen-T/F 551 12-11-2019 19:49:18 2.8 C 32 %
552 12-11-2019 19:59:18 2.5 C 34 %
553 12-11-2019 20:09:17 2.5 C 34 %
554 12-11-2019 20:19:17 2.2 C 33 %
555 12-11-2019 20:29:17 1.8 C 36 %
556 12-11-2019 20:39:17 1.5 C 37 %
557 12-11-2019 20:49:17 1.7 C 41 %
558 12-11-2019 20:59:17 2.6 C 42 %
559 12-11-2019 21:09:17 3.2 C 35 %
560 12-11-2019 21:19:17 2.7 C 32 %
561 12-11-2019 21:29:17 2.1 C 33 %
562 12-11-2019 21:39:17 2.4 C 36 %
563 12-11-2019 21:49:17 2.6 C 35 %
564 12-11-2019 21:59:17 3.3 C 32 %
565 12-11-2019 22:09:17 3.4 C 32 %
566 12-11-2019 22:19:17 3.6 C 31 %
567 12-11-2019 22:29:17 4 C 27 %
568 12-11-2019 22:39:17 4.2 C 26 %
569 12-11-2019 22:49:17 4.2 C 26 %
570 12-11-2019 22:59:17 4.3 C 26 %
571 12-11-2019 23:09:17 4.4 C 23 %
572 12-11-2019 23:19:17 4.3 C 23 %
573 12-11-2019 23:29:17 4.3 C 23 %
574 12-11-2019 23:39:17 4.3 C 25 %
575 12-11-2019 23:49:17 4.4 C 25 %
Sensor: Nr:Datum:Temp:Feuchte:
Aussen-T/F 576 12-11-2019 23:59:17 4.4 C 21 %
577 13-11-2019 00:09:17 4.4 C 21 %
578 13-11-2019 00:19:17 4.4 C 21 %
579 13-11-2019 00:29:17 4.3 C 23 %
580 13-11-2019 00:39:17 4.3 C 21 %
581 13-11-2019 00:49:17 4.3 C 21 %
582 13-11-2019 00:59:17 4.2 C 25 %
583 13-11-2019 01:09:17 4.1 C 25 %
584 13-11-2019 01:19:17 4 C 25 %
585 13-11-2019 01:29:17 3.7 C 25 %
586 13-11-2019 01:39:17 3.6 C 26 %
587 13-11-2019 01:49:17 2.8 C 29 %
588 13-11-2019 01:59:17 2.4 C 31 %
589 13-11-2019 02:09:17 2.3 C 32 %
590 13-11-2019 02:19:17 2.2 C 32 %
591 13-11-2019 02:29:17 2.1 C 31 %
592 13-11-2019 02:39:17 2.8 C 29 %
593 13-11-2019 02:49:17 3.1 C 28 %
594 13-11-2019 02:59:17 3.9 C 21 %
595 13-11-2019 03:09:17 3.9 C 20 %
596 13-11-2019 03:19:17 4 C 20 %
597 13-11-2019 03:29:17 3.8 C 21 %
598 13-11-2019 03:39:17 4 C 20 %
599 13-11-2019 03:49:17 3.9 C 23 %
600 13-11-2019 03:59:17 4 C 20 %
Sensor: Nr:Datum:Temp:Feuchte:
Aussen-T/F 601 13-11-2019 04:09:17 4.1 C 20 %
602 13-11-2019 04:19:17 3.9 C 21 %
603 13-11-2019 04:29:17 3.8 C 23 %
604 13-11-2019 04:39:17 4.2 C 20 %
605 13-11-2019 04:49:17 4 C 20 %
606 13-11-2019 04:59:17 3.9 C 21 %
607 13-11-2019 05:09:17 3.6 C 25 %
608 13-11-2019 05:19:17 3.8 C 25 %
609 13-11-2019 05:29:17 3.7 C 26 %
610 13-11-2019 05:39:17 3.8 C 26 %
611 13-11-2019 05:49:17 3.8 C 26 %
612 13-11-2019 05:59:17 3.8 C 26 %
613 13-11-2019 06:09:17 3.8 C 26 %
614 13-11-2019 06:19:17 3.9 C 25 %
615 13-11-2019 06:29:17 3.9 C 25 %
616 13-11-2019 06:39:17 3.9 C 25 %
617 13-11-2019 06:49:17 3.2 C 25 %
618 13-11-2019 06:59:17 3.1 C 30 %
619 13-11-2019 07:09:17 3.3 C 30 %
620 13-11-2019 07:19:17 3.3 C 30 %
621 13-11-2019 07:29:17 3.7 C 27 %
622 13-11-2019 07:39:17 3.7 C 27 %
623 13-11-2019 07:49:17 3.8 C 26 %
624 13-11-2019 07:59:17 3.9 C 26 %
625 13-11-2019 08:09:17 4 C 25 %
Sensor: Nr:Datum:Temp:Feuchte:
Aussen-T/F 626 13-11-2019 08:19:17 4.2 C 25 %
627 13-11-2019 08:29:17 4.3 C 21 %
628 13-11-2019 08:39:17 4.5 C 20 %
629 13-11-2019 08:49:17 4.5 C 21 %
630 13-11-2019 08:59:17 4.5 C 21 %
631 13-11-2019 09:09:17 4.7 C 21 %
632 13-11-2019 09:19:17 5.1 C 20 %
633 13-11-2019 09:29:17 5.5 C 20 %
634 13-11-2019 09:39:17 5.6 C 20 %
635 13-11-2019 09:49:17 5.6 C 20 %
636 13-11-2019 09:59:17 5.5 C 20 %
637 13-11-2019 10:09:17 5.6 C 20 %
638 13-11-2019 10:19:17 5.7 C 20 %
639 13-11-2019 10:29:17 5.8 C 20 %
640 13-11-2019 10:39:17 5.9 C 20 %
641 13-11-2019 10:49:17 5.7 C 20 %
642 13-11-2019 10:59:17 5.7 C 20 %
643 13-11-2019 11:09:17 5.6 C 20 %
644 13-11-2019 11:19:17 5.8 C 20 %
645 13-11-2019 11:29:17 6 C 20 %
646 13-11-2019 11:39:17 6.1 C 20 %
647 13-11-2019 11:49:17 6.1 C 20 %
648 13-11-2019 11:59:17 6.6 C 20 %
649 13-11-2019 12:09:17 6.5 C 20 %
650 13-11-2019 12:19:17 6.6 C 20 %
Sensor: Nr:Datum:Temp:Feuchte:
Aussen-T/F 651 13-11-2019 12:29:17 6.8 C 20 %
652 13-11-2019 12:39:17 6.7 C 20 %
653 13-11-2019 12:49:17 6.4 C 20 %
654 13-11-2019 12:59:17 6.7 C 20 %
655 13-11-2019 13:09:17 6.8 C 20 %
656 13-11-2019 13:19:17 6.7 C 20 %
657 13-11-2019 13:29:17 6.4 C 20 %
658 13-11-2019 13:39:17 6.5 C 20 %
659 13-11-2019 13:49:17 6.4 C 20 %
660 13-11-2019 13:59:17 6.3 C 20 %
661 13-11-2019 14:09:17 6.3 C 20 %
662 13-11-2019 14:19:17 6.3 C 20 %
663 13-11-2019 14:29:17 6.2 C 20 %
664 13-11-2019 14:39:17 6.2 C 20 %
665 13-11-2019 14:49:17 6.2 C 20 %
666 13-11-2019 14:59:17 6.3 C 20 %
667 13-11-2019 15:09:17 6.3 C 20 %
668 13-11-2019 15:19:17 6.3 C 20 %
669 13-11-2019 15:29:17 6.2 C 20 %
670 13-11-2019 15:39:17 6.2 C 20 %
671 13-11-2019 15:49:17 6.2 C 20 %
672 13-11-2019 15:59:17 6.2 C 20 %
673 13-11-2019 16:09:17 6.2 C 20 %
674 13-11-2019 16:19:17 6.2 C 20 %
675 13-11-2019 16:29:17 6.1 C 20 %
Sensor: Nr:Datum:Temp:Feuchte:
Aussen-T/F 676 13-11-2019 16:39:17 6 C 20 %
677 13-11-2019 16:49:17 6 C 20 %
678 13-11-2019 16:59:17 6 C 20 %
679 13-11-2019 17:09:17 6 C 20 %
680 13-11-2019 17:19:17 6 C 20 %
681 13-11-2019 17:29:17 5.9 C 20 %
682 13-11-2019 17:39:17 6 C 20 %
683 13-11-2019 17:49:17 5.9 C 20 %
684 13-11-2019 17:59:17 5.9 C 20 %
685 13-11-2019 18:09:17 5.8 C 20 %
686 13-11-2019 18:19:17 5.8 C 20 %
687 13-11-2019 18:29:17 5.9 C 20 %
688 13-11-2019 18:39:17 5.8 C 20 %
689 13-11-2019 18:49:17 5.7 C 20 %
690 13-11-2019 18:59:17 5.6 C 21 %
691 13-11-2019 19:09:18 5.6 C 21 %
692 13-11-2019 19:19:17 5.6 C 23 %
693 13-11-2019 19:29:17 5.6 C 20 %
694 13-11-2019 19:39:17 5.6 C 21 %
695 13-11-2019 19:49:17 5.8 C 20 %
696 13-11-2019 19:59:17 5.8 C 20 %
697 13-11-2019 20:09:17 5.8 C 20 %
698 13-11-2019 20:19:17 5.9 C 20 %
699 13-11-2019 20:29:17 5.8 C 20 %
700 13-11-2019 20:39:17 5.8 C 20 %
Sensor: Nr:Datum:Temp:Feuchte:
Aussen-T/F 701 13-11-2019 20:49:17 5.8 C 20 %
702 13-11-2019 20:59:17 5.6 C 20 %
703 13-11-2019 21:09:17 5.5 C 23 %
704 13-11-2019 21:19:17 5.4 C 25 %
705 13-11-2019 21:29:17 4.8 C 27 %
706 13-11-2019 21:39:17 4.8 C 27 %
707 13-11-2019 21:49:17 4.7 C 28 %
708 13-11-2019 21:59:17 4.7 C 29 %
709 13-11-2019 22:09:17 4.2 C 28 %
710 13-11-2019 22:19:17 3.8 C 32 %
711 13-11-2019 22:29:17 3.8 C 33 %
712 13-11-2019 22:39:17 3.8 C 33 %
713 13-11-2019 22:49:17 4.1 C 32 %
714 13-11-2019 22:59:17 4 C 31 %
715 13-11-2019 23:09:17 4.1 C 29 %
716 13-11-2019 23:19:17 3.4 C 33 %
717 13-11-2019 23:29:17 3.6 C 33 %
718 13-11-2019 23:39:17 3.6 C 33 %
719 13-11-2019 23:49:17 3.9 C 33 %
720 13-11-2019 23:59:17 4.2 C 30 %
721 14-11-2019 00:09:17 4.4 C 30 %
722 14-11-2019 00:19:17 4.5 C 31 %
723 14-11-2019 00:29:17 4.7 C 30 %
724 14-11-2019 00:39:17 4.6 C 30 %
725 14-11-2019 00:49:17 4.7 C 31 %
Sensor: Nr:Datum:Temp:Feuchte:
Aussen-T/F 726 14-11-2019 00:59:17 4.4 C 30 %
727 14-11-2019 01:09:17 3.7 C 31 %
728 14-11-2019 01:19:17 3.8 C 37 %
729 14-11-2019 01:29:17 3.7 C 37 %
730 14-11-2019 01:39:17 3.8 C 39 %
731 14-11-2019 01:49:17 3.8 C 38 %
732 14-11-2019 01:59:17 3.9 C 39 %
733 14-11-2019 02:09:17 4 C 37 %
734 14-11-2019 02:19:17 4 C 35 %
735 14-11-2019 02:29:17 4.1 C 36 %
736 14-11-2019 02:39:17 4.4 C 35 %
737 14-11-2019 02:49:17 4.5 C 33 %
738 14-11-2019 02:59:17 4.8 C 31 %
739 14-11-2019 03:09:17 5 C 29 %
740 14-11-2019 03:19:17 4.8 C 30 %
741 14-11-2019 03:29:17 5 C 30 %
742 14-11-2019 03:39:17 5.1 C 29 %
743 14-11-2019 03:49:17 5.2 C 28 %
744 14-11-2019 03:59:17 5.1 C 28 %
745 14-11-2019 04:09:17 5.2 C 29 %
746 14-11-2019 04:19:17 5.1 C 29 %
747 14-11-2019 04:29:17 4.6 C 31 %
748 14-11-2019 04:39:17 4.5 C 32 %
749 14-11-2019 04:49:17 4.6 C 33 %
750 14-11-2019 04:59:17 4.2 C 31 %
Sensor: Nr:Datum:Temp:Feuchte:
Aussen-T/F 751 14-11-2019 05:09:17 3.4 C 33 %
752 14-11-2019 05:19:17 3.3 C 40 %
753 14-11-2019 05:29:17 3.7 C 41 %
754 14-11-2019 05:39:18 4.1 C 40 %
755 14-11-2019 05:49:17 4.4 C 38 %
756 14-11-2019 05:59:17 4.4 C 36 %
757 14-11-2019 06:09:17 3.6 C 34 %
758 14-11-2019 06:19:17 3.5 C 36 %
759 14-11-2019 06:29:17 3.5 C 36 %
760 14-11-2019 06:39:17 3.9 C 38 %
761 14-11-2019 06:49:17 4.2 C 36 %
762 14-11-2019 06:59:17 4.6 C 30 %
763 14-11-2019 07:09:17 4.6 C 30 %
764 14-11-2019 07:19:17 4.8 C 26 %
765 14-11-2019 07:29:17 4.8 C 25 %
766 14-11-2019 07:39:17 4.5 C 26 %
767 14-11-2019 07:49:17 4.5 C 26 %
768 14-11-2019 07:59:17 4.5 C 26 %
769 14-11-2019 08:09:17 4.2 C 26 %
770 14-11-2019 08:19:17 4.2 C 26 %
771 14-11-2019 08:29:17 4.6 C 26 %
772 14-11-2019 08:39:17 4.7 C 25 %
773 14-11-2019 08:49:17 4.6 C 25 %
774 14-11-2019 08:59:17 4.5 C 26 %
775 14-11-2019 09:09:17 5 C 21 %
Sensor: Nr:Datum:Temp:Feuchte:
Aussen-T/F 776 14-11-2019 09:19:17 5 C 21 %
777 14-11-2019 09:29:17 5.4 C 20 %
778 14-11-2019 09:39:17 5.6 C 20 %
779 14-11-2019 09:49:17 5.6 C 20 %
780 14-11-2019 09:59:17 5.9 C 20 %
781 14-11-2019 10:09:17 6.1 C 20 %
782 14-11-2019 10:19:17 6.3 C 20 %
783 14-11-2019 10:29:17 6.5 C 20 %
784 14-11-2019 10:39:17 6.7 C 20 %
785 14-11-2019 10:49:17 7.1 C 20 %
786 14-11-2019 10:59:17 7.2 C 20 %
787 14-11-2019 11:09:17 7.4 C 20 %
788 14-11-2019 11:19:17 7.9 C 20 %
789 14-11-2019 11:29:17 8.2 C 20 %
790 14-11-2019 11:39:17 8.2 C 20 %
791 14-11-2019 11:49:17 8.2 C 20 %
792 14-11-2019 11:59:17 8.9 C 20 %
793 14-11-2019 12:09:17 9.3 C 20 %
794 14-11-2019 12:19:17 9.1 C 20 %
795 14-11-2019 12:29:17 9 C 20 %
796 14-11-2019 12:39:17 8.6 C 20 %
797 14-11-2019 12:49:17 8.3 C 20 %
798 14-11-2019 12:59:17 8.3 C 20 %
799 14-11-2019 13:09:17 8.6 C 20 %
800 14-11-2019 13:19:17 8.8 C 20 %
Sensor: Nr:Datum:Temp:Feuchte:
Aussen-T/F 801 14-11-2019 13:29:17 8.6 C 20 %
802 14-11-2019 13:39:17 8.7 C 20 %
803 14-11-2019 13:49:17 9.1 C 20 %
804 14-11-2019 13:59:17 9.6 C 20 %
805 14-11-2019 14:09:17 9.4 C 20 %
806 14-11-2019 14:19:17 9.2 C 20 %
807 14-11-2019 14:29:17 9 C 20 %
808 14-11-2019 14:39:17 8.9 C 20 %
809 14-11-2019 14:49:17 8.5 C 20 %
810 14-11-2019 14:59:17 8.1 C 20 %
811 14-11-2019 15:09:17 7.9 C 20 %
812 14-11-2019 15:19:17 7.8 C 20 %
813 14-11-2019 15:29:17 7.3 C 20 %
814 14-11-2019 15:39:17 6.9 C 20 %
815 14-11-2019 15:49:17 6.7 C 20 %
816 14-11-2019 15:59:17 6.5 C 20 %
817 14-11-2019 16:09:17 6.5 C 20 %
818 14-11-2019 16:19:17 6 C 20 %
819 14-11-2019 16:29:17 5.6 C 20 %
820 14-11-2019 16:39:17 5.2 C 20 %
821 14-11-2019 16:49:17 4.8 C 20 %
822 14-11-2019 16:59:17 4.6 C 20 %
823 14-11-2019 17:09:17 4.4 C 20 %
824 14-11-2019 17:19:17 4.3 C 20 %
825 14-11-2019 17:29:17 3.9 C 20 %
Sensor: Nr:Datum:Temp:Feuchte:
Aussen-T/F 826 14-11-2019 17:39:17 3.8 C 20 %
827 14-11-2019 17:49:17 3.8 C 20 %
828 14-11-2019 17:59:17 3.8 C 20 %
829 14-11-2019 18:09:17 4.1 C 20 %
830 14-11-2019 18:19:17 3.9 C 20 %
831 14-11-2019 18:29:17 3.8 C 20 %
832 14-11-2019 18:39:17 3.9 C 20 %
833 14-11-2019 18:49:17 3.3 C 20 %
834 14-11-2019 18:59:17 3.4 C 20 %
835 14-11-2019 19:09:17 3.2 C 20 %
836 14-11-2019 19:19:17 2.6 C 25 %
837 14-11-2019 19:29:17 2.7 C 25 %
838 14-11-2019 19:39:17 2.7 C 25 %
839 14-11-2019 19:49:17 2.6 C 25 %
840 14-11-2019 19:59:18 2.7 C 26 %
841 14-11-2019 20:09:17 2.4 C 26 %
842 14-11-2019 20:19:17 2.3 C 30 %
843 14-11-2019 20:29:17 2.4 C 27 %
844 14-11-2019 20:39:17 2.6 C 26 %
845 14-11-2019 20:49:17 2.5 C 26 %
846 14-11-2019 20:59:17 2 C 27 %
847 14-11-2019 21:09:17 1.6 C 32 %
848 14-11-2019 21:19:17 1.6 C 36 %
849 14-11-2019 21:29:17 1.7 C 35 %
850 14-11-2019 21:39:17 1.6 C 35 %
Sensor: Nr:Datum:Temp:Feuchte:
Aussen-T/F 851 14-11-2019 21:49:17 1.4 C 35 %
852 14-11-2019 21:59:17 1.4 C 36 %
853 14-11-2019 22:09:17 1.6 C 37 %
854 14-11-2019 22:19:17 1.5 C 36 %
855 14-11-2019 22:29:17 1.5 C 37 %
856 14-11-2019 22:39:17 1.6 C 39 %
857 14-11-2019 22:49:17 1.6 C 39 %
858 14-11-2019 22:59:17 1.9 C 40 %
859 14-11-2019 23:09:17 2 C 38 %
860 14-11-2019 23:19:17 2 C 37 %
861 14-11-2019 23:29:17 2 C 36 %
862 14-11-2019 23:39:17 2.2 C 36 %
863 14-11-2019 23:49:17 2.1 C 36 %
864 14-11-2019 23:59:17 2.1 C 36 %
865 15-11-2019 00:09:17 2.1 C 36 %
866 15-11-2019 00:19:17 2.2 C 35 %
867 15-11-2019 00:29:17 2.3 C 36 %
868 15-11-2019 00:39:17 2.5 C 36 %
869 15-11-2019 00:49:17 2.8 C 33 %
870 15-11-2019 00:59:17 3 C 31 %
871 15-11-2019 01:09:17 3.2 C 30 %
872 15-11-2019 01:19:17 2.9 C 31 %
873 15-11-2019 01:29:17 2.8 C 32 %
874 15-11-2019 01:39:17 3.1 C 30 %
875 15-11-2019 01:49:17 3.2 C 30 %
Sensor: Nr:Datum:Temp:Feuchte:
Aussen-T/F 876 15-11-2019 01:59:17 3.1 C 30 %
877 15-11-2019 02:09:17 2.7 C 30 %
878 15-11-2019 02:19:17 2.6 C 31 %
879 15-11-2019 02:29:17 2.6 C 31 %
880 15-11-2019 02:39:17 2.7 C 30 %
881 15-11-2019 02:49:17 2.8 C 31 %
882 15-11-2019 02:59:17 3.2 C 30 %
883 15-11-2019 03:09:17 2.9 C 30 %
884 15-11-2019 03:19:17 2.7 C 30 %
885 15-11-2019 03:29:17 2.5 C 30 %
886 15-11-2019 03:39:17 2.3 C 30 %
887 15-11-2019 03:49:17 2.2 C 30 %
888 15-11-2019 03:59:17 2.2 C 31 %
889 15-11-2019 04:09:17 2.2 C 31 %
890 15-11-2019 04:19:17 2.6 C 30 %
891 15-11-2019 04:29:17 3.1 C 26 %
892 15-11-2019 04:39:17 3.2 C 25 %
893 15-11-2019 04:49:17 3 C 25 %
894 15-11-2019 04:59:17 3.1 C 25 %
895 15-11-2019 05:09:17 2.8 C 27 %
896 15-11-2019 05:19:17 2.6 C 26 %
897 15-11-2019 05:29:17 2.7 C 25 %
898 15-11-2019 05:39:17 2.5 C 27 %
899 15-11-2019 05:49:17 2.6 C 25 %
900 15-11-2019 05:59:17 3.2 C 23 %
Sensor: Nr:Datum:Temp:Feuchte:
Aussen-T/F 901 15-11-2019 06:09:17 3.3 C 20 %
902 15-11-2019 06:19:17 3.4 C 20 %
903 15-11-2019 06:29:17 3.3 C 20 %
904 15-11-2019 06:39:17 3.4 C 20 %
905 15-11-2019 06:49:17 3.4 C 20 %
906 15-11-2019 06:59:17 3.1 C 20 %
907 15-11-2019 07:09:17 3 C 20 %
908 15-11-2019 07:19:17 2.9 C 21 %
909 15-11-2019 07:29:17 3 C 21 %
910 15-11-2019 07:39:17 2.9 C 23 %
911 15-11-2019 07:49:17 2.8 C 25 %
912 15-11-2019 07:59:17 3.2 C 20 %
913 15-11-2019 08:09:17 3.3 C 20 %
914 15-11-2019 08:19:17 3.3 C 20 %
915 15-11-2019 08:29:17 3.3 C 20 %
916 15-11-2019 08:39:17 3.3 C 20 %
917 15-11-2019 08:49:17 3.1 C 23 %
918 15-11-2019 08:59:17 3.3 C 21 %
919 15-11-2019 09:09:17 3.3 C 21 %
920 15-11-2019 09:19:17 3.6 C 20 %
921 15-11-2019 09:29:17 4.1 C 20 %
922 15-11-2019 09:39:17 4.5 C 20 %
923 15-11-2019 09:49:17 4.4 C 20 %
924 15-11-2019 09:59:17 4.6 C 20 %
925 15-11-2019 10:09:17 4.9 C 20 %
Sensor: Nr:Datum:Temp:Feuchte:
Aussen-T/F 926 15-11-2019 10:19:17 5.2 C 20 %
927 15-11-2019 10:29:17 5.5 C 20 %
928 15-11-2019 10:39:17 5.4 C 20 %
929 15-11-2019 10:49:17 5.5 C 20 %
930 15-11-2019 10:59:17 5.8 C 20 %
931 15-11-2019 11:09:17 5.9 C 20 %
932 15-11-2019 11:19:17 5.3 C 20 %
933 15-11-2019 11:29:17 5.2 C 20 %
934 15-11-2019 11:39:17 5.8 C 20 %
935 15-11-2019 11:49:17 6.1 C 20 %
936 15-11-2019 11:59:17 6.4 C 20 %
937 15-11-2019 12:09:17 6.5 C 20 %
938 15-11-2019 12:19:17 6.5 C 20 %
939 15-11-2019 12:29:17 6.3 C 20 %
940 15-11-2019 12:39:17 6.3 C 20 %
941 15-11-2019 12:49:17 6.4 C 20 %
942 15-11-2019 12:59:17 6.5 C 20 %
943 15-11-2019 13:09:17 6.8 C 20 %
944 15-11-2019 13:19:17 6.9 C 20 %
945 15-11-2019 13:29:17 7 C 20 %
946 15-11-2019 13:39:17 7.4 C 20 %
947 15-11-2019 13:49:17 7.4 C 20 %
948 15-11-2019 13:59:17 7.3 C 20 %
949 15-11-2019 14:09:17 7.5 C 20 %
950 15-11-2019 14:19:17 7.6 C 20 %
Sensor: Nr:Datum:Temp:Feuchte:
Aussen-T/F 951 15-11-2019 14:29:17 7.7 C 20 %
952 15-11-2019 14:39:17 7.5 C 20 %
953 15-11-2019 14:49:17 7.8 C 20 %
954 15-11-2019 14:59:17 8 C 20 %
955 15-11-2019 15:09:17 7.8 C 20 %
956 15-11-2019 15:19:17 7.7 C 20 %
957 15-11-2019 15:29:17 7.6 C 20 %
958 15-11-2019 15:39:17 7.3 C 20 %
959 15-11-2019 15:49:17 7.1 C 20 %
960 15-11-2019 15:59:17 6.8 C 20 %
961 15-11-2019 16:09:17 6.7 C 20 %
962 15-11-2019 16:19:17 5.5 C 20 %
963 15-11-2019 16:29:17 5 C 20 %
964 15-11-2019 16:39:17 4.4 C 20 %
965 15-11-2019 16:49:17 4 C 23 %
966 15-11-2019 16:59:17 3.9 C 26 %
967 15-11-2019 17:09:17 3.8 C 27 %
968 15-11-2019 17:19:17 3.9 C 27 %
969 15-11-2019 17:29:17 3.8 C 28 %
970 15-11-2019 17:39:17 4 C 27 %
971 15-11-2019 17:49:17 3.8 C 28 %
972 15-11-2019 17:59:17 3.8 C 29 %
973 15-11-2019 18:09:17 3.8 C 29 %
974 15-11-2019 18:19:17 4.3 C 27 %
975 15-11-2019 18:29:17 4.2 C 26 %
Sensor: Nr:Datum:Temp:Feuchte:
Aussen-T/F 976 15-11-2019 18:39:17 4.1 C 27 %
977 15-11-2019 18:49:17 4 C 28 %
978 15-11-2019 18:59:17 4 C 28 %
979 15-11-2019 19:09:17 3.9 C 31 %
980 15-11-2019 19:19:17 3.6 C 31 %
981 15-11-2019 19:29:17 3.7 C 32 %
982 15-11-2019 19:39:17 3.6 C 31 %
983 15-11-2019 19:49:17 3.7 C 32 %
984 15-11-2019 19:59:17 3.7 C 32 %
985 15-11-2019 20:09:17 3.4 C 33 %
986 15-11-2019 20:19:17 3.3 C 34 %
987 15-11-2019 20:29:17 3.2 C 35 %
988 15-11-2019 20:39:17 3.5 C 32 %
989 15-11-2019 20:49:17 3.2 C 32 %
990 15-11-2019 20:59:17 3.5 C 32 %
991 15-11-2019 21:09:17 3.5 C 31 %
992 15-11-2019 21:19:17 3.5 C 31 %
993 15-11-2019 21:29:17 3.2 C 31 %
994 15-11-2019 21:39:17 3 C 34 %
995 15-11-2019 21:49:17 2.9 C 36 %
996 15-11-2019 21:59:17 3 C 36 %
997 15-11-2019 22:09:17 2.8 C 36 %
998 15-11-2019 22:19:17 2.6 C 37 %
999 15-11-2019 22:29:17 2.6 C 39 %
1000 15-11-2019 22:39:17 2.7 C 39 %
Sensor: Nr:Datum:Temp:Feuchte:
Aussen-T/F 1001 15-11-2019 22:49:17 2.7 C 39 %
1002 15-11-2019 22:59:17 2.5 C 38 %
1003 15-11-2019 23:09:17 2.6 C 39 %
1004 15-11-2019 23:19:17 2.7 C 39 %
1005 15-11-2019 23:29:17 2.6 C 38 %
1006 15-11-2019 23:39:17 2.5 C 38 %
1007 15-11-2019 23:49:17 2.5 C 40 %
1008 15-11-2019 23:59:17 2.3 C 40 %
1009 16-11-2019 00:09:17 2.3 C 40 %
1010 16-11-2019 00:19:17 2.3 C 40 %
1011 16-11-2019 00:29:17 2.3 C 40 %
1012 16-11-2019 00:39:17 2.3 C 40 %
1013 16-11-2019 00:49:17 2.4 C 40 %
1014 16-11-2019 00:59:17 2.3 C 40 %
1015 16-11-2019 01:09:17 2.3 C 40 %
1016 16-11-2019 01:19:17 2.2 C 40 %
1017 16-11-2019 01:29:17 2.2 C 40 %
1018 16-11-2019 01:39:17 2.2 C 40 %
1019 16-11-2019 01:49:17 2.3 C 40 %
1020 16-11-2019 01:59:17 2.3 C 40 %
1021 16-11-2019 02:09:17 2.3 C 40 %
1022 16-11-2019 02:19:17 2.3 C 40 %
1023 16-11-2019 02:29:17 2.2 C 40 %
1024 16-11-2019 02:39:17 2.1 C 39 %
1025 16-11-2019 02:49:17 2.1 C 40 %
Sensor: Nr:Datum:Temp:Feuchte:
Aussen-T/F 1026 16-11-2019 02:59:17 2 C 40 %
1027 16-11-2019 03:09:17 2 C 40 %
1028 16-11-2019 03:19:17 1.9 C 41 %
1029 16-11-2019 03:29:17 1.5 C 40 %
1030 16-11-2019 03:39:18 1.3 C 40 %
1031 16-11-2019 03:49:17 1.3 C 41 %
1032 16-11-2019 03:59:17 1.3 C 41 %
1033 16-11-2019 04:09:17 1.1 C 41 %
1034 16-11-2019 04:19:17 0.8 C 41 %
1035 16-11-2019 04:29:17 0.3 C 40 %
1036 16-11-2019 04:39:17 0 C 41 %
1037 16-11-2019 04:49:17 -0.2 C 41 %
1038 16-11-2019 04:59:17 -0.1 C 42 %
1039 16-11-2019 05:09:17 -0.4 C 42 %
1040 16-11-2019 05:19:17 -0.5 C 42 %
1041 16-11-2019 05:29:17 -0.7 C 42 %
1042 16-11-2019 05:39:17 -0.6 C 42 %
1043 16-11-2019 05:49:17 -0.8 C 42 %
1044 16-11-2019 05:59:17 -1 C 42 %
1045 16-11-2019 06:09:17 -1 C 42 %
1046 16-11-2019 06:19:17 -1.1 C 42 %
1047 16-11-2019 06:29:17 -1 C 43 %
1048 16-11-2019 06:39:17 -1 C 43 %
1049 16-11-2019 06:49:17 -1.4 C 42 %
1050 16-11-2019 06:59:17 -1.5 C 42 %
Sensor: Nr:Datum:Temp:Feuchte:
Aussen-T/F 1051 16-11-2019 07:09:17 -1.5 C 42 %
1052 16-11-2019 07:19:17 -1.6 C 42 %
1053 16-11-2019 07:29:17 -1.4 C 43 %
1054 16-11-2019 07:39:17 -1 C 43 %
1055 16-11-2019 07:49:17 -0.9 C 43 %
1056 16-11-2019 07:59:17 -0.7 C 43 %
1057 16-11-2019 08:09:17 -0.7 C 43 %
1058 16-11-2019 08:19:17 -0.7 C 43 %
1059 16-11-2019 08:29:17 -0.6 C 43 %
1060 16-11-2019 08:39:17 -0.5 C 43 %
1061 16-11-2019 08:49:17 -0.4 C 43 %
1062 16-11-2019 08:59:17 -0.3 C 43 %
1063 16-11-2019 09:09:17 -0.4 C 43 %
1064 16-11-2019 09:19:17 -0.5 C 43 %
1065 16-11-2019 09:29:17 -0.5 C 43 %
1066 16-11-2019 09:39:17 -0.4 C 43 %
1067 16-11-2019 09:49:17 -0.4 C 43 %
1068 16-11-2019 09:59:17 -0.2 C 43 %
1069 16-11-2019 10:09:17 0.2 C 43 %
1070 16-11-2019 10:19:17 0.6 C 43 %
1071 16-11-2019 10:29:17 0.6 C 41 %
1072 16-11-2019 10:39:17 0.3 C 40 %
1073 16-11-2019 10:49:17 0.5 C 40 %
1074 16-11-2019 10:59:17 0.6 C 39 %
1075 16-11-2019 11:09:17 0.7 C 38 %
Sensor: Nr:Datum:Temp:Feuchte:
Aussen-T/F 1076 16-11-2019 11:19:17 1.1 C 36 %
1077 16-11-2019 11:29:17 1.6 C 32 %
1078 16-11-2019 11:39:17 2.4 C 32 %
1079 16-11-2019 11:49:17 2.1 C 30 %
1080 16-11-2019 11:59:17 1.8 C 31 %
1081 16-11-2019 12:09:17 1.6 C 32 %
1082 16-11-2019 12:19:17 1.6 C 33 %
1083 16-11-2019 12:29:17 2.3 C 31 %
1084 16-11-2019 12:39:17 2.5 C 30 %
1085 16-11-2019 12:49:17 2.6 C 32 %
1086 16-11-2019 12:59:17 2.6 C 33 %
1087 16-11-2019 13:09:17 2.5 C 35 %
1088 16-11-2019 13:19:17 2.6 C 36 %
1089 16-11-2019 13:29:17 3.2 C 36 %
1090 16-11-2019 13:39:17 3.7 C 35 %
1091 16-11-2019 13:49:17 4 C 32 %
1092 16-11-2019 13:59:17 3.9 C 32 %
1093 16-11-2019 14:09:17 3.7 C 32 %
1094 16-11-2019 14:19:17 3.7 C 33 %
1095 16-11-2019 14:29:17 3.7 C 32 %
1096 16-11-2019 14:39:17 3.9 C 32 %
1097 16-11-2019 14:49:17 3.9 C 31 %
1098 16-11-2019 14:59:17 4 C 30 %
1099 16-11-2019 15:09:17 4.4 C 29 %
1100 16-11-2019 15:19:17 4.7 C 29 %
Sensor: Nr:Datum:Temp:Feuchte:
Aussen-T/F 1101 16-11-2019 15:29:17 4.6 C 29 %
1102 16-11-2019 15:39:17 4.4 C 28 %
1103 16-11-2019 15:49:17 4.5 C 28 %
1104 16-11-2019 15:59:17 4.2 C 28 %
1105 16-11-2019 16:09:17 4 C 29 %
1106 16-11-2019 16:19:17 4.3 C 26 %
1107 16-11-2019 16:29:17 3.8 C 27 %
1108 16-11-2019 16:39:17 3.5 C 30 %
1109 16-11-2019 16:49:17 3.6 C 31 %
1110 16-11-2019 16:59:17 3.4 C 32 %
1111 16-11-2019 17:09:17 3.5 C 32 %
1112 16-11-2019 17:19:17 3.3 C 32 %
1113 16-11-2019 17:29:17 2.6 C 36 %
1114 16-11-2019 17:39:17 2.2 C 36 %
1115 16-11-2019 17:49:17 2.3 C 39 %
1116 16-11-2019 17:59:17 2.2 C 40 %
1117 16-11-2019 18:09:17 2 C 39 %
1118 16-11-2019 18:19:17 2.2 C 40 %
1119 16-11-2019 18:29:17 2 C 40 %
1120 16-11-2019 18:39:17 1.9 C 40 %
1121 16-11-2019 18:49:17 1.7 C 40 %
1122 16-11-2019 18:59:17 1.6 C 40 %
1123 16-11-2019 19:09:17 1.4 C 40 %
1124 16-11-2019 19:19:17 1.3 C 41 %
1125 16-11-2019 19:29:17 1 C 41 %
Sensor: Nr:Datum:Temp:Feuchte:
Aussen-T/F 1126 16-11-2019 19:39:17 1.1 C 42 %
1127 16-11-2019 19:49:17 0.7 C 42 %
1128 16-11-2019 19:59:17 0.5 C 42 %
1129 16-11-2019 20:09:17 0.5 C 43 %
1130 16-11-2019 20:19:17 0.6 C 43 %
1131 16-11-2019 20:29:17 0.7 C 44 %
1132 16-11-2019 20:39:17 0.7 C 44 %
1133 16-11-2019 20:49:17 0.6 C 43 %
1134 16-11-2019 20:59:17 0.6 C 43 %
1135 16-11-2019 21:09:17 1.1 C 43 %
1136 16-11-2019 21:19:17 0.3 C 43 %
1137 16-11-2019 21:29:17 0.1 C 43 %
1138 16-11-2019 21:39:17 0 C 43 %
1139 16-11-2019 21:49:17 -0.2 C 42 %
1140 16-11-2019 21:59:17 -0.3 C 43 %
1141 16-11-2019 22:09:17 0 C 43 %
1142 16-11-2019 22:19:17 -0.5 C 43 %
1143 16-11-2019 22:29:17 -0.7 C 42 %
1144 16-11-2019 22:39:17 -0.9 C 42 %
1145 16-11-2019 22:49:17 -0.9 C 42 %
1146 16-11-2019 22:59:17 -1 C 42 %
1147 16-11-2019 23:09:17 -1.2 C 42 %
1148 16-11-2019 23:19:17 -1 C 42 %
1149 16-11-2019 23:29:17 -1.3 C 42 %
1150 16-11-2019 23:39:17 -1.3 C 42 %
Sensor: Nr:Datum:Temp:Feuchte:
Aussen-T/F 1151 16-11-2019 23:49:17 -1.6 C 42 %
1152 16-11-2019 23:59:17 -1.6 C 42 %
1153 17-11-2019 00:09:17 -1.6 C 42 %
1154 17-11-2019 00:19:17 -1.3 C 43 %
1155 17-11-2019 00:29:17 -1.6 C 42 %
1156 17-11-2019 00:39:17 -1.9 C 42 %
1157 17-11-2019 00:49:17 -1.9 C 42 %
1158 17-11-2019 00:59:17 -2 C 41 %
1159 17-11-2019 01:09:17 -2.2 C 41 %
1160 17-11-2019 01:19:17 -1.4 C 42 %
1161 17-11-2019 01:29:17 -2 C 41 %
1162 17-11-2019 01:39:17 -1.7 C 42 %
1163 17-11-2019 01:49:17 -1.3 C 42 %
1164 17-11-2019 01:59:17 -1.2 C 42 %
1165 17-11-2019 02:09:17 -1 C 43 %
1166 17-11-2019 02:19:17 -1 C 43 %
1167 17-11-2019 02:29:17 -0.5 C 43 %
1168 17-11-2019 02:39:17 -0.3 C 43 %
1169 17-11-2019 02:49:17 -0.2 C 43 %
1170 17-11-2019 02:59:17 -0.2 C 43 %
1171 17-11-2019 03:09:17 0 C 43 %
1172 17-11-2019 03:19:17 0.1 C 43 %
1173 17-11-2019 03:29:17 0.2 C 43 %
1174 17-11-2019 03:39:17 0.3 C 43 %
1175 17-11-2019 03:49:17 0.5 C 43 %
Sensor: Nr:Datum:Temp:Feuchte:
Aussen-T/F 1176 17-11-2019 03:59:17 0.5 C 43 %
1177 17-11-2019 04:09:17 0.7 C 43 %
1178 17-11-2019 04:19:17 0.8 C 43 %
1179 17-11-2019 04:29:17 0.9 C 43 %
1180 17-11-2019 04:39:17 0.9 C 43 %
1181 17-11-2019 04:49:17 0.8 C 43 %
1182 17-11-2019 04:59:17 0.8 C 43 %
1183 17-11-2019 05:09:17 0.8 C 43 %
1184 17-11-2019 05:19:17 0.8 C 43 %
1185 17-11-2019 05:29:17 1 C 42 %
1186 17-11-2019 05:39:17 0.8 C 43 %
1187 17-11-2019 05:49:17 0.8 C 43 %
1188 17-11-2019 05:59:17 0.8 C 43 %
1189 17-11-2019 06:09:17 0.8 C 43 %
1190 17-11-2019 06:19:17 0.8 C 43 %
1191 17-11-2019 06:29:17 0.8 C 43 %
1192 17-11-2019 06:39:17 0.9 C 43 %
1193 17-11-2019 06:49:17 1 C 41 %
1194 17-11-2019 06:59:17 0.9 C 43 %
1195 17-11-2019 07:09:17 1 C 41 %
1196 17-11-2019 07:19:17 1 C 41 %
1197 17-11-2019 07:29:17 1 C 41 %
1198 17-11-2019 07:39:17 1.1 C 41 %
1199 17-11-2019 07:49:17 1.1 C 41 %
1200 17-11-2019 07:59:17 1.1 C 41 %
Sensor: Nr:Datum:Temp:Feuchte:
Aussen-T/F 1201 17-11-2019 08:09:17 1.2 C 41 %
1202 17-11-2019 08:19:17 1.2 C 41 %
1203 17-11-2019 08:29:17 1.2 C 41 %
1204 17-11-2019 08:39:17 1.3 C 41 %
1205 17-11-2019 08:49:17 1.4 C 41 %
1206 17-11-2019 08:59:17 1.5 C 42 %
1207 17-11-2019 09:09:17 1.5 C 42 %
1208 17-11-2019 09:19:17 1.8 C 42 %
1209 17-11-2019 09:29:17 2 C 41 %
1210 17-11-2019 09:39:17 2.1 C 41 %
1211 17-11-2019 09:49:17 2.1 C 41 %
1212 17-11-2019 09:59:17 2.3 C 41 %
1213 17-11-2019 10:09:17 2.5 C 42 %
1214 17-11-2019 10:19:17 2.6 C 42 %
1215 17-11-2019 10:29:17 2.6 C 42 %
1216 17-11-2019 10:39:17 2.7 C 41 %
1217 17-11-2019 10:49:17 2.8 C 41 %
1218 17-11-2019 10:59:17 3 C 41 %
1219 17-11-2019 11:09:17 3.2 C 40 %
1220 17-11-2019 11:19:17 3.3 C 40 %
1221 17-11-2019 11:29:17 3.5 C 39 %
1222 17-11-2019 11:39:17 3.5 C 39 %
1223 17-11-2019 11:49:17 3.5 C 39 %
1224 17-11-2019 11:59:17 3.7 C 38 %
1225 17-11-2019 12:09:17 3.9 C 38 %
Sensor: Nr:Datum:Temp:Feuchte:
Aussen-T/F 1226 17-11-2019 12:19:17 3.8 C 38 %
1227 17-11-2019 12:29:17 3.9 C 38 %
1228 17-11-2019 12:39:17 4 C 37 %
1229 17-11-2019 12:49:17 4.1 C 37 %
1230 17-11-2019 12:59:17 4.4 C 37 %
1231 17-11-2019 13:09:17 4.5 C 36 %
1232 17-11-2019 13:19:17 4.6 C 33 %
1233 17-11-2019 13:29:17 4.7 C 32 %
1234 17-11-2019 13:39:17 4.7 C 32 %
1235 17-11-2019 13:49:17 4.8 C 32 %
1236 17-11-2019 13:59:17 4.8 C 32 %
1237 17-11-2019 14:09:17 4.9 C 33 %
1238 17-11-2019 14:19:17 4.9 C 31 %
1239 17-11-2019 14:29:17 5.1 C 31 %
1240 17-11-2019 14:39:17 4.6 C 29 %
1241 17-11-2019 14:49:17 4.4 C 31 %
1242 17-11-2019 14:59:17 4.3 C 35 %
1243 17-11-2019 15:09:17 4.3 C 35 %
1244 17-11-2019 15:19:17 4.2 C 37 %
1245 17-11-2019 15:29:17 4.1 C 37 %
1246 17-11-2019 15:39:18 4.2 C 38 %
1247 17-11-2019 15:49:17 4 C 38 %
1248 17-11-2019 15:59:17 4 C 37 %
1249 17-11-2019 16:09:17 4 C 38 %
1250 17-11-2019 16:19:17 4 C 38 %
Sensor: Nr:Datum:Temp:Feuchte:
Aussen-T/F 1251 17-11-2019 16:29:17 3.8 C 40 %
1252 17-11-2019 16:39:17 3.8 C 40 %
1253 17-11-2019 16:49:17 3.8 C 39 %
1254 17-11-2019 16:59:17 3.7 C 40 %
1255 17-11-2019 17:09:17 3.7 C 40 %
1256 17-11-2019 17:19:17 3.6 C 40 %
1257 17-11-2019 17:29:17 3.6 C 40 %
1258 17-11-2019 17:39:17 3.6 C 40 %
1259 17-11-2019 17:49:17 3.6 C 41 %
1260 17-11-2019 17:59:17 3.7 C 41 %
1261 17-11-2019 18:09:17 3.8 C 41 %
1262 17-11-2019 18:19:17 3.9 C 42 %
1263 17-11-2019 18:29:17 3.9 C 42 %
1264 17-11-2019 18:39:17 3.9 C 41 %
1265 17-11-2019 18:49:17 3.9 C 41 %
1266 17-11-2019 18:59:17 3.8 C 41 %
1267 17-11-2019 19:09:17 3.8 C 40 %
1268 17-11-2019 19:19:17 3.8 C 41 %
1269 17-11-2019 19:29:17 3.8 C 41 %
1270 17-11-2019 19:39:17 3.8 C 41 %
1271 17-11-2019 19:49:17 3.9 C 41 %
1272 17-11-2019 19:59:17 3.9 C 41 %
1273 17-11-2019 20:09:17 3.9 C 41 %
1274 17-11-2019 20:19:17 3.9 C 41 %
1275 17-11-2019 20:29:17 3.9 C 41 %
Sensor: Nr:Datum:Temp:Feuchte:
Aussen-T/F 1276 17-11-2019 20:39:17 3.9 C 41 %
1277 17-11-2019 20:49:17 4 C 40 %
1278 17-11-2019 20:59:17 4 C 40 %
1279 17-11-2019 21:09:17 3.9 C 41 %
1280 17-11-2019 21:19:17 4 C 40 %
1281 17-11-2019 21:29:17 3.9 C 41 %
1282 17-11-2019 21:39:17 3.9 C 41 %
1283 17-11-2019 21:49:17 3.9 C 41 %
1284 17-11-2019 21:59:17 3.9 C 41 %
1285 17-11-2019 22:09:17 3.9 C 41 %
1286 17-11-2019 22:19:17 3.9 C 41 %
1287 17-11-2019 22:29:17 3.9 C 41 %
1288 17-11-2019 22:39:17 3.9 C 41 %
1289 17-11-2019 22:49:17 3.9 C 41 %
1290 17-11-2019 22:59:17 3.8 C 41 %
1291 17-11-2019 23:09:17 3.8 C 41 %
1292 17-11-2019 23:19:17 3.8 C 41 %
1293 17-11-2019 23:29:17 3.8 C 41 %
1294 17-11-2019 23:39:17 3.8 C 41 %
1295 17-11-2019 23:49:17 3.7 C 41 %
1296 17-11-2019 23:59:17 3.6 C 41 %
1297 18-11-2019 00:09:17 3.6 C 40 %
1298 18-11-2019 00:19:17 3.6 C 40 %
1299 18-11-2019 00:29:17 3.5 C 40 %
1300 18-11-2019 00:39:17 3.5 C 40 %
Sensor: Nr:Datum:Temp:Feuchte:
Aussen-T/F 1301 18-11-2019 00:49:17 3.4 C 40 %
1302 18-11-2019 00:59:17 3.4 C 39 %
1303 18-11-2019 01:09:17 3.4 C 39 %
1304 18-11-2019 01:19:17 3.4 C 38 %
1305 18-11-2019 01:29:17 3.4 C 38 %
1306 18-11-2019 01:39:17 3.3 C 38 %
1307 18-11-2019 01:49:17 3.4 C 39 %
1308 18-11-2019 01:59:17 3.4 C 39 %
1309 18-11-2019 02:09:17 3.4 C 40 %
1310 18-11-2019 02:19:17 3.3 C 40 %
1311 18-11-2019 02:29:17 3.4 C 40 %
1312 18-11-2019 02:39:17 3.4 C 40 %
1313 18-11-2019 02:49:17 3.4 C 40 %
1314 18-11-2019 02:59:17 3.3 C 40 %
1315 18-11-2019 03:09:17 3.3 C 40 %
1316 18-11-2019 03:19:17 3.4 C 41 %
1317 18-11-2019 03:29:17 3.4 C 41 %
1318 18-11-2019 03:39:17 3.3 C 40 %
1319 18-11-2019 03:49:17 3.4 C 40 %
1320 18-11-2019 03:59:17 3.4 C 40 %
1321 18-11-2019 04:09:17 3.4 C 40 %
1322 18-11-2019 04:19:17 3.3 C 40 %
1323 18-11-2019 04:29:17 3.4 C 40 %
1324 18-11-2019 04:39:18 3.3 C 40 %
1325 18-11-2019 04:49:17 3.3 C 40 %
Sensor: Nr:Datum:Temp:Feuchte:
Aussen-T/F 1326 18-11-2019 04:59:17 3.3 C 40 %
1327 18-11-2019 05:09:17 3.4 C 40 %
1328 18-11-2019 05:19:18 3.3 C 40 %
1329 18-11-2019 05:29:18 3.3 C 40 %
1330 18-11-2019 05:39:17 3.3 C 41 %
1331 18-11-2019 05:49:17 3.3 C 40 %
1332 18-11-2019 05:59:17 3.3 C 41 %
1333 18-11-2019 06:09:17 3.3 C 41 %
1334 18-11-2019 06:19:17 3.3 C 41 %
1335 18-11-2019 06:29:17 3.2 C 41 %
1336 18-11-2019 06:39:17 3.2 C 41 %
1337 18-11-2019 06:49:17 3.2 C 41 %
1338 18-11-2019 06:59:17 3.2 C 41 %
1339 18-11-2019 07:09:17 3.2 C 41 %
1340 18-11-2019 07:19:18 3.2 C 41 %
1341 18-11-2019 07:29:18 3.2 C 41 %
1342 18-11-2019 07:39:18 3.3 C 41 %
1343 18-11-2019 07:49:17 3.3 C 41 %
1344 18-11-2019 07:59:17 3.3 C 41 %
1345 18-11-2019 08:09:17 3.3 C 41 %
1346 18-11-2019 08:19:17 3.3 C 41 %
1347 18-11-2019 08:29:17 3.4 C 41 %
1348 18-11-2019 08:39:18 3.4 C 41 %
1349 18-11-2019 08:49:18 3.4 C 41 %
1350 18-11-2019 08:59:18 3.4 C 41 %
Sensor: Nr:Datum:Temp:Feuchte:
Aussen-T/F 1351 18-11-2019 09:09:17 3.5 C 41 %
1352 18-11-2019 09:19:17 3.6 C 41 %
1353 18-11-2019 09:29:17 3.6 C 40 %
1354 18-11-2019 09:39:17 3.7 C 40 %
1355 18-11-2019 09:49:17 3.9 C 38 %
1356 18-11-2019 09:59:17 4.1 C 37 %
1357 18-11-2019 10:09:17 4.1 C 35 %
1358 18-11-2019 10:19:31 4.2 C 35 %
1359 18-11-2019 10:29:31 4.1 C 35 %
1360 18-11-2019 10:39:17 4.1 C 35 %
1361 18-11-2019 10:49:17 4.2 C 36 %
1362 18-11-2019 10:59:17 4.1 C 35 %
1363 18-11-2019 11:09:17 4.1 C 35 %
1364 18-11-2019 11:19:17 4.2 C 35 %
1365 18-11-2019 11:29:17 4.3 C 34 %
1366 18-11-2019 11:39:17 4.4 C 34 %
1367 18-11-2019 11:49:17 4.7 C 33 %
1368 18-11-2019 11:59:17 5 C 29 %
1369 18-11-2019 12:09:17 4.9 C 30 %
1370 18-11-2019 12:19:17 5 C 28 %
1371 18-11-2019 12:29:17 4.8 C 30 %
1372 18-11-2019 12:39:17 4.8 C 30 %
1373 18-11-2019 12:49:17 4.8 C 30 %
1374 18-11-2019 12:59:17 4.8 C 30 %
1375 18-11-2019 13:09:17 4.7 C 30 %
Sensor: Nr:Datum:Temp:Feuchte:
Aussen-T/F 1376 18-11-2019 13:19:17 4.7 C 31 %
1377 18-11-2019 13:29:17 4.8 C 30 %
1378 18-11-2019 13:39:17 4.8 C 30 %
1379 18-11-2019 13:49:17 4.8 C 29 %
1380 18-11-2019 13:59:17 4.8 C 30 %
1381 18-11-2019 14:09:17 4.8 C 28 %
1382 18-11-2019 14:19:17 4.8 C 30 %
1383 18-11-2019 14:29:17 4.8 C 30 %
1384 18-11-2019 14:39:17 4.8 C 30 %
1385 18-11-2019 14:49:17 4.6 C 30 %
1386 18-11-2019 14:59:17 4.5 C 30 %
1387 18-11-2019 15:09:17 4.5 C 31 %
1388 18-11-2019 15:19:18 4.5 C 31 %
1389 18-11-2019 15:29:18 4.5 C 30 %
1390 18-11-2019 15:39:17 4.5 C 30 %
1391 18-11-2019 15:49:17 4.4 C 30 %
1392 18-11-2019 15:59:17 4.3 C 30 %
1393 18-11-2019 16:09:17 4.2 C 31 %
1394 18-11-2019 16:19:17 4.1 C 31 %
1395 18-11-2019 16:29:17 4.1 C 30 %
1396 18-11-2019 16:39:17 4.1 C 31 %
1397 18-11-2019 16:49:17 4.1 C 32 %
1398 18-11-2019 16:59:17 4.1 C 30 %
1399 18-11-2019 17:09:17 4.1 C 30 %
1400 18-11-2019 17:19:17 4.1 C 30 %
Sensor: Nr:Datum:Temp:Feuchte:
Aussen-T/F 1401 18-11-2019 17:29:17 4 C 31 %
1402 18-11-2019 17:39:17 4 C 31 %
1403 18-11-2019 17:49:17 4 C 31 %
1404 18-11-2019 17:59:17 3.9 C 33 %
1405 18-11-2019 18:09:17 3.9 C 34 %
1406 18-11-2019 18:19:17 3.8 C 34 %
1407 18-11-2019 18:29:17 3.8 C 35 %
1408 18-11-2019 18:39:17 3.7 C 34 %
1409 18-11-2019 18:49:17 3.5 C 36 %
1410 18-11-2019 18:59:17 3.5 C 35 %
1411 18-11-2019 19:09:17 3.3 C 34 %
1412 18-11-2019 19:19:17 3.2 C 34 %
1413 18-11-2019 19:29:17 3 C 36 %
1414 18-11-2019 19:39:17 2.9 C 36 %
1415 18-11-2019 19:49:17 2.7 C 36 %
1416 18-11-2019 19:59:17 2.7 C 36 %
1417 18-11-2019 20:09:17 2.4 C 36 %
1418 18-11-2019 20:19:17 2.3 C 37 %
1419 18-11-2019 20:29:17 2.2 C 36 %
1420 18-11-2019 20:39:17 2 C 37 %
1421 18-11-2019 20:49:17 1.9 C 39 %
1422 18-11-2019 20:59:17 1.8 C 38 %
1423 18-11-2019 21:09:17 1.6 C 40 %
1424 18-11-2019 21:19:17 1.5 C 39 %
1425 18-11-2019 21:29:17 1.5 C 40 %
Sensor: Nr:Datum:Temp:Feuchte:
Aussen-T/F 1426 18-11-2019 21:39:17 1.5 C 40 %
1427 18-11-2019 21:49:17 1.6 C 40 %
1428 18-11-2019 21:59:17 1.8 C 40 %
1429 18-11-2019 22:09:17 2 C 38 %
1430 18-11-2019 22:19:17 2 C 38 %
1431 18-11-2019 22:29:17 2.2 C 36 %
1432 18-11-2019 22:39:17 2.2 C 36 %
1433 18-11-2019 22:49:17 2.2 C 36 %
1434 18-11-2019 22:59:17 2.2 C 36 %
1435 18-11-2019 23:09:17 2.2 C 36 %
1436 18-11-2019 23:19:17 2.4 C 36 %
1437 18-11-2019 23:29:17 2.6 C 36 %
1438 18-11-2019 23:39:17 2.7 C 35 %
1439 18-11-2019 23:49:17 2.7 C 35 %
1440 18-11-2019 23:59:17 2.8 C 36 %
1441 19-11-2019 00:09:17 2.9 C 36 %
1442 19-11-2019 00:19:17 2.9 C 36 %
1443 19-11-2019 00:29:17 3 C 36 %
1444 19-11-2019 00:39:17 3 C 35 %
1445 19-11-2019 00:49:18 3 C 35 %
1446 19-11-2019 00:59:18 3 C 36 %
1447 19-11-2019 01:09:17 3.2 C 36 %
1448 19-11-2019 01:19:17 3.2 C 36 %
1449 19-11-2019 01:29:17 3.2 C 36 %
1450 19-11-2019 01:39:18 3.3 C 37 %
Sensor: Nr:Datum:Temp:Feuchte:
Aussen-T/F 1451 19-11-2019 01:49:18 3.4 C 36 %
1452 19-11-2019 01:59:18 3.3 C 36 %
1453 19-11-2019 02:09:18 3.3 C 36 %
1454 19-11-2019 02:19:17 3.4 C 36 %
1455 19-11-2019 02:29:17 3.3 C 36 %
1456 19-11-2019 02:39:17 3.4 C 37 %
1457 19-11-2019 02:49:17 3.3 C 37 %
1458 19-11-2019 02:59:17 3.3 C 38 %
1459 19-11-2019 03:09:17 3.3 C 40 %
1460 19-11-2019 03:19:17 3.4 C 39 %
1461 19-11-2019 03:29:17 3.4 C 39 %
1462 19-11-2019 03:39:17 3.5 C 37 %
1463 19-11-2019 03:49:17 3.5 C 37 %
1464 19-11-2019 03:59:17 3.5 C 38 %
1465 19-11-2019 04:09:17 3.6 C 37 %
1466 19-11-2019 04:19:18 3.6 C 36 %
1467 19-11-2019 04:29:18 3.5 C 36 %
1468 19-11-2019 04:39:17 3.5 C 37 %
1469 19-11-2019 04:49:17 3.4 C 37 %
1470 19-11-2019 04:59:17 3.1 C 39 %
1471 19-11-2019 05:09:17 2.5 C 40 %
1472 19-11-2019 05:19:18 2.3 C 41 %
1473 19-11-2019 05:29:18 2 C 42 %
1474 19-11-2019 05:39:17 1.6 C 43 %
1475 19-11-2019 05:49:17 1.5 C 43 %
Sensor: Nr:Datum:Temp:Feuchte:
Aussen-T/F 1476 19-11-2019 05:59:17 1.8 C 44 %
1477 19-11-2019 06:09:17 1.8 C 44 %
1478 19-11-2019 06:19:17 1.7 C 43 %
1479 19-11-2019 06:29:17 1.7 C 43 %
1480 19-11-2019 06:39:17 1.8 C 43 %
1481 19-11-2019 06:49:17 2 C 42 %
1482 19-11-2019 06:59:17 2.1 C 42 %
1483 19-11-2019 07:09:17 2.4 C 42 %
1484 19-11-2019 07:19:17 2.2 C 42 %
1485 19-11-2019 07:29:17 1.5 C 42 %
1486 19-11-2019 07:39:17 1.3 C 42 %
1487 19-11-2019 07:49:17 1.2 C 42 %
1488 19-11-2019 07:59:17 1.8 C 43 %
1489 19-11-2019 08:09:17 2.1 C 42 %
1490 19-11-2019 08:19:17 2.5 C 42 %
1491 19-11-2019 08:29:17 2.8 C 42 %
1492 19-11-2019 08:39:17 2.5 C 41 %
1493 19-11-2019 08:49:17 2.6 C 41 %
1494 19-11-2019 08:59:17 3.2 C 41 %
1495 19-11-2019 09:09:17 3.3 C 40 %
1496 19-11-2019 09:19:17 3.3 C 39 %
1497 19-11-2019 09:29:17 3.4 C 38 %
1498 19-11-2019 09:39:17 3.3 C 35 %
1499 19-11-2019 09:49:17 3.2 C 35 %
1500 19-11-2019 09:59:17 3.1 C 35 %
Sensor: Nr:Datum:Temp:Feuchte:
Aussen-T/F 1501 19-11-2019 10:09:17 3.1 C 36 %
1502 19-11-2019 10:19:17 3.2 C 36 %
1503 19-11-2019 10:29:17 3.3 C 37 %
1504 19-11-2019 10:39:17 3.2 C 38 %
1505 19-11-2019 10:49:17 3.3 C 38 %
1506 19-11-2019 10:59:17 3.4 C 38 %
1507 19-11-2019 11:09:17 3.5 C 38 %
1508 19-11-2019 11:19:17 3.5 C 38 %
1509 19-11-2019 11:29:17 4.2 C 33 %
1510 19-11-2019 11:39:17 5 C 30 %
1511 19-11-2019 11:49:17 5.5 C 23 %
1512 19-11-2019 11:59:17 5.5 C 23 %
1513 19-11-2019 12:09:17 5.5 C 23 %
1514 19-11-2019 12:19:17 6.2 C 20 %
1515 19-11-2019 12:29:17 6.3 C 20 %
1516 19-11-2019 12:39:17 5.5 C 20 %
1517 19-11-2019 12:49:17 5.6 C 20 %
1518 19-11-2019 12:59:17 5.7 C 20 %
1519 19-11-2019 13:09:17 5.8 C 20 %
1520 19-11-2019 13:19:17 5.7 C 20 %
1521 19-11-2019 13:29:17 5.8 C 20 %
1522 19-11-2019 13:39:17 5.7 C 20 %
1523 19-11-2019 13:49:17 6 C 20 %
1524 19-11-2019 13:59:17 6.3 C 20 %
1525 19-11-2019 14:09:17 6.2 C 20 %
Sensor: Nr:Datum:Temp:Feuchte:
Aussen-T/F 1526 19-11-2019 14:19:17 6.2 C 20 %
1527 19-11-2019 14:29:17 6 C 20 %
1528 19-11-2019 14:39:17 5.9 C 20 %
1529 19-11-2019 14:49:17 5.8 C 20 %
1530 19-11-2019 14:59:17 5.9 C 25 %
1531 19-11-2019 15:09:17 5.8 C 23 %
1532 19-11-2019 15:19:18 5.6 C 28 %
1533 19-11-2019 15:29:18 5.4 C 30 %
1534 19-11-2019 15:39:17 5.1 C 32 %
1535 19-11-2019 15:49:17 4.9 C 30 %
1536 19-11-2019 15:59:17 4.8 C 32 %
1537 19-11-2019 16:09:17 4.7 C 35 %
1538 19-11-2019 16:19:17 4.5 C 36 %
1539 19-11-2019 16:29:17 4.4 C 35 %
1540 19-11-2019 16:39:17 4.4 C 35 %
1541 19-11-2019 16:49:17 3.8 C 38 %
1542 19-11-2019 16:59:17 3.5 C 39 %
1543 19-11-2019 17:09:17 3.3 C 40 %
1544 19-11-2019 17:19:17 3.2 C 41 %
1545 19-11-2019 17:29:17 2.9 C 41 %
1546 19-11-2019 17:39:17 2.8 C 42 %
1547 19-11-2019 17:49:17 2.7 C 42 %
1548 19-11-2019 17:59:17 2.7 C 42 %
1549 19-11-2019 18:09:17 2.4 C 42 %
1550 19-11-2019 18:19:17 2.2 C 42 %
Sensor: Nr:Datum:Temp:Feuchte:
Aussen-T/F 1551 19-11-2019 18:29:17 2.3 C 42 %
1552 19-11-2019 18:39:17 2.5 C 42 %
1553 19-11-2019 18:49:17 2.6 C 42 %
1554 19-11-2019 18:59:17 2 C 41 %
1555 19-11-2019 19:09:17 1.4 C 41 %
1556 19-11-2019 19:19:17 1.4 C 42 %
1557 19-11-2019 19:29:17 1.5 C 42 %
1558 19-11-2019 19:39:17 1.2 C 42 %
1559 19-11-2019 19:49:17 1 C 42 %
1560 19-11-2019 19:59:17 0.6 C 43 %
1561 19-11-2019 20:09:17 0.9 C 44 %
1562 19-11-2019 20:19:17 1.5 C 43 %
1563 19-11-2019 20:29:17 1.8 C 43 %
1564 19-11-2019 20:39:17 1.9 C 43 %
1565 19-11-2019 20:49:17 1.9 C 43 %
1566 19-11-2019 20:59:17 1.9 C 43 %
1567 19-11-2019 21:09:17 1.9 C 43 %
1568 19-11-2019 21:19:17 1.9 C 43 %
1569 19-11-2019 21:29:17 1.9 C 42 %
1570 19-11-2019 21:39:17 2 C 41 %
1571 19-11-2019 21:49:17 2 C 41 %
1572 19-11-2019 21:59:17 1.9 C 42 %
1573 19-11-2019 22:09:17 1.7 C 42 %
1574 19-11-2019 22:19:17 1.5 C 41 %
1575 19-11-2019 22:29:17 1.4 C 41 %
Sensor: Nr:Datum:Temp:Feuchte:
Aussen-T/F 1576 19-11-2019 22:39:17 1.1 C 41 %
1577 19-11-2019 22:49:17 0.6 C 41 %
1578 19-11-2019 22:59:17 0.6 C 42 %
1579 19-11-2019 23:09:17 -0.1 C 42 %
1580 19-11-2019 23:19:17 -0.2 C 42 %
1581 19-11-2019 23:29:17 -0.4 C 42 %
1582 19-11-2019 23:39:17 -0.5 C 42 %
1583 19-11-2019 23:49:17 -0.5 C 42 %
1584 19-11-2019 23:59:17 -0.6 C 42 %
1585 20-11-2019 00:09:17 -0.7 C 42 %
1586 20-11-2019 00:19:17 -0.6 C 42 %
1587 20-11-2019 00:29:17 -0.5 C 42 %
1588 20-11-2019 00:39:17 -0.7 C 42 %
1589 20-11-2019 00:49:17 -0.7 C 43 %
1590 20-11-2019 00:59:17 -0.8 C 42 %
1591 20-11-2019 01:09:17 -0.8 C 42 %
1592 20-11-2019 01:19:17 -1.1 C 42 %
1593 20-11-2019 01:29:17 -1.1 C 42 %
1594 20-11-2019 01:39:17 -0.7 C 43 %
1595 20-11-2019 01:49:17 -0.6 C 43 %
1596 20-11-2019 01:59:17 -0.5 C 43 %
1597 20-11-2019 02:09:17 -0.4 C 43 %
1598 20-11-2019 02:19:17 -0.4 C 43 %
1599 20-11-2019 02:29:17 -0.5 C 43 %
1600 20-11-2019 02:39:17 -0.5 C 43 %
Sensor: Nr:Datum:Temp:Feuchte:
Aussen-T/F 1601 20-11-2019 02:49:17 -0.4 C 43 %
1602 20-11-2019 02:59:17 -0.4 C 43 %
1603 20-11-2019 03:09:17 -0.3 C 43 %
1604 20-11-2019 03:19:17 -0.3 C 43 %
1605 20-11-2019 03:29:17 -0.4 C 43 %
1606 20-11-2019 03:39:17 -0.5 C 43 %
1607 20-11-2019 03:49:17 -0.5 C 43 %
1608 20-11-2019 03:59:17 -0.7 C 43 %
1609 20-11-2019 04:09:17 -0.6 C 43 %
1610 20-11-2019 04:19:17 -0.5 C 43 %
1611 20-11-2019 04:29:17 -0.6 C 42 %
1612 20-11-2019 04:39:17 -0.5 C 42 %
1613 20-11-2019 04:49:17 -0.5 C 42 %
1614 20-11-2019 04:59:17 -0.4 C 42 %
1615 20-11-2019 05:09:17 -0.3 C 42 %
1616 20-11-2019 05:19:17 -0.3 C 42 %
1617 20-11-2019 05:29:17 -0.3 C 42 %
1618 20-11-2019 05:39:17 -0.3 C 42 %
1619 20-11-2019 05:49:17 -0.3 C 42 %
1620 20-11-2019 05:59:17 -0.2 C 42 %
1621 20-11-2019 06:09:17 -0.1 C 42 %
1622 20-11-2019 06:19:17 -0.1 C 42 %
1623 20-11-2019 06:29:17 0 C 42 %
1624 20-11-2019 06:39:17 0 C 42 %
1625 20-11-2019 06:49:17 0 C 42 %
Sensor: Nr:Datum:Temp:Feuchte:
Aussen-T/F 1626 20-11-2019 06:59:17 0.2 C 42 %
1627 20-11-2019 07:09:17 0.2 C 42 %
1628 20-11-2019 07:19:17 0.2 C 42 %
1629 20-11-2019 07:29:17 0.4 C 42 %
1630 20-11-2019 07:39:18 0.3 C 42 %
1631 20-11-2019 07:49:17 0.4 C 42 %
1632 20-11-2019 07:59:17 0.4 C 42 %
1633 20-11-2019 08:09:17 0.4 C 42 %
1634 20-11-2019 08:19:17 0.5 C 42 %
1635 20-11-2019 08:29:17 0.6 C 42 %
1636 20-11-2019 08:39:17 0.7 C 43 %
1637 20-11-2019 08:49:17 0.8 C 43 %
1638 20-11-2019 08:59:17 0.9 C 43 %
1639 20-11-2019 09:09:17 1.1 C 42 %
1640 20-11-2019 09:19:17 1 C 42 %
1641 20-11-2019 09:29:17 1.2 C 42 %
1642 20-11-2019 09:39:17 1.6 C 42 %
1643 20-11-2019 09:49:17 1.7 C 42 %
1644 20-11-2019 09:59:17 2 C 41 %
1645 20-11-2019 10:09:17 2.1 C 41 %
1646 20-11-2019 10:19:17 2.4 C 41 %
1647 20-11-2019 10:29:17 2.9 C 41 %
1648 20-11-2019 10:39:17 3 C 39 %
1649 20-11-2019 10:49:17 2.6 C 39 %
1650 20-11-2019 10:59:17 2.5 C 38 %
Sensor: Nr:Datum:Temp:Feuchte:
Aussen-T/F 1651 20-11-2019 11:09:17 2.6 C 38 %
1652 20-11-2019 11:19:17 3.3 C 38 %
1653 20-11-2019 11:29:17 3.3 C 37 %
1654 20-11-2019 11:39:17 3 C 35 %
1655 20-11-2019 11:49:17 3.7 C 35 %
1656 20-11-2019 11:59:17 4.3 C 31 %
1657 20-11-2019 12:09:17 3.9 C 30 %
1658 20-11-2019 12:19:17 4.3 C 30 %
1659 20-11-2019 12:29:17 4.5 C 30 %
1660 20-11-2019 12:39:17 4.5 C 27 %
1661 20-11-2019 12:49:17 4.6 C 26 %
1662 20-11-2019 12:59:17 4.5 C 26 %
1663 20-11-2019 13:09:17 4.7 C 25 %
1664 20-11-2019 13:19:17 4.5 C 23 %
1665 20-11-2019 13:29:17 4.4 C 23 %
1666 20-11-2019 13:39:17 4.7 C 20 %
1667 20-11-2019 13:49:17 5.1 C 20 %
1668 20-11-2019 13:59:17 4.8 C 20 %
1669 20-11-2019 14:09:17 4.8 C 20 %
1670 20-11-2019 14:19:17 4.8 C 20 %
1671 20-11-2019 14:29:17 4.7 C 20 %
1672 20-11-2019 14:39:17 4.7 C 20 %
1673 20-11-2019 14:49:17 4.7 C 20 %
1674 20-11-2019 14:59:17 4.7 C 20 %
1675 20-11-2019 15:09:17 4.7 C 20 %
Sensor: Nr:Datum:Temp:Feuchte:
Aussen-T/F 1676 20-11-2019 15:19:17 4.7 C 20 %
1677 20-11-2019 15:29:17 4.6 C 20 %
1678 20-11-2019 15:39:17 4.5 C 20 %
1679 20-11-2019 15:49:17 4.3 C 21 %
1680 20-11-2019 15:59:17 3.4 C 26 %
1681 20-11-2019 16:09:17 2.7 C 28 %
1682 20-11-2019 16:19:17 2.2 C 29 %
1683 20-11-2019 16:29:17 1.8 C 30 %
1684 20-11-2019 16:39:17 1.8 C 30 %
1685 20-11-2019 16:49:17 1.5 C 32 %
1686 20-11-2019 16:59:17 1.5 C 32 %
1687 20-11-2019 17:09:17 1.7 C 32 %
1688 20-11-2019 17:19:17 1.8 C 34 %
1689 20-11-2019 17:29:17 1.7 C 35 %
1690 20-11-2019 17:39:17 0.9 C 35 %
1691 20-11-2019 17:49:17 0.5 C 38 %
1692 20-11-2019 17:59:17 0.6 C 40 %
1693 20-11-2019 18:09:17 0.3 C 40 %
1694 20-11-2019 18:19:17 0.2 C 41 %
1695 20-11-2019 18:29:17 0.1 C 40 %
1696 20-11-2019 18:39:17 0 C 41 %
1697 20-11-2019 18:49:17 -0.2 C 41 %
1698 20-11-2019 18:59:17 -0.7 C 41 %
1699 20-11-2019 19:09:17 -0.9 C 41 %
1700 20-11-2019 19:19:17 -1.1 C 41 %
Sensor: Nr:Datum:Temp:Feuchte:
Aussen-T/F 1701 20-11-2019 19:29:17 -1.2 C 41 %
1702 20-11-2019 19:39:18 -1.2 C 42 %
1703 20-11-2019 19:49:18 -1.4 C 42 %
1704 20-11-2019 19:59:18 -1.5 C 42 %
1705 20-11-2019 20:09:18 -1.6 C 42 %
1706 20-11-2019 20:19:17 -1.7 C 42 %
1707 20-11-2019 20:29:17 -1.4 C 43 %
1708 20-11-2019 20:39:17 -1.4 C 43 %
1709 20-11-2019 20:59:17 -1.7 C 43 %
1710 20-11-2019 20:59:17 -1.8 C 43 %
1711 20-11-2019 21:09:17 -1.8 C 42 %
1712 20-11-2019 21:19:17 -2 C 42 %
1713 20-11-2019 21:29:17 -2.1 C 42 %
1714 20-11-2019 21:39:17 -2.1 C 42 %
1715 20-11-2019 21:49:17 -2.3 C 42 %
1716 20-11-2019 21:59:17 -2.1 C 42 %
1717 20-11-2019 22:09:17 -2 C 43 %
1718 20-11-2019 22:19:17 -2.1 C 42 %
1719 20-11-2019 22:29:17 -2.2 C 42 %
1720 20-11-2019 22:39:17 -2.1 C 42 %
1721 20-11-2019 22:49:17 -1.8 C 43 %
1722 20-11-2019 22:59:17 -1.7 C 43 %
1723 20-11-2019 23:09:17 -1.6 C 43 %
1724 20-11-2019 23:19:17 -1.4 C 43 %
1725 20-11-2019 23:29:17 -1.6 C 43 %
Sensor: Nr:Datum:Temp:Feuchte:
Aussen-T/F 1726 20-11-2019 23:39:17 -1.3 C 43 %
1727 20-11-2019 23:49:17 -1.1 C 43 %
1728 20-11-2019 23:59:17 -1.1 C 43 %
1729 21-11-2019 00:09:17 -1.3 C 43 %
1730 21-11-2019 00:29:17 -1.8 C 42 %
1731 21-11-2019 00:30:17 -1.9 C 42 %
1732 21-11-2019 00:39:17 -2 C 41 %
1733 21-11-2019 00:50:17 -2.1 C 41 %
1734 21-11-2019 01:00:17 -2.4 C 41 %
1735 21-11-2019 01:10:17 -2.4 C 41 %
1736 21-11-2019 01:20:17 -2.5 C 41 %
1737 21-11-2019 01:30:17 -2.3 C 41 %
1738 21-11-2019 01:40:17 -2.7 C 40 %
1739 21-11-2019 01:50:17 -2.6 C 41 %
1740 21-11-2019 02:00:17 -2.6 C 40 %
1741 21-11-2019 02:10:17 -2.7 C 40 %
1742 21-11-2019 02:20:17 -2.2 C 42 %
1743 21-11-2019 02:30:17 -2.3 C 42 %
1744 21-11-2019 02:40:17 -1.9 C 42 %
1745 21-11-2019 02:50:17 -2.1 C 42 %
1746 21-11-2019 03:00:17 -2.2 C 41 %
1747 21-11-2019 03:10:17 -2.4 C 41 %
1748 21-11-2019 03:20:17 -2.3 C 41 %
1749 21-11-2019 03:30:17 -2.1 C 42 %
1750 21-11-2019 03:40:17 -1.8 C 42 %
Sensor: Nr:Datum:Temp:Feuchte:
Aussen-T/F 1751 21-11-2019 03:50:17 -1.6 C 42 %
1752 21-11-2019 04:00:17 -1.5 C 42 %
1753 21-11-2019 04:10:17 -1.3 C 43 %
1754 21-11-2019 04:20:17 -1.1 C 43 %
1755 21-11-2019 04:30:17 -1 C 43 %
1756 21-11-2019 04:40:17 -1 C 43 %
1757 21-11-2019 04:50:17 -1 C 43 %
1758 21-11-2019 05:00:17 -1 C 43 %
1759 21-11-2019 05:10:17 -0.7 C 43 %
1760 21-11-2019 05:20:17 -0.6 C 43 %
1761 21-11-2019 05:30:17 -0.6 C 43 %
1762 21-11-2019 05:40:17 -0.5 C 43 %
1763 21-11-2019 05:50:17 -0.4 C 43 %
1764 21-11-2019 06:00:17 -0.3 C 43 %
1765 21-11-2019 06:10:17 -0.3 C 43 %
1766 21-11-2019 06:20:17 -0.3 C 43 %
1767 21-11-2019 06:30:17 -0.3 C 43 %
1768 21-11-2019 06:40:17 -0.3 C 43 %
1769 21-11-2019 06:50:17 -0.2 C 43 %
1770 21-11-2019 07:00:17 -0.2 C 43 %
1771 21-11-2019 07:10:17 -0.2 C 43 %
1772 21-11-2019 07:20:17 -0.1 C 43 %
1773 21-11-2019 07:30:17 -0.2 C 43 %
1774 21-11-2019 07:40:17 -0.2 C 43 %
1775 21-11-2019 07:50:17 -0.1 C 43 %
Sensor: Nr:Datum:Temp:Feuchte:
Aussen-T/F 1776 21-11-2019 08:00:17 -0.1 C 43 %
1777 21-11-2019 08:10:17 0 C 43 %
1778 21-11-2019 08:20:17 0 C 43 %
1779 21-11-2019 08:30:17 0.1 C 43 %
1780 21-11-2019 08:40:17 0.2 C 43 %
1781 21-11-2019 08:50:17 0.2 C 43 %
1782 21-11-2019 09:00:17 0.2 C 43 %
1783 21-11-2019 09:10:17 0.3 C 43 %
1784 21-11-2019 09:20:17 0.4 C 43 %
1785 21-11-2019 09:30:17 0.6 C 43 %
1786 21-11-2019 09:40:17 0.8 C 43 %
1787 21-11-2019 09:50:17 1.1 C 42 %
1788 21-11-2019 10:00:17 1.1 C 41 %
1789 21-11-2019 10:10:17 1.2 C 40 %
1790 21-11-2019 10:20:17 1.6 C 40 %
1791 21-11-2019 10:30:17 1.5 C 39 %
1792 21-11-2019 10:40:17 1.5 C 39 %
1793 21-11-2019 10:50:17 1.7 C 38 %
1794 21-11-2019 11:00:17 2.1 C 37 %
1795 21-11-2019 11:10:17 2.2 C 37 %
1796 21-11-2019 11:20:17 2.3 C 34 %
1797 21-11-2019 11:30:17 2.5 C 33 %
1798 21-11-2019 11:40:17 2.7 C 33 %
1799 21-11-2019 11:50:17 3 C 32 %
1800 21-11-2019 12:00:17 2.8 C 32 %
Sensor: Nr:Datum:Temp:Feuchte:
Aussen-T/F 1801 21-11-2019 12:10:17 2.5 C 33 %
1802 21-11-2019 12:20:17 2.6 C 34 %
1803 21-11-2019 12:30:18 2.8 C 35 %
1804 21-11-2019 12:40:18 3.1 C 35 %
1805 21-11-2019 12:50:18 3.3 C 34 %
1806 21-11-2019 13:00:17 3.1 C 31 %
1807 21-11-2019 13:10:17 3.7 C 34 %
1808 21-11-2019 13:20:17 3.9 C 31 %
1809 21-11-2019 13:30:17 4.1 C 32 %
1810 21-11-2019 13:40:17 4 C 31 %
1811 21-11-2019 13:50:17 3.9 C 32 %
1812 21-11-2019 14:00:17 3.9 C 31 %
1813 21-11-2019 14:10:17 3.9 C 30 %
1814 21-11-2019 14:20:17 4.2 C 31 %
1815 21-11-2019 14:30:17 4.4 C 31 %
1816 21-11-2019 14:40:17 4.4 C 30 %
1817 21-11-2019 14:50:17 4.1 C 29 %
1818 21-11-2019 15:00:17 4.1 C 30 %
1819 21-11-2019 15:10:17 4.2 C 29 %
1820 21-11-2019 15:20:17 4.4 C 30 %
1821 21-11-2019 15:30:17 4.3 C 30 %
1822 21-11-2019 15:40:17 4.2 C 29 %
1823 21-11-2019 15:50:17 4.3 C 30 %
1824 21-11-2019 16:00:17 4.3 C 30 %
1825 21-11-2019 16:10:17 4.2 C 31 %
Sensor: Nr:Datum:Temp:Feuchte:
Aussen-T/F 1826 21-11-2019 16:20:17 4 C 33 %
1827 21-11-2019 16:30:17 3.9 C 36 %
1828 21-11-2019 16:40:17 3.7 C 37 %
1829 21-11-2019 16:50:17 3.7 C 39 %
1830 21-11-2019 17:00:17 3.6 C 39 %
1831 21-11-2019 17:10:17 3.6 C 38 %
1832 21-11-2019 17:20:17 3.5 C 39 %
1833 21-11-2019 17:30:17 3.4 C 39 %
1834 21-11-2019 17:40:17 3.4 C 39 %
1835 21-11-2019 17:50:17 3.3 C 39 %
1836 21-11-2019 18:00:17 3.3 C 39 %
1837 21-11-2019 18:10:17 3.3 C 39 %
1838 21-11-2019 18:20:17 3.3 C 38 %
1839 21-11-2019 18:30:17 3.3 C 39 %
1840 21-11-2019 18:40:17 3.4 C 39 %
1841 21-11-2019 18:50:17 3.3 C 40 %
1842 21-11-2019 19:00:17 3.3 C 40 %
1843 21-11-2019 19:10:17 3.2 C 40 %
1844 21-11-2019 19:20:17 3 C 39 %
1845 21-11-2019 19:30:17 3 C 40 %
1846 21-11-2019 19:40:17 3.1 C 41 %
1847 21-11-2019 19:50:17 2.9 C 41 %
1848 21-11-2019 20:00:17 2.5 C 40 %
1849 21-11-2019 20:10:17 2 C 40 %
1850 21-11-2019 20:20:17 1.9 C 42 %
Sensor: Nr:Datum:Temp:Feuchte:
Aussen-T/F 1851 21-11-2019 20:30:17 2.1 C 42 %
1852 21-11-2019 20:40:17 1.6 C 42 %
1853 21-11-2019 20:50:17 1.5 C 42 %
1854 21-11-2019 21:00:17 1.6 C 43 %
1855 21-11-2019 21:10:17 1.6 C 43 %
1856 21-11-2019 21:20:17 1.3 C 43 %
1857 21-11-2019 21:30:17 1.3 C 43 %
1858 21-11-2019 21:40:17 1.5 C 43 %
1859 21-11-2019 21:50:17 1.2 C 43 %
1860 21-11-2019 22:00:17 1 C 42 %
1861 21-11-2019 22:10:17 0.8 C 44 %
1862 21-11-2019 22:20:17 1.2 C 43 %
1863 21-11-2019 22:30:17 0.9 C 44 %
1864 21-11-2019 22:40:17 0.8 C 44 %
1865 21-11-2019 22:50:17 1 C 43 %
1866 21-11-2019 23:00:17 1.1 C 43 %
1867 21-11-2019 23:10:17 1.4 C 43 %
1868 21-11-2019 23:20:17 1 C 43 %
1869 21-11-2019 23:30:17 1 C 43 %
1870 21-11-2019 23:40:17 1.5 C 43 %
1871 21-11-2019 23:50:17 1.5 C 43 %
1872 22-11-2019 00:00:17 1.3 C 43 %
1873 22-11-2019 00:10:17 1.3 C 43 %
1874 22-11-2019 00:20:17 1.3 C 43 %
1875 22-11-2019 00:30:17 1.3 C 43 %
Sensor: Nr:Datum:Temp:Feuchte:
Aussen-T/F 1876 22-11-2019 00:40:17 1 C 42 %
1877 22-11-2019 00:50:17 1.1 C 42 %
1878 22-11-2019 01:00:17 1 C 42 %
1879 22-11-2019 01:10:17 1.2 C 43 %
1880 22-11-2019 01:20:17 0.9 C 43 %
1881 22-11-2019 01:30:17 1 C 42 %
1882 22-11-2019 01:40:17 1 C 42 %
1883 22-11-2019 01:50:17 0.6 C 43 %
1884 22-11-2019 02:00:17 0.4 C 43 %
1885 22-11-2019 02:10:17 0 C 42 %
1886 22-11-2019 02:20:17 1 C 42 %
1887 22-11-2019 02:30:17 0.8 C 44 %
1888 22-11-2019 02:40:17 0.7 C 43 %
1889 22-11-2019 02:50:17 0.5 C 43 %
1890 22-11-2019 03:00:17 0.6 C 43 %
1891 22-11-2019 03:10:17 0.8 C 44 %
1892 22-11-2019 03:20:17 0.8 C 43 %
1893 22-11-2019 03:30:17 0.6 C 43 %
1894 22-11-2019 03:40:17 0.7 C 43 %
1895 22-11-2019 03:50:17 1.1 C 42 %
1896 22-11-2019 04:00:17 1.1 C 42 %
1897 22-11-2019 04:10:17 1.1 C 42 %
1898 22-11-2019 04:20:17 1.2 C 42 %
1899 22-11-2019 04:30:17 1.3 C 42 %
1900 22-11-2019 04:40:17 1.3 C 42 %
Sensor: Nr:Datum:Temp:Feuchte:
Aussen-T/F 1901 22-11-2019 04:50:17 1.2 C 42 %
1902 22-11-2019 05:00:18 1.4 C 42 %
1903 22-11-2019 05:10:18 1.6 C 42 %
1904 22-11-2019 05:20:17 1.9 C 42 %
1905 22-11-2019 05:30:17 2.1 C 41 %
1906 22-11-2019 05:40:17 2.2 C 41 %
1907 22-11-2019 05:50:17 2.6 C 41 %
1908 22-11-2019 06:00:18 2.5 C 41 %
1909 22-11-2019 06:10:18 2.8 C 41 %
1910 22-11-2019 06:20:18 2.6 C 41 %
1911 22-11-2019 06:30:18 2.7 C 41 %
1912 22-11-2019 06:40:18 2.9 C 41 %
1913 22-11-2019 06:50:18 3 C 41 %
1914 22-11-2019 07:00:17 3 C 41 %
1915 22-11-2019 07:10:17 3 C 41 %
1916 22-11-2019 07:20:17 3.1 C 41 %
1917 22-11-2019 07:30:17 3.2 C 41 %
1918 22-11-2019 07:40:17 3.4 C 41 %
1919 22-11-2019 07:50:17 3.4 C 41 %
1920 22-11-2019 08:00:17 3.4 C 41 %
1921 22-11-2019 08:10:17 3.5 C 41 %
1922 22-11-2019 08:20:17 3.7 C 41 %
1923 22-11-2019 08:30:17 3.8 C 41 %
1924 22-11-2019 08:40:17 3.7 C 41 %
1925 22-11-2019 08:50:17 3.7 C 41 %
Sensor: Nr:Datum:Temp:Feuchte:
Aussen-T/F 1926 22-11-2019 09:00:17 3.9 C 41 %
1927 22-11-2019 09:10:17 3.9 C 40 %
1928 22-11-2019 09:20:17 4 C 39 %
1929 22-11-2019 09:30:17 3.8 C 39 %
1930 22-11-2019 09:40:17 3.7 C 39 %
1931 22-11-2019 09:50:17 3.5 C 39 %
1932 22-11-2019 10:00:17 3.3 C 39 %
1933 22-11-2019 10:10:17 3.5 C 40 %
1934 22-11-2019 10:20:17 3.5 C 39 %
1935 22-11-2019 10:30:17 3.6 C 40 %
1936 22-11-2019 10:40:17 4.1 C 39 %
1937 22-11-2019 10:50:17 4.3 C 39 %
1938 22-11-2019 11:00:17 4.2 C 38 %
1939 22-11-2019 11:10:17 4.4 C 38 %
1940 22-11-2019 11:20:17 4.5 C 37 %
1941 22-11-2019 11:30:17 5 C 35 %
1942 22-11-2019 11:40:17 5.3 C 33 %
1943 22-11-2019 11:50:17 5.3 C 32 %
1944 22-11-2019 12:00:17 5.6 C 32 %
1945 22-11-2019 12:10:17 5.5 C 32 %
1946 22-11-2019 12:20:17 5.6 C 32 %
1947 22-11-2019 12:30:17 5.6 C 32 %
1948 22-11-2019 12:40:17 5.8 C 32 %
1949 22-11-2019 12:50:17 5.8 C 31 %
1950 22-11-2019 13:00:17 5.7 C 30 %
Sensor: Nr:Datum:Temp:Feuchte:
Aussen-T/F 1951 22-11-2019 13:10:17 5.9 C 31 %
1952 22-11-2019 13:20:17 6 C 30 %
1953 22-11-2019 13:30:17 5.7 C 29 %
1954 22-11-2019 13:40:17 5.5 C 29 %
1955 22-11-2019 13:50:17 5.5 C 29 %
1956 22-11-2019 14:00:17 5.5 C 29 %
1957 22-11-2019 14:10:17 5.7 C 29 %
1958 22-11-2019 14:20:17 5.7 C 28 %
1959 22-11-2019 14:30:17 5.9 C 28 %
1960 22-11-2019 14:40:17 5.8 C 27 %
1961 22-11-2019 14:50:17 5.8 C 28 %
1962 22-11-2019 15:00:17 5.6 C 28 %
1963 22-11-2019 15:10:17 5.6 C 28 %
1964 22-11-2019 15:20:17 5.6 C 29 %
1965 22-11-2019 15:30:17 5.5 C 28 %
1966 22-11-2019 15:40:17 5.4 C 29 %
1967 22-11-2019 15:50:17 5.4 C 29 %
1968 22-11-2019 16:00:17 5.3 C 29 %
1969 22-11-2019 16:10:17 5.3 C 30 %
1970 22-11-2019 16:20:17 5.2 C 30 %
1971 22-11-2019 16:30:17 5.2 C 30 %
1972 22-11-2019 16:40:17 5.1 C 31 %
1973 22-11-2019 16:50:17 5 C 31 %
1974 22-11-2019 17:00:17 4.9 C 32 %
1975 22-11-2019 17:10:17 4.9 C 33 %
Sensor: Nr:Datum:Temp:Feuchte:
Aussen-T/F 1976 22-11-2019 17:20:17 4.8 C 34 %
1977 22-11-2019 17:30:17 4.9 C 33 %
1978 22-11-2019 17:40:17 4.9 C 32 %
1979 22-11-2019 17:50:17 5 C 31 %
1980 22-11-2019 18:00:17 5 C 30 %
1981 22-11-2019 18:10:17 4.8 C 32 %
1982 22-11-2019 18:20:17 4.7 C 34 %
1983 22-11-2019 18:30:17 4.8 C 33 %
1984 22-11-2019 18:40:17 4.8 C 32 %
1985 22-11-2019 18:50:17 4.8 C 32 %
1986 22-11-2019 19:00:17 4.8 C 31 %
1987 22-11-2019 19:10:17 4.7 C 32 %
1988 22-11-2019 19:20:17 4.8 C 30 %
1989 22-11-2019 19:30:17 4.8 C 30 %
1990 22-11-2019 19:40:17 4.8 C 30 %
1991 22-11-2019 19:50:17 4.7 C 31 %
1992 22-11-2019 20:00:17 4.6 C 31 %
1993 22-11-2019 20:10:17 4.6 C 30 %
1994 22-11-2019 20:20:17 4.6 C 30 %
1995 22-11-2019 20:30:17 4.5 C 30 %
1996 22-11-2019 20:40:17 4.5 C 30 %
1997 22-11-2019 20:50:17 4.3 C 30 %
1998 22-11-2019 21:00:17 4.3 C 30 %
1999 22-11-2019 21:10:17 4.4 C 31 %
2000 22-11-2019 21:20:17 4.3 C 31 %
Sensor: Nr:Datum:Temp:Feuchte:
Aussen-T/F 2001 22-11-2019 21:30:17 4.3 C 31 %
2002 22-11-2019 21:40:17 4.3 C 31 %
2003 22-11-2019 21:50:17 4.3 C 30 %
2004 22-11-2019 22:00:17 4.2 C 31 %
2005 22-11-2019 22:10:17 4.2 C 31 %
2006 22-11-2019 22:20:17 4.2 C 30 %
2007 22-11-2019 22:30:17 4.2 C 30 %
2008 22-11-2019 22:40:17 4.2 C 29 %
2009 22-11-2019 22:50:17 4.1 C 30 %
2010 22-11-2019 23:00:17 4 C 30 %
2011 22-11-2019 23:10:17 4.1 C 28 %
2012 22-11-2019 23:20:17 4 C 30 %
2013 22-11-2019 23:30:17 4 C 30 %
2014 22-11-2019 23:40:17 4 C 30 %
2015 22-11-2019 23:50:17 3.9 C 31 %
2016 23-11-2019 00:00:17 4 C 29 %
2017 23-11-2019 00:10:17 4 C 29 %
2018 23-11-2019 00:20:17 4 C 29 %
2019 23-11-2019 00:30:17 4 C 29 %
2020 23-11-2019 00:40:17 4 C 28 %
2021 23-11-2019 00:50:17 4 C 29 %
2022 23-11-2019 01:00:17 4.1 C 28 %
2023 23-11-2019 01:10:17 4.2 C 27 %
2024 23-11-2019 01:20:17 4.1 C 29 %
2025 23-11-2019 01:30:17 4 C 30 %
Sensor: Nr:Datum:Temp:Feuchte:
Aussen-T/F 2026 23-11-2019 01:40:17 4.1 C 29 %
2027 23-11-2019 01:50:17 4 C 29 %
2028 23-11-2019 02:00:17 4.1 C 27 %
2029 23-11-2019 02:10:17 4.1 C 27 %
2030 23-11-2019 02:20:17 4 C 30 %
2031 23-11-2019 02:30:18 3.8 C 32 %
2032 23-11-2019 02:40:18 3.7 C 32 %
2033 23-11-2019 02:50:17 3.6 C 32 %
2034 23-11-2019 03:00:17 3.6 C 33 %
2035 23-11-2019 03:10:17 3.7 C 32 %
2036 23-11-2019 03:20:17 3.8 C 31 %
2037 23-11-2019 03:30:17 3.7 C 32 %
2038 23-11-2019 03:40:17 3.5 C 33 %
2039 23-11-2019 03:50:17 3.2 C 34 %
2040 23-11-2019 04:00:17 3.2 C 35 %
2041 23-11-2019 04:10:17 3.1 C 38 %
2042 23-11-2019 04:20:17 3.3 C 36 %
2043 23-11-2019 04:30:17 3 C 36 %
2044 23-11-2019 04:40:17 3 C 37 %
2045 23-11-2019 04:50:17 3 C 37 %
2046 23-11-2019 05:00:17 3 C 38 %
2047 23-11-2019 05:10:17 3 C 39 %
2048 23-11-2019 05:20:17 2.7 C 39 %
2049 23-11-2019 05:30:17 2.9 C 40 %
2050 23-11-2019 05:40:17 2.8 C 40 %
Sensor: Nr:Datum:Temp:Feuchte:
Aussen-T/F 2051 23-11-2019 05:50:17 2.9 C 40 %
2052 23-11-2019 06:00:17 3 C 39 %
2053 23-11-2019 06:10:17 3 C 39 %
2054 23-11-2019 06:20:17 3 C 39 %
2055 23-11-2019 06:30:17 3 C 40 %
2056 23-11-2019 06:40:17 3.1 C 40 %
2057 23-11-2019 06:50:17 3 C 40 %
2058 23-11-2019 07:00:17 3.2 C 40 %
2059 23-11-2019 07:10:17 3.2 C 39 %
2060 23-11-2019 07:20:17 3.3 C 40 %
2061 23-11-2019 07:30:17 3.2 C 39 %
2062 23-11-2019 07:40:17 3.3 C 40 %
2063 23-11-2019 07:50:17 3.2 C 40 %
2064 23-11-2019 08:00:17 3.3 C 39 %
2065 23-11-2019 08:10:17 3.3 C 40 %
2066 23-11-2019 08:20:17 3.2 C 40 %
2067 23-11-2019 08:30:17 3.3 C 40 %
2068 23-11-2019 08:40:17 3.4 C 40 %
2069 23-11-2019 08:50:17 3.8 C 37 %
2070 23-11-2019 09:00:17 4.2 C 33 %
2071 23-11-2019 09:10:17 4.3 C 33 %
2072 23-11-2019 09:20:17 4.5 C 33 %
2073 23-11-2019 09:30:17 4.9 C 31 %
2074 23-11-2019 09:40:17 5.1 C 31 %
2075 23-11-2019 09:50:17 5.4 C 27 %
Sensor: Nr:Datum:Temp:Feuchte:
Aussen-T/F 2076 23-11-2019 10:00:17 5.4 C 26 %
2077 23-11-2019 10:10:17 5.7 C 26 %
2078 23-11-2019 10:20:17 6 C 26 %
2079 23-11-2019 10:30:17 6 C 25 %
2080 23-11-2019 10:40:17 6.1 C 26 %
2081 23-11-2019 10:50:17 6.2 C 25 %
2082 23-11-2019 11:00:17 6.4 C 25 %
2083 23-11-2019 11:10:17 6.6 C 25 %
2084 23-11-2019 11:20:17 6.7 C 25 %
2085 23-11-2019 11:30:17 7.1 C 21 %
2086 23-11-2019 11:40:17 7.1 C 23 %
2087 23-11-2019 11:50:17 7 C 25 %
2088 23-11-2019 12:00:17 6.4 C 28 %
2089 23-11-2019 12:10:17 6.4 C 28 %
2090 23-11-2019 12:20:17 6.5 C 27 %
2091 23-11-2019 12:30:17 6.5 C 28 %
2092 23-11-2019 12:40:17 6.5 C 29 %
2093 23-11-2019 12:50:17 7.3 C 25 %
2094 23-11-2019 13:00:17 7.3 C 25 %
2095 23-11-2019 13:10:17 6.7 C 28 %
2096 23-11-2019 13:20:17 6.8 C 29 %
2097 23-11-2019 13:30:17 6.6 C 29 %
2098 23-11-2019 13:40:17 6.6 C 30 %
2099 23-11-2019 13:50:17 6.6 C 30 %
2100 23-11-2019 14:00:17 6.6 C 30 %
Sensor: Nr:Datum:Temp:Feuchte:
Aussen-T/F 2101 23-11-2019 14:10:17 6.8 C 30 %
2102 23-11-2019 14:20:17 7 C 29 %
2103 23-11-2019 14:30:17 7.2 C 27 %
2104 23-11-2019 14:40:17 7.1 C 28 %
2105 23-11-2019 14:50:17 7.2 C 28 %
2106 23-11-2019 15:00:17 7.7 C 26 %
2107 23-11-2019 15:10:17 8.1 C 26 %
2108 23-11-2019 15:20:17 8.4 C 23 %
2109 23-11-2019 15:30:17 8.4 C 25 %
2110 23-11-2019 15:40:17 8.1 C 25 %
2111 23-11-2019 15:50:17 7.5 C 26 %
2112 23-11-2019 16:00:17 7.5 C 26 %
2113 23-11-2019 16:10:17 7.3 C 25 %
2114 23-11-2019 16:20:17 7.3 C 25 %
2115 23-11-2019 16:30:17 6.5 C 28 %
2116 23-11-2019 16:40:17 5.9 C 31 %
2117 23-11-2019 16:50:17 5.7 C 32 %
2118 23-11-2019 17:00:17 5.7 C 32 %
2119 23-11-2019 17:10:17 5.8 C 31 %
2120 23-11-2019 17:20:17 5.6 C 32 %
2121 23-11-2019 17:30:17 5.5 C 33 %
2122 23-11-2019 17:40:17 5.3 C 32 %
2123 23-11-2019 17:50:17 5.3 C 33 %
2124 23-11-2019 18:00:17 5.3 C 33 %
2125 23-11-2019 18:10:17 5 C 34 %
Sensor: Nr:Datum:Temp:Feuchte:
Aussen-T/F 2126 23-11-2019 18:20:17 5.3 C 34 %
2127 23-11-2019 18:30:17 5.3 C 34 %
2128 23-11-2019 18:40:17 5.3 C 34 %
2129 23-11-2019 18:50:17 4.9 C 36 %
2130 23-11-2019 19:00:17 5.1 C 35 %
2131 23-11-2019 19:10:17 5 C 36 %
2132 23-11-2019 19:20:17 5 C 36 %
2133 23-11-2019 19:30:17 5 C 36 %
2134 23-11-2019 19:40:17 4.7 C 36 %
2135 23-11-2019 19:50:17 4.7 C 38 %
2136 23-11-2019 20:00:17 4.5 C 40 %
2137 23-11-2019 20:10:17 4.2 C 39 %
2138 23-11-2019 20:20:17 4.1 C 40 %
2139 23-11-2019 20:30:17 3.6 C 40 %
2140 23-11-2019 20:40:18 3.6 C 40 %
2141 23-11-2019 20:50:17 3.6 C 42 %
2142 23-11-2019 21:00:17 3.6 C 42 %
2143 23-11-2019 21:10:17 3.5 C 42 %
2144 23-11-2019 21:20:17 3.3 C 41 %
2145 23-11-2019 21:30:17 3.2 C 41 %
2146 23-11-2019 21:40:17 3.2 C 42 %
2147 23-11-2019 21:50:17 3.2 C 42 %
2148 23-11-2019 22:00:17 3.1 C 42 %
2149 23-11-2019 22:10:17 2.8 C 42 %
2150 23-11-2019 22:20:17 2.6 C 42 %
Sensor: Nr:Datum:Temp:Feuchte:
Aussen-T/F 2151 23-11-2019 22:30:17 2.7 C 42 %
2152 23-11-2019 22:40:17 2.6 C 42 %
2153 23-11-2019 22:50:17 2.6 C 42 %
2154 23-11-2019 23:00:17 2.5 C 42 %
2155 23-11-2019 23:10:17 2.2 C 42 %
2156 23-11-2019 23:20:17 2.2 C 42 %
2157 23-11-2019 23:30:17 2 C 42 %
2158 23-11-2019 23:40:17 2.1 C 42 %
2159 23-11-2019 23:50:17 2.1 C 42 %
2160 24-11-2019 00:00:17 1.9 C 43 %
2161 24-11-2019 00:10:17 1.7 C 43 %
2162 24-11-2019 00:20:17 1.7 C 43 %
2163 24-11-2019 00:30:17 1.6 C 43 %
2164 24-11-2019 00:40:17 1.4 C 42 %
2165 24-11-2019 00:50:18 1.1 C 42 %
2166 24-11-2019 01:00:18 1.2 C 43 %
2167 24-11-2019 01:10:18 1.4 C 43 %
2168 24-11-2019 01:20:17 1.3 C 43 %
2169 24-11-2019 01:30:17 1.2 C 42 %
2170 24-11-2019 01:40:17 1.2 C 43 %
2171 24-11-2019 01:50:17 1.1 C 43 %
2172 24-11-2019 02:00:17 1.1 C 43 %
2173 24-11-2019 02:10:17 1.1 C 43 %
2174 24-11-2019 02:20:17 1.2 C 43 %
2175 24-11-2019 02:30:17 1 C 42 %
Sensor: Nr:Datum:Temp:Feuchte:
Aussen-T/F 2176 24-11-2019 02:40:17 1.1 C 42 %
2177 24-11-2019 02:50:17 1.1 C 42 %
2178 24-11-2019 03:00:17 0.9 C 44 %
2179 24-11-2019 03:10:17 1.1 C 43 %
2180 24-11-2019 03:20:17 1.2 C 42 %
2181 24-11-2019 03:30:17 1 C 42 %
2182 24-11-2019 03:40:17 0.7 C 43 %
2183 24-11-2019 03:50:17 0.6 C 43 %
2184 24-11-2019 04:00:17 0.5 C 43 %
2185 24-11-2019 04:10:17 0.5 C 43 %
2186 24-11-2019 04:20:17 0.6 C 43 %
2187 24-11-2019 04:30:17 0.5 C 43 %
2188 24-11-2019 04:40:17 0.5 C 43 %
2189 24-11-2019 04:50:17 0.6 C 44 %
2190 24-11-2019 05:00:17 0.6 C 44 %
2191 24-11-2019 05:10:17 0.8 C 44 %
2192 24-11-2019 05:20:17 1 C 42 %
2193 24-11-2019 05:30:17 1.1 C 42 %
2194 24-11-2019 05:40:17 1 C 42 %
2195 24-11-2019 05:50:17 0.6 C 43 %
2196 24-11-2019 06:00:18 0.4 C 43 %
2197 24-11-2019 06:10:18 0.5 C 43 %
2198 24-11-2019 06:20:17 0.5 C 43 %
2199 24-11-2019 06:30:17 0.5 C 43 %
2200 24-11-2019 06:40:17 0.5 C 43 %
Sensor: Nr:Datum:Temp:Feuchte:
Aussen-T/F 2201 24-11-2019 06:50:17 0.3 C 43 %
2202 24-11-2019 07:00:18 0.4 C 43 %
2203 24-11-2019 07:10:18 0.1 C 43 %
2204 24-11-2019 07:20:18 0.1 C 43 %
2205 24-11-2019 07:30:17 0.1 C 43 %
2206 24-11-2019 07:40:17 -0.3 C 43 %
2207 24-11-2019 07:50:18 -0.3 C 43 %
2208 24-11-2019 08:00:18 -0.1 C 43 %
2209 24-11-2019 08:10:18 0.1 C 43 %
2210 24-11-2019 08:20:17 -0.1 C 43 %
2211 24-11-2019 08:30:17 0.3 C 43 %
2212 24-11-2019 08:40:17 0.5 C 43 %
2213 24-11-2019 08:50:17 0.5 C 43 %
2214 24-11-2019 09:00:17 0.6 C 43 %
2215 24-11-2019 09:10:17 0.7 C 43 %
2216 24-11-2019 09:20:17 0.8 C 43 %
2217 24-11-2019 09:30:17 0.8 C 43 %
2218 24-11-2019 09:40:17 1 C 42 %
2219 24-11-2019 09:50:17 1.1 C 42 %
2220 24-11-2019 10:00:17 1.2 C 42 %
2221 24-11-2019 10:10:17 1.5 C 42 %
2222 24-11-2019 10:20:17 1.7 C 42 %
2223 24-11-2019 10:30:17 2 C 42 %
2224 24-11-2019 10:40:17 2.2 C 41 %
2225 24-11-2019 10:50:17 2.7 C 42 %
Sensor: Nr:Datum:Temp:Feuchte:
Aussen-T/F 2226 24-11-2019 11:00:17 2.5 C 41 %
2227 24-11-2019 11:10:17 2.1 C 40 %
2228 24-11-2019 11:20:17 2.2 C 40 %
2229 24-11-2019 11:30:17 2.2 C 40 %
2230 24-11-2019 11:40:17 2.3 C 40 %
2231 24-11-2019 11:50:17 2.5 C 40 %
2232 24-11-2019 12:00:17 2.7 C 41 %
2233 24-11-2019 12:10:17 3 C 40 %
2234 24-11-2019 12:20:17 3.4 C 40 %
2235 24-11-2019 12:30:17 3.8 C 40 %
2236 24-11-2019 12:40:17 4 C 38 %
2237 24-11-2019 12:50:17 4.2 C 38 %
2238 24-11-2019 13:00:17 4.6 C 38 %
2239 24-11-2019 13:10:17 5.1 C 35 %
2240 24-11-2019 13:20:17 5 C 35 %
2241 24-11-2019 13:30:17 5 C 35 %
2242 24-11-2019 13:40:17 4.7 C 35 %
2243 24-11-2019 13:50:17 4.8 C 35 %
2244 24-11-2019 14:00:17 5.1 C 35 %
2245 24-11-2019 14:10:17 5.1 C 35 %
2246 24-11-2019 14:20:17 5 C 35 %
2247 24-11-2019 14:30:17 4.8 C 37 %
2248 24-11-2019 14:40:17 4.6 C 37 %
2249 24-11-2019 14:50:17 4.6 C 39 %
2250 24-11-2019 15:00:17 4.5 C 38 %
Sensor: Nr:Datum:Temp:Feuchte:
Aussen-T/F 2251 24-11-2019 15:10:17 4.7 C 40 %
2252 24-11-2019 15:20:17 4.9 C 39 %
2253 24-11-2019 15:30:17 4.8 C 38 %
2254 24-11-2019 15:40:17 4.7 C 38 %
2255 24-11-2019 15:50:17 4.6 C 38 %
2256 24-11-2019 16:00:17 4.5 C 40 %
2257 24-11-2019 16:10:17 4.2 C 39 %
2258 24-11-2019 16:20:17 3.9 C 40 %
2259 24-11-2019 16:30:17 3.7 C 41 %
2260 24-11-2019 16:40:17 3.5 C 41 %
2261 24-11-2019 16:50:17 3.2 C 41 %
2262 24-11-2019 17:00:17 3 C 41 %
2263 24-11-2019 17:10:17 2.8 C 42 %
2264 24-11-2019 17:20:17 2.7 C 42 %
2265 24-11-2019 17:30:17 2.6 C 42 %
2266 24-11-2019 17:40:17 2.4 C 42 %
2267 24-11-2019 17:50:17 2.6 C 43 %
2268 24-11-2019 18:00:17 2.5 C 42 %
2269 24-11-2019 18:10:17 2.8 C 43 %
2270 24-11-2019 18:20:17 2.6 C 42 %
2271 24-11-2019 18:30:17 2.9 C 43 %
2272 24-11-2019 18:40:17 2.6 C 42 %
2273 24-11-2019 18:50:17 2.7 C 42 %
2274 24-11-2019 19:00:17 2.5 C 42 %
2275 24-11-2019 19:10:17 2.6 C 42 %
Sensor: Nr:Datum:Temp:Feuchte:
Aussen-T/F 2276 24-11-2019 19:20:17 2.6 C 42 %
2277 24-11-2019 19:30:17 2.8 C 42 %
2278 24-11-2019 19:40:17 2.7 C 42 %
2279 24-11-2019 19:50:17 2.7 C 42 %
2280 24-11-2019 20:00:17 2.5 C 42 %
2281 24-11-2019 20:10:17 2.4 C 42 %
2282 24-11-2019 20:20:17 2.1 C 41 %
2283 24-11-2019 20:30:17 2 C 41 %
2284 24-11-2019 20:40:17 2 C 41 %
2285 24-11-2019 20:50:17 2 C 42 %
2286 24-11-2019 21:00:17 1.8 C 42 %
2287 24-11-2019 21:10:17 2.2 C 42 %
2288 24-11-2019 21:20:17 2 C 42 %
2289 24-11-2019 21:30:17 2 C 42 %
2290 24-11-2019 21:40:17 1.8 C 43 %
2291 24-11-2019 21:50:17 1.8 C 43 %
2292 24-11-2019 22:00:17 1.7 C 42 %
2293 24-11-2019 22:10:17 1.3 C 42 %
2294 24-11-2019 22:20:17 1.2 C 42 %
2295 24-11-2019 22:30:17 1.2 C 42 %
2296 24-11-2019 22:40:17 1 C 42 %
2297 24-11-2019 22:50:17 1 C 42 %
2298 24-11-2019 23:00:17 1.2 C 42 %
2299 24-11-2019 23:10:17 1 C 42 %
2300 24-11-2019 23:20:17 1 C 42 %
Sensor: Nr:Datum:Temp:Feuchte:
Aussen-T/F 2301 24-11-2019 23:30:17 0.8 C 43 %
2302 24-11-2019 23:40:17 0.8 C 43 %
2303 24-11-2019 23:50:17 0.9 C 43 %
2304 25-11-2019 00:00:18 0.8 C 43 %
2305 25-11-2019 00:10:18 0.9 C 43 %
2306 25-11-2019 00:20:17 1.2 C 42 %
2307 25-11-2019 00:30:17 1.4 C 42 %
2308 25-11-2019 00:40:17 1.5 C 42 %
2309 25-11-2019 00:50:18 1.5 C 42 %
2310 25-11-2019 01:00:18 1.5 C 42 %
2311 25-11-2019 01:10:18 1.5 C 42 %
2312 25-11-2019 01:20:17 1.6 C 42 %
2313 25-11-2019 01:30:17 1.5 C 42 %
2314 25-11-2019 01:40:17 1.4 C 42 %
2315 25-11-2019 01:50:17 1.3 C 42 %
2316 25-11-2019 02:00:17 1.3 C 42 %
2317 25-11-2019 02:10:17 1.3 C 42 %
2318 25-11-2019 02:20:17 1.2 C 42 %
2319 25-11-2019 02:30:17 1.3 C 42 %
2320 25-11-2019 02:40:17 1.4 C 42 %
2321 25-11-2019 02:50:17 1.5 C 42 %
2322 25-11-2019 03:00:17 1.6 C 42 %
2323 25-11-2019 03:10:17 1.5 C 42 %
2324 25-11-2019 03:20:17 1.5 C 42 %
2325 25-11-2019 03:30:17 1.5 C 42 %
Sensor: Nr:Datum:Temp:Feuchte:
Aussen-T/F 2326 25-11-2019 03:40:17 1.6 C 42 %
2327 25-11-2019 03:50:17 1.7 C 42 %
2328 25-11-2019 04:00:17 1.8 C 42 %
2329 25-11-2019 04:10:17 1.8 C 42 %
2330 25-11-2019 04:20:17 1.9 C 42 %
2331 25-11-2019 04:30:17 2 C 41 %
2332 25-11-2019 04:40:17 2.1 C 41 %
2333 25-11-2019 04:50:17 2.1 C 41 %
2334 25-11-2019 05:00:17 2.2 C 41 %
2335 25-11-2019 05:10:17 2.1 C 41 %
2336 25-11-2019 05:20:17 2.2 C 41 %
2337 25-11-2019 05:30:17 2.4 C 41 %
2338 25-11-2019 05:40:17 2.4 C 41 %
2339 25-11-2019 05:50:17 2.5 C 41 %
2340 25-11-2019 06:00:17 2.5 C 41 %
2341 25-11-2019 06:10:17 2.5 C 41 %
2342 25-11-2019 06:20:17 2.5 C 41 %
2343 25-11-2019 06:30:17 2.6 C 41 %
2344 25-11-2019 06:40:17 2.6 C 41 %
2345 25-11-2019 06:50:17 2.8 C 41 %
2346 25-11-2019 07:00:17 2.8 C 41 %
2347 25-11-2019 07:10:17 2.8 C 41 %
2348 25-11-2019 07:20:17 2.8 C 41 %
2349 25-11-2019 07:30:17 2.8 C 41 %
2350 25-11-2019 07:40:17 2.8 C 41 %
Sensor: Nr:Datum:Temp:Feuchte:
Aussen-T/F 2351 25-11-2019 07:50:17 2.8 C 41 %
2352 25-11-2019 08:00:17 2.9 C 41 %
2353 25-11-2019 08:10:17 3 C 41 %
2354 25-11-2019 08:20:17 3.1 C 41 %
2355 25-11-2019 08:30:18 3.2 C 41 %
2356 25-11-2019 08:40:18 3.3 C 42 %
2357 25-11-2019 08:50:17 3.4 C 42 %
2358 25-11-2019 09:00:17 3.6 C 43 %
2359 25-11-2019 09:10:17 3.6 C 43 %
2360 25-11-2019 09:20:17 3.7 C 43 %
2361 25-11-2019 09:30:17 3.6 C 43 %
2362 25-11-2019 09:40:17 3.8 C 43 %
2363 25-11-2019 09:50:17 3.8 C 42 %
2364 25-11-2019 10:00:17 4.1 C 42 %
2365 25-11-2019 10:10:17 4.5 C 43 %
2366 25-11-2019 10:20:17 4.5 C 43 %
2367 25-11-2019 10:30:17 5.1 C 40 %
2368 25-11-2019 10:40:17 5.1 C 38 %
2369 25-11-2019 10:50:17 5.1 C 37 %
2370 25-11-2019 11:00:17 5.1 C 37 %
2371 25-11-2019 11:10:17 5.2 C 37 %
2372 25-11-2019 11:20:17 5.3 C 37 %
2373 25-11-2019 11:30:17 5.4 C 37 %
2374 25-11-2019 11:40:17 5.8 C 37 %
2375 25-11-2019 11:50:17 6.3 C 36 %
Sensor: Nr:Datum:Temp:Feuchte:
Aussen-T/F 2376 25-11-2019 12:00:17 6.1 C 33 %
2377 25-11-2019 12:10:17 6.4 C 33 %
2378 25-11-2019 12:20:17 6.3 C 33 %
2379 25-11-2019 12:30:17 6.3 C 32 %
2380 25-11-2019 12:40:17 6.6 C 32 %
2381 25-11-2019 12:50:17 6.6 C 32 %
2382 25-11-2019 13:00:17 6.7 C 31 %
2383 25-11-2019 13:10:17 6.8 C 33 %
2384 25-11-2019 13:20:17 7 C 32 %
2385 25-11-2019 13:30:17 7 C 32 %
2386 25-11-2019 13:40:17 7 C 33 %
2387 25-11-2019 13:50:17 6.9 C 32 %
2388 25-11-2019 14:00:17 6.9 C 33 %
2389 25-11-2019 14:10:17 6.8 C 31 %
2390 25-11-2019 14:20:17 6.8 C 35 %
2391 25-11-2019 14:30:17 6.8 C 36 %
2392 25-11-2019 14:40:17 6.9 C 36 %
2393 25-11-2019 14:50:17 6.8 C 35 %
2394 25-11-2019 15:00:17 6.7 C 35 %
2395 25-11-2019 15:10:17 6.7 C 35 %
2396 25-11-2019 15:20:17 6.7 C 34 %
2397 25-11-2019 15:30:17 6.7 C 35 %
2398 25-11-2019 15:40:17 6.6 C 33 %
2399 25-11-2019 15:50:17 6.5 C 34 %
2400 25-11-2019 16:00:17 6.5 C 35 %
Sensor: Nr:Datum:Temp:Feuchte:
Aussen-T/F 2401 25-11-2019 16:10:17 6.4 C 36 %
2402 25-11-2019 16:20:17 6.3 C 36 %
2403 25-11-2019 16:30:17 6.2 C 37 %
2404 25-11-2019 16:40:17 6.1 C 38 %
2405 25-11-2019 16:50:17 6.1 C 38 %
2406 25-11-2019 17:00:17 6 C 38 %
2407 25-11-2019 17:10:17 6 C 38 %
2408 25-11-2019 17:20:17 5.9 C 38 %
2409 25-11-2019 17:30:17 5.9 C 39 %
2410 25-11-2019 17:40:17 5.8 C 39 %
2411 25-11-2019 17:50:17 5.9 C 39 %
2412 25-11-2019 18:00:18 5.9 C 39 %
2413 25-11-2019 18:10:18 5.9 C 40 %
2414 25-11-2019 18:20:17 5.9 C 39 %
2415 25-11-2019 18:30:17 5.9 C 40 %
2416 25-11-2019 18:40:17 5.9 C 40 %
2417 25-11-2019 18:50:17 5.8 C 40 %
2418 25-11-2019 19:00:17 5.8 C 39 %
2419 25-11-2019 19:10:17 5.4 C 38 %
2420 25-11-2019 19:20:17 5 C 38 %
2421 25-11-2019 19:30:17 5.1 C 40 %
2422 25-11-2019 19:40:17 5 C 40 %
2423 25-11-2019 19:50:17 5.2 C 40 %
2424 25-11-2019 20:00:17 5.1 C 41 %
2425 25-11-2019 20:10:17 5.3 C 41 %
Sensor: Nr:Datum:Temp:Feuchte:
Aussen-T/F 2426 25-11-2019 20:20:17 5.4 C 41 %
2427 25-11-2019 20:30:17 5.4 C 41 %
2428 25-11-2019 20:40:17 5.2 C 40 %
2429 25-11-2019 20:50:17 5.1 C 40 %
2430 25-11-2019 21:00:17 5.3 C 40 %
2431 25-11-2019 21:10:17 5.1 C 39 %
2432 25-11-2019 21:20:17 5.1 C 39 %
2433 25-11-2019 21:30:17 5.2 C 40 %
2434 25-11-2019 21:40:17 5 C 40 %
2435 25-11-2019 21:50:17 4.7 C 40 %
2436 25-11-2019 22:00:17 4.7 C 40 %
2437 25-11-2019 22:10:17 4.3 C 40 %
2438 25-11-2019 22:20:17 4.1 C 40 %
2439 25-11-2019 22:30:17 3.9 C 41 %
2440 25-11-2019 22:40:17 4.1 C 41 %
2441 25-11-2019 22:50:17 3.8 C 42 %
2442 25-11-2019 23:00:17 3.5 C 42 %
2443 25-11-2019 23:10:17 3.3 C 42 %
2444 25-11-2019 23:20:17 3.1 C 42 %
2445 25-11-2019 23:30:17 2.7 C 42 %
2446 25-11-2019 23:40:17 3 C 42 %
2447 25-11-2019 23:50:17 2.8 C 43 %
2448 26-11-2019 00:00:17 2.3 C 42 %
2449 26-11-2019 00:10:17 2.3 C 42 %
2450 26-11-2019 00:20:17 2.5 C 42 %
Sensor: Nr:Datum:Temp:Feuchte:
Aussen-T/F 2451 26-11-2019 00:30:17 2.4 C 42 %
2452 26-11-2019 00:40:17 2.5 C 43 %
2453 26-11-2019 00:50:17 3.1 C 42 %
2454 26-11-2019 01:00:17 3.3 C 42 %
2455 26-11-2019 01:10:17 3.4 C 42 %
2456 26-11-2019 01:20:17 3.4 C 42 %
2457 26-11-2019 01:30:17 3.4 C 42 %
2458 26-11-2019 01:40:17 3.5 C 42 %
2459 26-11-2019 01:50:17 3.6 C 42 %
2460 26-11-2019 02:00:17 3.8 C 42 %
2461 26-11-2019 02:10:17 3.8 C 42 %
2462 26-11-2019 02:20:17 3.8 C 41 %
2463 26-11-2019 02:30:17 3.8 C 41 %
2464 26-11-2019 02:40:17 3.9 C 41 %
2465 26-11-2019 02:50:17 4.3 C 41 %
2466 26-11-2019 03:00:17 4.5 C 41 %
2467 26-11-2019 03:10:17 4.5 C 41 %
2468 26-11-2019 03:20:17 4.5 C 41 %
2469 26-11-2019 03:30:17 4.1 C 40 %
2470 26-11-2019 03:40:17 4.4 C 40 %
2471 26-11-2019 03:50:17 4.6 C 41 %
2472 26-11-2019 04:00:17 4.8 C 41 %
2473 26-11-2019 04:10:17 5.1 C 40 %
2474 26-11-2019 04:20:17 5.2 C 40 %
2475 26-11-2019 04:30:18 5.2 C 40 %
Sensor: Nr:Datum:Temp:Feuchte:
Aussen-T/F 2476 26-11-2019 04:40:18 5.4 C 40 %
2477 26-11-2019 04:50:17 5.6 C 40 %
2478 26-11-2019 05:00:18 5.7 C 40 %
2479 26-11-2019 05:10:18 5.7 C 40 %
2480 26-11-2019 05:20:17 5.8 C 40 %
2481 26-11-2019 05:30:17 5.8 C 40 %
2482 26-11-2019 05:40:17 5.8 C 40 %
2483 26-11-2019 05:50:17 5.9 C 40 %
2484 26-11-2019 06:00:17 5.9 C 40 %
2485 26-11-2019 06:10:17 5.9 C 40 %
2486 26-11-2019 06:20:17 6 C 39 %
2487 26-11-2019 06:30:17 6.2 C 40 %
2488 26-11-2019 06:40:17 6.2 C 39 %
2489 26-11-2019 06:50:17 6.2 C 39 %
2490 26-11-2019 07:00:17 6.5 C 40 %
2491 26-11-2019 07:10:17 6.5 C 40 %
2492 26-11-2019 07:20:17 6.6 C 39 %
2493 26-11-2019 07:30:17 6.6 C 39 %
2494 26-11-2019 07:40:17 6.6 C 39 %
2495 26-11-2019 07:50:17 6.7 C 39 %
2496 26-11-2019 08:00:17 6.8 C 39 %
2497 26-11-2019 08:10:17 6.9 C 39 %
2498 26-11-2019 08:20:17 6.8 C 38 %
2499 26-11-2019 08:30:17 6.8 C 38 %
2500 26-11-2019 08:40:17 6.7 C 38 %
Sensor: Nr:Datum:Temp:Feuchte:
Aussen-T/F 2501 26-11-2019 08:50:17 6.8 C 38 %
2502 26-11-2019 09:00:17 7 C 37 %
2503 26-11-2019 09:10:17 7.4 C 38 %
2504 26-11-2019 09:20:17 7.6 C 37 %
2505 26-11-2019 09:30:17 7.9 C 36 %
2506 26-11-2019 09:40:17 8.3 C 33 %
2507 26-11-2019 09:50:17 8.5 C 31 %
2508 26-11-2019 10:00:17 8.8 C 32 %
2509 26-11-2019 10:10:17 9.1 C 32 %
2510 26-11-2019 10:20:17 9.4 C 32 %
2511 26-11-2019 10:30:17 9.6 C 32 %
2512 26-11-2019 10:40:17 9.7 C 31 %
2513 26-11-2019 10:50:17 9.9 C 31 %
2514 26-11-2019 11:00:17 10.3 C 29 %
2515 26-11-2019 11:10:17 10.5 C 29 %
2516 26-11-2019 11:20:17 10.6 C 26 %
2517 26-11-2019 11:30:17 10.7 C 26 %
2518 26-11-2019 11:40:17 10.6 C 26 %
2519 26-11-2019 11:50:17 10.5 C 26 %
2520 26-11-2019 12:00:17 10.6 C 27 %
2521 26-11-2019 12:10:17 10.6 C 28 %
2522 26-11-2019 12:20:17 10.4 C 26 %
2523 26-11-2019 12:30:17 10.4 C 27 %
2524 26-11-2019 12:40:17 10.8 C 27 %
2525 26-11-2019 12:50:17 10.7 C 26 %
Sensor: Nr:Datum:Temp:Feuchte:
Aussen-T/F 2526 26-11-2019 13:00:17 10.8 C 27 %
2527 26-11-2019 13:10:17 10.8 C 27 %
2528 26-11-2019 13:20:17 11 C 26 %
2529 26-11-2019 13:30:17 10.8 C 26 %
2530 26-11-2019 13:40:17 10.6 C 26 %
2531 26-11-2019 13:50:17 10.5 C 27 %
2532 26-11-2019 14:00:17 10.2 C 30 %
2533 26-11-2019 14:10:17 10.2 C 30 %
2534 26-11-2019 14:20:17 10.5 C 30 %
2535 26-11-2019 14:30:17 10.2 C 28 %
2536 26-11-2019 14:40:17 10.6 C 28 %
2537 26-11-2019 14:50:17 10.6 C 28 %
2538 26-11-2019 15:00:17 10.7 C 27 %
2539 26-11-2019 15:10:17 10.9 C 26 %
2540 26-11-2019 15:20:17 11.1 C 26 %
2541 26-11-2019 15:30:17 11.1 C 26 %
2542 26-11-2019 15:40:17 10.6 C 27 %
2543 26-11-2019 15:50:17 10.5 C 28 %
2544 26-11-2019 16:00:17 10.1 C 30 %
2545 26-11-2019 16:10:17 10 C 30 %
2546 26-11-2019 16:20:17 9.9 C 31 %
2547 26-11-2019 16:30:17 10 C 30 %
2548 26-11-2019 16:40:17 10 C 29 %
2549 26-11-2019 16:50:17 9.7 C 30 %
2550 26-11-2019 17:00:17 9.6 C 30 %
Sensor: Nr:Datum:Temp:Feuchte:
Aussen-T/F 2551 26-11-2019 17:10:17 9.4 C 31 %
2552 26-11-2019 17:20:17 9.3 C 31 %
2553 26-11-2019 17:30:17 9.2 C 31 %
2554 26-11-2019 17:40:17 9.1 C 31 %
2555 26-11-2019 17:50:17 8.9 C 32 %
2556 26-11-2019 18:00:17 8.8 C 34 %
2557 26-11-2019 18:10:17 8.9 C 36 %
2558 26-11-2019 18:20:17 8.9 C 37 %
2559 26-11-2019 18:30:17 9 C 35 %
2560 26-11-2019 18:40:17 8.9 C 35 %
2561 26-11-2019 18:50:17 9.1 C 34 %
2562 26-11-2019 19:00:17 9.7 C 31 %
2563 26-11-2019 19:10:17 9.5 C 31 %
2564 26-11-2019 19:20:17 9.6 C 30 %
2565 26-11-2019 19:30:17 9.6 C 30 %
2566 26-11-2019 19:40:17 9.7 C 30 %
2567 26-11-2019 19:50:17 9.5 C 30 %
2568 26-11-2019 20:00:17 9.5 C 30 %
2569 26-11-2019 20:10:17 9.2 C 31 %
2570 26-11-2019 20:20:17 8.9 C 32 %
2571 26-11-2019 20:30:17 8.4 C 35 %
2572 26-11-2019 20:40:17 8.2 C 35 %
2573 26-11-2019 20:50:17 8 C 37 %
2574 26-11-2019 21:00:17 7.9 C 38 %
2575 26-11-2019 21:10:17 8.3 C 39 %
Sensor: Nr:Datum:Temp:Feuchte:
Aussen-T/F 2576 26-11-2019 21:20:17 8.5 C 37 %
2577 26-11-2019 21:30:17 8.7 C 36 %
2578 26-11-2019 21:40:17 8.8 C 35 %
2579 26-11-2019 21:50:17 8.8 C 35 %
2580 26-11-2019 22:00:17 8.9 C 35 %
2581 26-11-2019 22:10:17 8.8 C 34 %
2582 26-11-2019 22:20:17 8.6 C 34 %
2583 26-11-2019 22:30:17 8.4 C 35 %
2584 26-11-2019 22:40:17 8.1 C 35 %
2585 26-11-2019 22:50:17 7.8 C 36 %
2586 26-11-2019 23:00:17 7.9 C 39 %
2587 26-11-2019 23:10:17 7.9 C 39 %
2588 26-11-2019 23:20:17 8 C 38 %
2589 26-11-2019 23:30:17 7.8 C 38 %
2590 26-11-2019 23:40:17 7.7 C 38 %
2591 26-11-2019 23:50:17 7.8 C 39 %
2592 27-11-2019 00:00:17 7.6 C 39 %
2593 27-11-2019 00:10:17 7.5 C 39 %
2594 27-11-2019 00:20:17 7.6 C 40 %
2595 27-11-2019 00:30:17 7.6 C 39 %
2596 27-11-2019 00:40:17 7.9 C 40 %
2597 27-11-2019 00:50:17 7.7 C 39 %
2598 27-11-2019 01:00:17 7.4 C 39 %
2599 27-11-2019 01:10:17 7.6 C 40 %
2600 27-11-2019 01:20:17 7.6 C 40 %
Sensor: Nr:Datum:Temp:Feuchte:
Aussen-T/F 2601 27-11-2019 01:30:17 7.8 C 40 %
2602 27-11-2019 01:40:17 7.8 C 40 %
2603 27-11-2019 01:50:17 8 C 39 %
2604 27-11-2019 02:00:17 8.1 C 39 %
2605 27-11-2019 02:10:17 8.1 C 38 %
2606 27-11-2019 02:20:17 8.1 C 38 %
2607 27-11-2019 02:30:17 8 C 39 %
2608 27-11-2019 02:40:17 7.8 C 40 %
2609 27-11-2019 02:50:17 7.7 C 40 %
2610 27-11-2019 03:00:17 7.8 C 40 %
2611 27-11-2019 03:10:17 7.6 C 41 %
2612 27-11-2019 03:20:17 7.5 C 40 %
2613 27-11-2019 03:30:17 7.2 C 40 %
2614 27-11-2019 03:40:17 7.1 C 40 %
2615 27-11-2019 03:50:17 7 C 40 %
2616 27-11-2019 04:00:17 7.1 C 40 %
2617 27-11-2019 04:10:17 7.3 C 40 %
2618 27-11-2019 04:20:17 7.5 C 40 %
2619 27-11-2019 04:30:17 7.6 C 40 %
2620 27-11-2019 04:40:17 7.6 C 40 %
2621 27-11-2019 04:50:17 7.4 C 39 %
2622 27-11-2019 05:00:17 7.1 C 38 %
2623 27-11-2019 05:10:17 7.4 C 39 %
2624 27-11-2019 05:20:17 7.8 C 37 %
2625 27-11-2019 05:30:17 7.7 C 37 %
Sensor: Nr:Datum:Temp:Feuchte:
Aussen-T/F 2626 27-11-2019 05:40:17 8 C 35 %
2627 27-11-2019 05:50:17 8 C 35 %
2628 27-11-2019 06:00:18 8 C 34 %
2629 27-11-2019 06:10:18 7.8 C 35 %
2630 27-11-2019 06:20:17 7.8 C 36 %
2631 27-11-2019 06:30:17 7.6 C 37 %
2632 27-11-2019 06:40:17 7.7 C 39 %
2633 27-11-2019 06:50:17 7.6 C 39 %
2634 27-11-2019 07:00:17 7.8 C 37 %
2635 27-11-2019 07:10:17 7.8 C 35 %
2636 27-11-2019 07:20:17 7.9 C 35 %
2637 27-11-2019 07:30:17 8.1 C 34 %
2638 27-11-2019 07:40:17 8 C 32 %
2639 27-11-2019 07:50:17 8 C 34 %
2640 27-11-2019 08:00:17 8.2 C 33 %
2641 27-11-2019 08:10:17 8.2 C 33 %
2642 27-11-2019 08:20:17 8.3 C 34 %
2643 27-11-2019 08:30:17 8.4 C 33 %
2644 27-11-2019 08:40:17 8.4 C 33 %
2645 27-11-2019 08:50:17 8.4 C 35 %
2646 27-11-2019 09:00:17 8.6 C 35 %
2647 27-11-2019 09:10:17 8.6 C 36 %
2648 27-11-2019 09:20:17 8.8 C 36 %
2649 27-11-2019 09:30:17 9.1 C 33 %
2650 27-11-2019 09:40:17 9 C 34 %
Sensor: Nr:Datum:Temp:Feuchte:
Aussen-T/F 2651 27-11-2019 09:50:17 9 C 34 %
2652 27-11-2019 10:00:17 9.1 C 35 %
2653 27-11-2019 10:10:17 9.2 C 35 %
2654 27-11-2019 10:20:17 9.3 C 35 %
2655 27-11-2019 10:30:17 9.7 C 31 %
2656 27-11-2019 10:40:17 10 C 29 %
2657 27-11-2019 10:50:17 10.4 C 27 %
2658 27-11-2019 11:00:17 11 C 25 %
2659 27-11-2019 11:10:17 11.3 C 24 %
2660 27-11-2019 11:20:17 11.6 C 22 %
2661 27-11-2019 11:30:17 11.7 C 22 %
2662 27-11-2019 11:40:17 12.1 C 20 %
2663 27-11-2019 11:50:17 12.4 C 20 %
2664 27-11-2019 12:00:17 12.7 C 20 %
2665 27-11-2019 12:10:17 12.7 C 20 %
2666 27-11-2019 12:20:18 12.7 C 20 %
2667 27-11-2019 12:30:17 12.7 C 20 %
2668 27-11-2019 12:40:17 12.8 C 20 %
2669 27-11-2019 12:50:17 12.8 C 20 %
2670 27-11-2019 13:00:17 12.7 C 20 %
2671 27-11-2019 13:10:17 12.8 C 20 %
2672 27-11-2019 13:20:17 12.8 C 20 %
2673 27-11-2019 13:30:17 12.6 C 20 %
2674 27-11-2019 13:40:17 12.7 C 20 %
2675 27-11-2019 13:50:17 12.9 C 20 %
Sensor: Nr:Datum:Temp:Feuchte:
Aussen-T/F 2676 27-11-2019 14:00:17 13.1 C 20 %
2677 27-11-2019 14:10:17 13 C 20 %
2678 27-11-2019 14:20:17 12.9 C 20 %
2679 27-11-2019 14:30:17 12.9 C 20 %
2680 27-11-2019 14:40:17 12.9 C 20 %
2681 27-11-2019 14:50:17 12.9 C 20 %
2682 27-11-2019 15:00:17 12.7 C 20 %
2683 27-11-2019 15:10:17 12.8 C 20 %
2684 27-11-2019 15:20:17 12.8 C 20 %
2685 27-11-2019 15:30:17 12.8 C 20 %
2686 27-11-2019 15:40:17 12.5 C 20 %
2687 27-11-2019 15:50:17 12.2 C 20 %
2688 27-11-2019 16:00:17 11.5 C 20 %
2689 27-11-2019 16:10:17 11.1 C 20 %
2690 27-11-2019 16:20:17 10.8 C 25 %
2691 27-11-2019 16:30:17 10.3 C 26 %
2692 27-11-2019 16:40:17 9.9 C 29 %
2693 27-11-2019 16:50:18 9.7 C 30 %
2694 27-11-2019 17:00:17 9.5 C 31 %
2695 27-11-2019 17:10:17 9.8 C 31 %
2696 27-11-2019 17:20:17 9.8 C 31 %
2697 27-11-2019 17:30:17 9.8 C 31 %
2698 27-11-2019 17:40:17 9.7 C 33 %
2699 27-11-2019 17:50:17 9.6 C 33 %
2700 27-11-2019 18:00:17 9.7 C 32 %
Sensor: Nr:Datum:Temp:Feuchte:
Aussen-T/F 2701 27-11-2019 18:10:17 9.7 C 32 %
2702 27-11-2019 18:20:17 9.9 C 31 %
2703 27-11-2019 18:30:17 9.9 C 31 %
2704 27-11-2019 18:40:17 9.8 C 32 %
2705 27-11-2019 18:50:17 9.7 C 34 %
2706 27-11-2019 19:00:17 9.7 C 36 %
2707 27-11-2019 19:10:17 9.8 C 34 %
2708 27-11-2019 19:20:17 9.7 C 33 %
2709 27-11-2019 19:30:17 10 C 31 %
2710 27-11-2019 19:40:17 10 C 31 %
2711 27-11-2019 19:50:17 10.4 C 28 %
2712 27-11-2019 20:00:17 10.8 C 26 %
2713 27-11-2019 20:10:17 10.9 C 26 %
2714 27-11-2019 20:20:17 11 C 25 %
2715 27-11-2019 20:30:17 10.6 C 26 %
2716 27-11-2019 20:40:17 9.9 C 30 %
2717 27-11-2019 20:50:17 9.7 C 31 %
2718 27-11-2019 21:00:17 9.8 C 33 %
2719 27-11-2019 21:10:17 9.8 C 32 %
2720 27-11-2019 21:20:17 9.6 C 33 %
2721 27-11-2019 21:30:17 9.8 C 32 %
2722 27-11-2019 21:40:17 10.1 C 31 %
2723 27-11-2019 21:50:17 10.2 C 29 %
2724 27-11-2019 22:00:17 10.3 C 28 %
2725 27-11-2019 22:10:17 10.6 C 27 %
Sensor: Nr:Datum:Temp:Feuchte:
Aussen-T/F 2726 27-11-2019 22:20:17 10.9 C 26 %
2727 27-11-2019 22:30:17 10.9 C 26 %
2728 27-11-2019 22:40:17 10.8 C 25 %
2729 27-11-2019 22:50:17 10.7 C 25 %
2730 27-11-2019 23:00:17 11.1 C 24 %
2731 27-11-2019 23:10:17 11.3 C 23 %
2732 27-11-2019 23:20:17 11.1 C 23 %
2733 27-11-2019 23:30:17 11.5 C 21 %
2734 27-11-2019 23:40:18 11.5 C 21 %
2735 27-11-2019 23:50:17 11.2 C 21 %
2736 28-11-2019 00:00:18 11.2 C 21 %
2737 28-11-2019 00:10:18 11.3 C 20 %
2738 28-11-2019 00:20:17 11.2 C 20 %
2739 28-11-2019 00:30:17 11.2 C 20 %
2740 28-11-2019 00:40:17 11.5 C 20 %
2741 28-11-2019 00:50:17 11.3 C 20 %
2742 28-11-2019 01:00:17 11.4 C 20 %
2743 28-11-2019 01:10:17 11.4 C 20 %
2744 28-11-2019 01:20:17 11.4 C 20 %
2745 28-11-2019 01:30:17 11.4 C 20 %
2746 28-11-2019 01:40:17 11.1 C 20 %
2747 28-11-2019 01:50:17 11.1 C 20 %
2748 28-11-2019 02:00:18 10.8 C 20 %
2749 28-11-2019 02:10:18 10.5 C 20 %
2750 28-11-2019 02:20:17 10.7 C 20 %
Sensor: Nr:Datum:Temp:Feuchte:
Aussen-T/F 2751 28-11-2019 02:30:17 11 C 20 %
2752 28-11-2019 02:40:17 10.5 C 21 %
2753 28-11-2019 02:50:17 10.8 C 20 %
2754 28-11-2019 03:00:17 10.9 C 20 %
2755 28-11-2019 03:10:17 10.3 C 20 %
2756 28-11-2019 03:20:18 10.8 C 20 %
2757 28-11-2019 03:30:18 10.6 C 20 %
2758 28-11-2019 03:40:18 10.9 C 20 %
2759 28-11-2019 03:50:18 10.9 C 20 %
2760 28-11-2019 04:00:18 10.7 C 20 %
2761 28-11-2019 04:10:18 10.6 C 20 %
2762 28-11-2019 04:20:17 10.6 C 20 %
2763 28-11-2019 04:30:17 10.6 C 20 %
2764 28-11-2019 04:40:17 10.5 C 20 %
2765 28-11-2019 04:50:17 10.3 C 20 %
2766 28-11-2019 05:00:17 10.5 C 20 %
2767 28-11-2019 05:10:17 10.2 C 20 %
2768 28-11-2019 05:20:17 10.1 C 20 %
2769 28-11-2019 05:30:17 10.4 C 20 %
2770 28-11-2019 05:40:17 10.1 C 20 %
2771 28-11-2019 05:50:17 10.2 C 20 %
2772 28-11-2019 06:00:17 9.9 C 20 %
2773 28-11-2019 06:10:17 10.1 C 20 %
2774 28-11-2019 06:20:17 10.2 C 20 %
2775 28-11-2019 06:30:17 10.5 C 20 %
Sensor: Nr:Datum:Temp:Feuchte:
Aussen-T/F 2776 28-11-2019 06:40:17 10.6 C 20 %
2777 28-11-2019 06:50:17 10.5 C 20 %
2778 28-11-2019 07:00:17 10.4 C 20 %
2779 28-11-2019 07:10:17 10 C 20 %
2780 28-11-2019 07:20:17 10 C 20 %
2781 28-11-2019 07:30:17 10 C 20 %
2782 28-11-2019 07:40:17 10.2 C 20 %
2783 28-11-2019 07:50:17 10.3 C 20 %
2784 28-11-2019 08:00:17 10.4 C 20 %
2785 28-11-2019 08:10:17 10.2 C 20 %
2786 28-11-2019 08:20:17 10.2 C 20 %
2787 28-11-2019 08:30:17 10.1 C 20 %
2788 28-11-2019 08:40:17 10.1 C 20 %
2789 28-11-2019 08:50:17 10.1 C 20 %
2790 28-11-2019 09:00:17 10.3 C 20 %
2791 28-11-2019 09:10:17 10.7 C 20 %
2792 28-11-2019 09:20:17 11 C 20 %
2793 28-11-2019 09:30:17 11 C 20 %
2794 28-11-2019 09:40:17 11.1 C 20 %
2795 28-11-2019 09:50:17 11.1 C 20 %
2796 28-11-2019 10:00:17 11.3 C 20 %
2797 28-11-2019 10:10:17 11.3 C 20 %
2798 28-11-2019 10:20:17 11.5 C 20 %
2799 28-11-2019 10:30:17 11.6 C 20 %
2800 28-11-2019 10:40:17 11.7 C 20 %
Sensor: Nr:Datum:Temp:Feuchte:
Aussen-T/F 2801 28-11-2019 10:50:17 11.7 C 20 %
2802 28-11-2019 11:00:17 11.7 C 20 %
2803 28-11-2019 11:10:17 11.8 C 20 %
2804 28-11-2019 11:20:17 11.9 C 20 %
2805 28-11-2019 11:30:17 11.9 C 20 %
2806 28-11-2019 11:40:17 12.2 C 20 %
2807 28-11-2019 11:50:17 11.9 C 20 %
2808 28-11-2019 12:00:17 11.6 C 20 %
2809 28-11-2019 12:10:17 11.5 C 20 %
2810 28-11-2019 12:20:17 11.1 C 20 %
2811 28-11-2019 12:30:17 11.1 C 20 %
2812 28-11-2019 12:40:17 10.9 C 20 %
2813 28-11-2019 12:50:17 11.2 C 20 %
2814 28-11-2019 13:00:17 11.2 C 20 %
2815 28-11-2019 13:10:17 11.7 C 20 %
2816 28-11-2019 13:20:17 11.8 C 20 %
2817 28-11-2019 13:30:17 12.1 C 20 %
2818 28-11-2019 13:40:17 11.4 C 20 %
2819 28-11-2019 13:50:17 11.4 C 20 %
2820 28-11-2019 14:00:17 11.3 C 20 %
2821 28-11-2019 14:10:17 11.4 C 20 %
2822 28-11-2019 14:20:17 11.2 C 20 %
2823 28-11-2019 14:30:17 11.1 C 20 %
2824 28-11-2019 14:40:17 11.2 C 20 %
2825 28-11-2019 14:50:17 11.2 C 20 %
Sensor: Nr:Datum:Temp:Feuchte:
Aussen-T/F 2826 28-11-2019 15:00:17 11.2 C 20 %
2827 28-11-2019 15:10:17 11.1 C 20 %
2828 28-11-2019 15:20:17 11 C 20 %
2829 28-11-2019 15:30:17 10.2 C 23 %
2830 28-11-2019 15:40:17 10.2 C 21 %
2831 28-11-2019 15:50:17 10.3 C 21 %
2832 28-11-2019 16:00:17 10.5 C 21 %
2833 28-11-2019 16:10:17 10.3 C 22 %
2834 28-11-2019 16:20:17 10.5 C 21 %
2835 28-11-2019 16:30:17 10.6 C 21 %
2836 28-11-2019 16:40:17 10.4 C 21 %
2837 28-11-2019 16:50:17 10.4 C 21 %
2838 28-11-2019 17:00:17 10.3 C 22 %
2839 28-11-2019 17:10:17 9.7 C 27 %
2840 28-11-2019 17:20:17 9.5 C 29 %
2841 28-11-2019 17:30:17 9.4 C 30 %
2842 28-11-2019 17:40:17 9.3 C 30 %
2843 28-11-2019 17:50:17 9.6 C 28 %
2844 28-11-2019 18:00:17 9.8 C 27 %
2845 28-11-2019 18:10:17 10.2 C 25 %
2846 28-11-2019 18:20:17 10.3 C 25 %
2847 28-11-2019 18:30:17 10.2 C 25 %
2848 28-11-2019 18:40:17 10.2 C 25 %
2849 28-11-2019 18:50:17 10.2 C 25 %
2850 28-11-2019 19:00:17 10.1 C 25 %
Sensor: Nr:Datum:Temp:Feuchte:
Aussen-T/F 2851 28-11-2019 19:10:17 9.8 C 26 %
2852 28-11-2019 19:20:17 9.8 C 26 %
2853 28-11-2019 19:30:17 9.8 C 26 %
2854 28-11-2019 19:40:17 9.9 C 26 %
2855 28-11-2019 19:50:17 10.1 C 25 %
2856 28-11-2019 20:00:17 10.1 C 26 %
2857 28-11-2019 20:10:17 9.8 C 26 %
2858 28-11-2019 20:20:17 9.8 C 26 %
2859 28-11-2019 20:30:17 9.8 C 27 %
2860 28-11-2019 20:40:17 10.1 C 26 %
2861 28-11-2019 20:50:17 10 C 25 %
2862 28-11-2019 21:00:17 10.1 C 25 %
2863 28-11-2019 21:10:17 9.7 C 27 %
2864 28-11-2019 21:20:17 9.9 C 27 %
2865 28-11-2019 21:30:17 10.1 C 26 %
2866 28-11-2019 21:40:17 10 C 26 %
2867 28-11-2019 21:50:17 10 C 25 %
2868 28-11-2019 22:00:17 9.6 C 27 %
2869 28-11-2019 22:10:17 9.6 C 28 %
2870 28-11-2019 22:20:17 9.6 C 28 %
2871 28-11-2019 22:30:17 9.5 C 28 %
2872 28-11-2019 22:40:17 9.6 C 28 %
2873 28-11-2019 22:50:17 9.5 C 28 %
2874 28-11-2019 23:00:17 9.5 C 28 %
2875 28-11-2019 23:10:17 9.5 C 29 %
Sensor: Nr:Datum:Temp:Feuchte:
Aussen-T/F 2876 28-11-2019 23:20:17 9.6 C 28 %
2877 28-11-2019 23:30:17 9.2 C 30 %
2878 28-11-2019 23:40:17 9.1 C 32 %
2879 28-11-2019 23:50:17 8.9 C 35 %
2880 29-11-2019 00:00:17 8.9 C 34 %
2881 29-11-2019 00:10:17 8.7 C 36 %
2882 29-11-2019 00:20:17 8.8 C 35 %
2883 29-11-2019 00:30:17 8.7 C 36 %
2884 29-11-2019 00:40:17 8.7 C 35 %
2885 29-11-2019 00:50:17 8.6 C 35 %
2886 29-11-2019 01:00:17 8.6 C 36 %
2887 29-11-2019 01:10:17 8.5 C 37 %
2888 29-11-2019 01:20:17 8.3 C 37 %
2889 29-11-2019 01:30:17 8.3 C 36 %
2890 29-11-2019 01:40:17 8.3 C 36 %
2891 29-11-2019 01:50:17 8.1 C 39 %
2892 29-11-2019 02:00:17 8.1 C 40 %
2893 29-11-2019 02:10:17 8.1 C 40 %
2894 29-11-2019 02:20:17 8.1 C 40 %
2895 29-11-2019 02:30:17 8.1 C 40 %
2896 29-11-2019 02:40:17 8.1 C 40 %
2897 29-11-2019 02:50:17 8 C 40 %
2898 29-11-2019 03:00:17 8 C 40 %
2899 29-11-2019 03:10:17 8 C 40 %
2900 29-11-2019 03:20:17 7.9 C 40 %
Sensor: Nr:Datum:Temp:Feuchte:
Aussen-T/F 2901 29-11-2019 03:30:17 7.8 C 40 %
2902 29-11-2019 03:40:17 7.7 C 40 %
2903 29-11-2019 03:50:17 7.6 C 40 %
2904 29-11-2019 04:00:17 7.6 C 40 %
2905 29-11-2019 04:10:17 7.6 C 40 %
2906 29-11-2019 04:20:17 7.6 C 40 %
2907 29-11-2019 04:30:17 7.5 C 40 %
2908 29-11-2019 04:40:17 7.5 C 40 %
2909 29-11-2019 04:50:17 7.2 C 38 %
2910 29-11-2019 05:00:17 6.8 C 34 %
2911 29-11-2019 05:10:17 6.4 C 33 %
2912 29-11-2019 05:20:17 6.2 C 34 %
2913 29-11-2019 05:30:17 6.2 C 35 %
2914 29-11-2019 05:40:18 6.1 C 36 %
2915 29-11-2019 05:50:17 6 C 36 %
2916 29-11-2019 06:00:17 6 C 38 %
2917 29-11-2019 06:10:17 5.9 C 38 %
2918 29-11-2019 06:20:17 5.9 C 38 %
2919 29-11-2019 06:30:17 5.9 C 40 %
2920 29-11-2019 06:40:17 5.9 C 40 %
2921 29-11-2019 06:50:17 5.8 C 36 %
2922 29-11-2019 07:00:17 5.7 C 35 %
2923 29-11-2019 07:10:17 5.6 C 37 %
2924 29-11-2019 07:20:17 5.4 C 37 %
2925 29-11-2019 07:30:17 5.4 C 40 %
Sensor: Nr:Datum:Temp:Feuchte:
Aussen-T/F 2926 29-11-2019 07:40:17 5.4 C 37 %
2927 29-11-2019 07:50:17 5.4 C 39 %
2928 29-11-2019 08:00:17 5.3 C 40 %
2929 29-11-2019 08:10:17 5.2 C 40 %
2930 29-11-2019 08:20:17 5.1 C 40 %
2931 29-11-2019 08:30:17 5 C 40 %
2932 29-11-2019 08:40:17 5 C 40 %
2933 29-11-2019 08:50:17 5 C 39 %
2934 29-11-2019 09:00:17 5 C 39 %
2935 29-11-2019 09:10:17 5 C 39 %
2936 29-11-2019 09:20:17 4.8 C 37 %
2937 29-11-2019 09:30:17 4.6 C 37 %
2938 29-11-2019 09:40:17 4.6 C 37 %
2939 29-11-2019 09:50:17 4.7 C 36 %
2940 29-11-2019 10:00:17 4.8 C 32 %
2941 29-11-2019 10:10:17 5.1 C 31 %
2942 29-11-2019 10:20:17 5.8 C 27 %
2943 29-11-2019 10:30:17 5.9 C 29 %
2944 29-11-2019 10:40:17 5.7 C 27 %
2945 29-11-2019 10:50:17 5.4 C 28 %
2946 29-11-2019 11:00:17 5.6 C 30 %
2947 29-11-2019 11:10:17 5.9 C 26 %
2948 29-11-2019 11:20:17 6 C 27 %
2949 29-11-2019 11:30:17 6.4 C 26 %
2950 29-11-2019 11:40:17 7 C 23 %
Sensor: Nr:Datum:Temp:Feuchte:
Aussen-T/F 2951 29-11-2019 11:50:17 7.3 C 21 %
2952 29-11-2019 12:00:17 7.2 C 20 %
2953 29-11-2019 12:10:17 7.2 C 20 %
2954 29-11-2019 12:20:17 7.1 C 20 %
2955 29-11-2019 12:30:17 7.6 C 20 %
2956 29-11-2019 12:40:17 7.2 C 20 %
2957 29-11-2019 12:50:17 6.9 C 21 %
2958 29-11-2019 13:00:17 6.6 C 21 %
2959 29-11-2019 13:10:17 6.2 C 23 %
2960 29-11-2019 13:20:17 5.9 C 25 %
2961 29-11-2019 13:30:17 6.1 C 25 %
2962 29-11-2019 13:40:17 6.1 C 25 %
2963 29-11-2019 13:50:17 6.5 C 20 %
2964 29-11-2019 14:00:17 6.5 C 20 %
2965 29-11-2019 14:10:17 7 C 20 %
2966 29-11-2019 14:20:17 7.3 C 20 %
2967 29-11-2019 14:30:17 7.3 C 20 %
2968 29-11-2019 14:40:17 6.9 C 20 %
2969 29-11-2019 14:50:17 6.5 C 20 %
2970 29-11-2019 15:00:17 7.3 C 20 %
2971 29-11-2019 15:10:17 7.3 C 20 %
2972 29-11-2019 15:20:17 7.2 C 20 %
2973 29-11-2019 15:30:17 7.2 C 20 %
2974 29-11-2019 15:40:17 7.2 C 20 %
2975 29-11-2019 15:50:17 6.7 C 20 %
Sensor: Nr:Datum:Temp:Feuchte:
Aussen-T/F 2976 29-11-2019 16:00:17 6.4 C 20 %
2977 29-11-2019 16:10:17 5.6 C 20 %
2978 29-11-2019 16:20:17 6.2 C 20 %
2979 29-11-2019 16:30:17 6 C 20 %
2980 29-11-2019 16:40:18 5.3 C 20 %
2981 29-11-2019 16:50:17 5.3 C 20 %
2982 29-11-2019 17:00:18 4.5 C 23 %
2983 29-11-2019 17:10:18 4 C 26 %
2984 29-11-2019 17:20:17 4 C 26 %
2985 29-11-2019 17:30:18 3.9 C 27 %
2986 29-11-2019 17:40:18 4 C 26 %
2987 29-11-2019 17:50:17 3.8 C 27 %
2988 29-11-2019 18:00:17 4.2 C 26 %
2989 29-11-2019 18:10:18 4.6 C 25 %
2990 29-11-2019 18:20:17 5 C 21 %
2991 29-11-2019 18:30:17 5 C 21 %
2992 29-11-2019 18:40:17 4.8 C 23 %
2993 29-11-2019 18:50:17 4.7 C 26 %
2994 29-11-2019 19:00:17 4.8 C 21 %
2995 29-11-2019 19:10:17 4.8 C 21 %
2996 29-11-2019 19:20:17 4.8 C 21 %
2997 29-11-2019 19:30:17 4.4 C 25 %
2998 29-11-2019 19:40:17 4.6 C 21 %
2999 29-11-2019 19:50:17 4.4 C 25 %
3000 29-11-2019 20:00:17 4 C 26 %
Sensor: Nr:Datum:Temp:Feuchte:
Aussen-T/F 3001 29-11-2019 20:10:17 4 C 26 %
3002 29-11-2019 20:20:17 4.3 C 25 %
3003 29-11-2019 20:30:17 4.7 C 23 %
3004 29-11-2019 20:40:17 4 C 25 %
3005 29-11-2019 20:50:17 3.9 C 26 %
3006 29-11-2019 21:00:17 3.8 C 28 %
3007 29-11-2019 21:10:17 3.9 C 27 %
3008 29-11-2019 21:20:17 3.8 C 27 %
3009 29-11-2019 21:30:17 3.8 C 28 %
3010 29-11-2019 21:40:17 3.9 C 28 %
3011 29-11-2019 21:50:17 3.2 C 30 %
3012 29-11-2019 22:00:17 3.3 C 29 %
3013 29-11-2019 22:10:17 2.6 C 32 %
3014 29-11-2019 22:20:17 2.1 C 35 %
3015 29-11-2019 22:30:17 1.9 C 37 %
3016 29-11-2019 22:40:17 1.7 C 40 %
3017 29-11-2019 22:50:17 1.8 C 41 %
3018 29-11-2019 23:00:17 1.5 C 38 %
3019 29-11-2019 23:10:17 1.1 C 39 %
3020 29-11-2019 23:20:17 1.3 C 41 %
3021 29-11-2019 23:30:17 1.5 C 42 %
3022 29-11-2019 23:40:17 1.6 C 41 %
3023 29-11-2019 23:50:17 1.7 C 41 %
3024 30-11-2019 00:00:17 1.9 C 40 %
3025 30-11-2019 00:10:17 1.8 C 40 %
Sensor: Nr:Datum:Temp:Feuchte:
Aussen-T/F 3026 30-11-2019 00:20:17 1.8 C 40 %
3027 30-11-2019 00:30:17 2 C 37 %
3028 30-11-2019 00:40:17 1.7 C 37 %
3029 30-11-2019 00:50:17 1.6 C 40 %
3030 30-11-2019 01:00:17 1.3 C 40 %
3031 30-11-2019 01:10:17 1 C 40 %
3032 30-11-2019 01:20:17 0.7 C 41 %
3033 30-11-2019 01:30:17 0.5 C 42 %
3034 30-11-2019 01:40:17 0.7 C 44 %
3035 30-11-2019 01:50:17 0.5 C 43 %
3036 30-11-2019 02:00:17 0.4 C 44 %
3037 30-11-2019 02:10:17 0.9 C 45 %
3038 30-11-2019 02:20:17 1.1 C 44 %
3039 30-11-2019 02:30:17 1.2 C 44 %
3040 30-11-2019 02:40:17 0.8 C 43 %
3041 30-11-2019 02:50:17 0.8 C 43 %
3042 30-11-2019 03:00:17 0.9 C 43 %
3043 30-11-2019 03:10:17 0.7 C 43 %
3044 30-11-2019 03:20:17 0.3 C 41 %
3045 30-11-2019 03:30:17 0.5 C 44 %
3046 30-11-2019 03:40:17 0.2 C 43 %
3047 30-11-2019 03:50:17 0.6 C 44 %
3048 30-11-2019 04:00:17 1 C 44 %
3049 30-11-2019 04:10:17 1.3 C 43 %
3050 30-11-2019 04:20:17 1.3 C 41 %
Sensor: Nr:Datum:Temp:Feuchte:
Aussen-T/F 3051 30-11-2019 04:30:17 1.4 C 40 %
3052 30-11-2019 04:40:17 1.3 C 40 %
3053 30-11-2019 04:50:17 1 C 38 %
3054 30-11-2019 05:00:17 0.6 C 40 %
3055 30-11-2019 05:10:17 1.1 C 41 %
3056 30-11-2019 05:20:17 0.8 C 40 %
3057 30-11-2019 05:30:17 0.3 C 40 %
3058 30-11-2019 05:40:17 -0.5 C 40 %
3059 30-11-2019 05:50:17 -0.7 C 41 %
3060 30-11-2019 06:00:17 -0.7 C 43 %
3061 30-11-2019 06:10:17 -0.9 C 43 %
3062 30-11-2019 06:20:17 -1 C 43 %
3063 30-11-2019 06:30:17 -1.2 C 43 %
3064 30-11-2019 06:40:17 -1.3 C 43 %
3065 30-11-2019 06:50:17 -1.2 C 44 %
3066 30-11-2019 07:00:17 -1.4 C 44 %
3067 30-11-2019 07:10:17 -1.4 C 43 %
3068 30-11-2019 07:20:17 -1.4 C 43 %
3069 30-11-2019 07:30:17 -1.5 C 43 %
3070 30-11-2019 07:40:17 -1.2 C 44 %
3071 30-11-2019 07:50:17 -1.1 C 44 %
3072 30-11-2019 08:00:17 -1 C 44 %
3073 30-11-2019 08:10:17 -0.7 C 44 %
3074 30-11-2019 08:20:17 -0.6 C 44 %
3075 30-11-2019 08:30:17 -0.7 C 44 %
Sensor: Nr:Datum:Temp:Feuchte:
Aussen-T/F 3076 30-11-2019 08:40:17 -0.6 C 44 %
3077 30-11-2019 08:50:17 -0.7 C 44 %
3078 30-11-2019 09:00:17 -0.7 C 44 %
3079 30-11-2019 09:10:17 -0.6 C 44 %
3080 30-11-2019 09:20:17 -0.7 C 44 %
3081 30-11-2019 09:30:17 -0.7 C 44 %
3082 30-11-2019 09:40:17 -0.6 C 44 %
3083 30-11-2019 09:50:17 -0.3 C 44 %
3084 30-11-2019 10:00:17 -0.3 C 44 %
3085 30-11-2019 10:10:17 0 C 44 %
3086 30-11-2019 10:20:17 0.1 C 43 %
3087 30-11-2019 10:30:17 0.4 C 43 %
3088 30-11-2019 10:40:17 0.5 C 43 %
3089 30-11-2019 10:50:17 0.4 C 43 %
3090 30-11-2019 11:00:18 0.5 C 42 %
3091 30-11-2019 11:10:18 0.6 C 42 %
3092 30-11-2019 11:20:17 0.6 C 42 %
3093 30-11-2019 11:30:17 0.4 C 41 %
3094 30-11-2019 11:40:17 0.6 C 41 %
3095 30-11-2019 11:50:17 0.9 C 41 %
3096 30-11-2019 12:00:17 1.1 C 40 %
3097 30-11-2019 12:10:17 0.9 C 38 %
3098 30-11-2019 12:20:17 1.3 C 39 %
3099 30-11-2019 12:30:17 1.4 C 37 %
3100 30-11-2019 12:40:17 1.4 C 36 %
Sensor: Nr:Datum:Temp:Feuchte:
Aussen-T/F 3101 30-11-2019 12:50:17 2.3 C 36 %
3102 30-11-2019 13:00:17 2.4 C 36 %
3103 30-11-2019 13:10:17 1.8 C 36 %
3104 30-11-2019 13:20:17 2.2 C 36 %
3105 30-11-2019 13:30:17 2.1 C 36 %
3106 30-11-2019 13:40:17 2.3 C 36 %
3107 30-11-2019 13:50:17 2.3 C 36 %
3108 30-11-2019 14:00:17 2 C 36 %
3109 30-11-2019 14:10:17 2.1 C 38 %
3110 30-11-2019 14:20:17 2.2 C 38 %
3111 30-11-2019 14:30:17 2.2 C 38 %
3112 30-11-2019 14:40:17 2.4 C 38 %
3113 30-11-2019 14:50:17 2.2 C 37 %
3114 30-11-2019 15:00:17 1.9 C 39 %
3115 30-11-2019 15:10:17 1.8 C 40 %
3116 30-11-2019 15:20:18 1.9 C 41 %
3117 30-11-2019 15:30:17 1.8 C 41 %
3118 30-11-2019 15:40:17 1.6 C 41 %
3119 30-11-2019 15:50:17 1.7 C 42 %
3120 30-11-2019 16:00:17 1.5 C 42 %
3121 30-11-2019 16:10:17 1.5 C 42 %
3122 30-11-2019 16:20:17 1.4 C 43 %
3123 30-11-2019 16:30:17 1.3 C 43 %
3124 30-11-2019 16:40:17 1.3 C 43 %
3125 30-11-2019 16:50:17 1.1 C 43 %
Sensor: Nr:Datum:Temp:Feuchte:
Aussen-T/F 3126 30-11-2019 17:00:17 0.9 C 44 %
3127 30-11-2019 17:10:17 0.9 C 44 %
3128 30-11-2019 17:20:17 0.6 C 44 %
3129 30-11-2019 17:30:17 0.6 C 44 %
3130 30-11-2019 17:40:17 0.6 C 44 %
3131 30-11-2019 17:50:17 0.5 C 44 %
3132 30-11-2019 18:00:17 0.4 C 44 %
3133 30-11-2019 18:10:17 0.3 C 44 %
3134 30-11-2019 18:20:17 0.3 C 44 %
3135 30-11-2019 18:30:17 0.4 C 44 %
3136 30-11-2019 18:40:17 0.4 C 44 %
3137 30-11-2019 18:50:17 0.4 C 44 %
3138 30-11-2019 19:00:17 0.2 C 44 %
3139 30-11-2019 19:10:17 0 C 44 %
3140 30-11-2019 19:20:17 0 C 44 %
3141 30-11-2019 19:30:17 0 C 44 %
3142 30-11-2019 19:40:17 -0.1 C 44 %
3143 30-11-2019 19:50:17 -0.1 C 44 %
3144 30-11-2019 20:00:17 -0.2 C 44 %
3145 30-11-2019 20:10:18 -0.2 C 44 %
3146 30-11-2019 20:20:18 -0.2 C 44 %
3147 30-11-2019 20:30:17 -0.2 C 44 %
3148 30-11-2019 20:40:17 -0.4 C 44 %
3149 30-11-2019 20:50:17 -0.3 C 44 %
3150 30-11-2019 21:00:17 -0.2 C 44 %
Sensor: Nr:Datum:Temp:Feuchte:
Aussen-T/F 3151 30-11-2019 21:10:17 -0.3 C 44 %
3152 30-11-2019 21:20:17 -0.3 C 44 %
3153 30-11-2019 21:30:17 -0.4 C 44 %
3154 30-11-2019 21:40:17 -0.2 C 44 %
3155 30-11-2019 21:50:17 -0.3 C 44 %
3156 30-11-2019 22:00:17 -0.3 C 44 %
3157 30-11-2019 22:10:17 -0.3 C 44 %
3158 30-11-2019 22:20:17 -0.3 C 44 %
3159 30-11-2019 22:30:17 -0.1 C 44 %
3160 30-11-2019 22:40:17 0 C 44 %
3161 30-11-2019 22:50:17 0 C 44 %
3162 30-11-2019 23:00:17 0 C 44 %
3163 30-11-2019 23:10:17 0 C 44 %
3164 30-11-2019 23:20:17 -0.1 C 44 %
3165 30-11-2019 23:30:17 -0.4 C 43 %
3166 30-11-2019 23:40:17 -0.5 C 43 %
3167 30-11-2019 23:50:17 -0.4 C 43 %
3168 01-12-2019 00:00:17 -0.2 C 43 %
3169 01-12-2019 00:10:17 -0.3 C 43 %
3170 01-12-2019 00:20:17 -0.3 C 43 %
3171 01-12-2019 00:30:17 -0.3 C 43 %
3172 01-12-2019 00:40:17 -0.3 C 43 %
3173 01-12-2019 00:50:18 -0.2 C 43 %
3174 01-12-2019 01:00:17 0 C 44 %
3175 01-12-2019 01:10:17 -0.1 C 43 %
Sensor: Nr:Datum:Temp:Feuchte:
Aussen-T/F 3176 01-12-2019 01:20:17 -0.1 C 43 %
3177 01-12-2019 01:30:17 -0.1 C 43 %
3178 01-12-2019 01:40:17 -0.1 C 43 %
3179 01-12-2019 01:50:17 -0.2 C 43 %
3180 01-12-2019 02:00:17 -0.1 C 43 %
3181 01-12-2019 02:10:17 -0.2 C 43 %
3182 01-12-2019 02:20:17 -0.2 C 43 %
3183 01-12-2019 02:30:17 -0.2 C 43 %
3184 01-12-2019 02:40:17 -0.3 C 43 %
3185 01-12-2019 02:50:17 -0.2 C 43 %
3186 01-12-2019 03:00:17 -0.3 C 43 %
3187 01-12-2019 03:10:17 -0.3 C 43 %
3188 01-12-2019 03:20:17 -0.4 C 43 %
3189 01-12-2019 03:30:17 -0.4 C 43 %
3190 01-12-2019 03:40:17 -0.4 C 43 %
3191 01-12-2019 03:50:17 -0.4 C 43 %
3192 01-12-2019 04:00:17 -0.4 C 43 %
3193 01-12-2019 04:10:17 -0.8 C 42 %
3194 01-12-2019 04:20:17 -1.1 C 42 %
3195 01-12-2019 04:30:17 -1.3 C 42 %
3196 01-12-2019 04:40:17 -0.9 C 43 %
3197 01-12-2019 04:50:17 -0.9 C 43 %
3198 01-12-2019 05:00:17 -0.7 C 43 %
3199 01-12-2019 05:10:17 -0.8 C 43 %
3200 01-12-2019 05:20:17 -0.9 C 43 %
Sensor: Nr:Datum:Temp:Feuchte:
Aussen-T/F 3201 01-12-2019 05:30:17 -1.1 C 43 %
3202 01-12-2019 05:40:17 -1 C 43 %
3203 01-12-2019 05:50:17 -0.9 C 43 %
3204 01-12-2019 06:00:17 -1 C 43 %
3205 01-12-2019 06:10:17 -1.1 C 43 %
3206 01-12-2019 06:20:17 -1.3 C 43 %
3207 01-12-2019 06:30:17 -1 C 43 %
3208 01-12-2019 06:40:17 -0.9 C 43 %
3209 01-12-2019 06:50:17 -0.9 C 43 %
3210 01-12-2019 07:00:17 -0.8 C 43 %
3211 01-12-2019 07:10:17 -0.7 C 43 %
3212 01-12-2019 07:20:17 -0.5 C 43 %
3213 01-12-2019 07:30:17 -0.5 C 43 %
3214 01-12-2019 07:40:17 -0.3 C 43 %
3215 01-12-2019 07:50:17 -0.2 C 43 %
3216 01-12-2019 08:00:17 -0.1 C 43 %
3217 01-12-2019 08:10:17 -0.1 C 43 %
3218 01-12-2019 08:20:17 -0.2 C 43 %
3219 01-12-2019 08:30:17 -0.2 C 43 %
3220 01-12-2019 08:40:17 -0.2 C 43 %
3221 01-12-2019 08:50:17 0 C 43 %
3222 01-12-2019 09:00:17 0 C 42 %
3223 01-12-2019 09:10:17 0.2 C 42 %
3224 01-12-2019 09:20:17 0.1 C 42 %
3225 01-12-2019 09:30:17 0.1 C 42 %
Sensor: Nr:Datum:Temp:Feuchte:
Aussen-T/F 3226 01-12-2019 09:40:17 0.2 C 41 %
3227 01-12-2019 09:50:17 0.3 C 41 %
3228 01-12-2019 10:00:17 0.5 C 41 %
3229 01-12-2019 10:10:17 0.6 C 41 %
3230 01-12-2019 10:20:17 0.7 C 40 %
3231 01-12-2019 10:30:17 0.8 C 39 %
3232 01-12-2019 10:40:17 1 C 38 %
3233 01-12-2019 10:50:17 1.1 C 37 %
3234 01-12-2019 11:00:17 1.4 C 36 %
3235 01-12-2019 11:10:17 1.9 C 34 %
3236 01-12-2019 11:20:17 2.1 C 32 %
3237 01-12-2019 11:30:17 2.7 C 30 %
3238 01-12-2019 11:40:17 3 C 27 %
3239 01-12-2019 11:50:17 2.9 C 20 %
3240 01-12-2019 12:00:17 3 C 21 %
3241 01-12-2019 12:10:17 3.1 C 20 %
3242 01-12-2019 12:20:17 3.3 C 20 %
3243 01-12-2019 12:30:18 3.3 C 20 %
3244 01-12-2019 12:40:18 3.3 C 20 %
3245 01-12-2019 12:50:18 3.4 C 20 %
3246 01-12-2019 13:00:17 3.3 C 20 %
3247 01-12-2019 13:10:17 3.4 C 20 %
3248 01-12-2019 13:20:18 3.5 C 20 %
3249 01-12-2019 13:30:18 3.5 C 20 %
3250 01-12-2019 13:40:18 3.6 C 20 %
Sensor: Nr:Datum:Temp:Feuchte:
Aussen-T/F 3251 01-12-2019 13:50:17 3.8 C 20 %
3252 01-12-2019 14:00:17 3.9 C 20 %
3253 01-12-2019 14:10:18 3.9 C 20 %
3254 01-12-2019 14:20:18 3.7 C 20 %
3255 01-12-2019 14:30:17 3.7 C 20 %
3256 01-12-2019 14:40:17 3.6 C 20 %
3257 01-12-2019 14:50:17 3.6 C 20 %
3258 01-12-2019 15:00:17 3.5 C 20 %
3259 01-12-2019 15:10:17 3.3 C 20 %
3260 01-12-2019 15:20:17 3.2 C 21 %
3261 01-12-2019 15:30:17 3 C 20 %
3262 01-12-2019 15:40:17 3 C 21 %
3263 01-12-2019 15:50:17 2.7 C 25 %
3264 01-12-2019 16:00:17 2.6 C 25 %
3265 01-12-2019 16:10:17 2.5 C 25 %
3266 01-12-2019 16:20:17 2.4 C 25 %
3267 01-12-2019 16:30:18 2.4 C 25 %
3268 01-12-2019 16:40:18 2.2 C 25 %
3269 01-12-2019 16:50:18 2.2 C 25 %
3270 01-12-2019 17:00:18 2.2 C 25 %
3271 01-12-2019 17:10:18 2.2 C 25 %
3272 01-12-2019 17:20:17 2.3 C 25 %
3273 01-12-2019 17:30:17 2.3 C 25 %
3274 01-12-2019 17:40:17 2.3 C 25 %
3275 01-12-2019 17:50:17 2.3 C 25 %
Sensor: Nr:Datum:Temp:Feuchte:
Aussen-T/F 3276 01-12-2019 18:00:17 2.3 C 25 %
3277 01-12-2019 18:10:17 2.3 C 25 %
3278 01-12-2019 18:20:17 2.3 C 25 %
3279 01-12-2019 18:30:17 2.3 C 25 %
3280 01-12-2019 18:40:17 2.3 C 25 %
3281 01-12-2019 18:50:17 2.3 C 23 %
3282 01-12-2019 19:00:17 2.3 C 23 %
3283 01-12-2019 19:10:18 2.4 C 25 %
3284 01-12-2019 19:20:17 2.3 C 25 %
3285 01-12-2019 19:30:17 2.3 C 25 %
3286 01-12-2019 19:40:17 2.3 C 25 %
3287 01-12-2019 19:50:17 2.2 C 26 %
3288 01-12-2019 20:00:17 2.5 C 25 %
3289 01-12-2019 20:10:17 2.2 C 25 %
3290 01-12-2019 20:20:17 2.1 C 25 %
3291 01-12-2019 20:30:18 2.1 C 25 %
3292 01-12-2019 20:40:18 2.1 C 25 %
3293 01-12-2019 20:50:17 2 C 27 %
3294 01-12-2019 21:00:17 1.9 C 27 %
3295 01-12-2019 21:10:17 1.8 C 28 %
3296 01-12-2019 21:20:17 1.6 C 30 %
3297 01-12-2019 21:30:18 1.5 C 29 %
3298 01-12-2019 21:40:18 1.6 C 28 %
3299 01-12-2019 21:50:17 1.6 C 28 %
3300 01-12-2019 22:00:17 1.5 C 29 %
Sensor: Nr:Datum:Temp:Feuchte:
Aussen-T/F 3301 01-12-2019 22:10:17 1.4 C 29 %
3302 01-12-2019 22:20:17 1.4 C 30 %
3303 01-12-2019 22:30:18 1.3 C 28 %
3304 01-12-2019 22:40:18 1.2 C 29 %
3305 01-12-2019 22:50:17 1.1 C 29 %
3306 01-12-2019 23:00:17 0.8 C 30 %
3307 01-12-2019 23:10:17 0.8 C 30 %
3308 01-12-2019 23:20:18 0.7 C 30 %
3309 01-12-2019 23:30:17 0.5 C 32 %
3310 01-12-2019 23:40:17 0.3 C 33 %
3311 01-12-2019 23:50:17 0.2 C 33 %
3312 02-12-2019 00:00:17 0.1 C 33 %
3313 02-12-2019 00:10:17 0.2 C 33 %
3314 02-12-2019 00:20:17 0.3 C 32 %
3315 02-12-2019 00:30:17 0.3 C 32 %
3316 02-12-2019 00:40:17 0.2 C 32 %
3317 02-12-2019 00:50:18 0.2 C 35 %
3318 02-12-2019 01:00:17 0.1 C 36 %
3319 02-12-2019 01:10:17 0 C 38 %
3320 02-12-2019 01:20:17 -0.2 C 36 %
3321 02-12-2019 01:30:17 0.2 C 34 %
3322 02-12-2019 01:40:17 -0.2 C 35 %
3323 02-12-2019 01:50:17 -0.9 C 35 %
3324 02-12-2019 02:00:18 -0.9 C 37 %
3325 02-12-2019 02:10:18 -0.9 C 37 %
Sensor: Nr:Datum:Temp:Feuchte:
Aussen-T/F 3326 02-12-2019 02:20:17 -0.5 C 37 %
3327 02-12-2019 02:30:17 -1 C 36 %
3328 02-12-2019 02:40:17 -1.1 C 37 %
3329 02-12-2019 02:50:17 -1.1 C 36 %
3330 02-12-2019 03:00:17 -1 C 37 %
3331 02-12-2019 03:10:17 -1.2 C 38 %
3332 02-12-2019 03:20:17 -1.3 C 37 %
3333 02-12-2019 03:30:18 -1.3 C 38 %
3334 02-12-2019 03:40:18 -1.4 C 37 %
3335 02-12-2019 03:50:17 -1.4 C 37 %
3336 02-12-2019 04:00:18 -1.7 C 39 %
3337 02-12-2019 04:10:18 -1.4 C 40 %
3338 02-12-2019 04:20:17 -1.1 C 40 %
3339 02-12-2019 04:30:17 -1 C 40 %
3340 02-12-2019 04:40:17 -0.8 C 36 %
3341 02-12-2019 04:50:17 -1.1 C 37 %
3342 02-12-2019 05:00:17 -1.4 C 40 %
3343 02-12-2019 05:10:17 -1.1 C 40 %
3344 02-12-2019 05:20:17 -1.2 C 39 %
3345 02-12-2019 05:30:17 -1.6 C 40 %
3346 02-12-2019 05:40:17 -1.4 C 41 %
3347 02-12-2019 05:50:17 -1.3 C 42 %
3348 02-12-2019 06:00:17 -1.2 C 41 %
3349 02-12-2019 06:10:17 -1.3 C 39 %
3350 02-12-2019 06:20:17 -1.2 C 39 %
Sensor: Nr:Datum:Temp:Feuchte:
Aussen-T/F 3351 02-12-2019 06:30:17 -1.4 C 38 %
3352 02-12-2019 06:40:17 -1.4 C 40 %
3353 02-12-2019 06:50:17 -1.8 C 37 %
3354 02-12-2019 07:00:17 -2.4 C 38 %
3355 02-12-2019 07:10:17 -2.6 C 40 %
3356 02-12-2019 07:20:17 -2.9 C 40 %
3357 02-12-2019 07:30:17 -2.7 C 42 %
3358 02-12-2019 07:40:17 -2.6 C 42 %
3359 02-12-2019 07:50:17 -2.4 C 43 %
3360 02-12-2019 08:00:17 -1.9 C 45 %
3361 02-12-2019 08:10:18 -1.6 C 44 %
3362 02-12-2019 08:20:17 -1.3 C 44 %
3363 02-12-2019 08:30:17 -1 C 43 %
3364 02-12-2019 08:40:17 -0.7 C 43 %
3365 02-12-2019 08:50:17 -0.5 C 42 %
3366 02-12-2019 09:00:17 -0.5 C 40 %
3367 02-12-2019 09:10:17 -0.4 C 38 %
3368 02-12-2019 09:20:17 -0.4 C 36 %
3369 02-12-2019 09:30:17 -0.4 C 36 %
3370 02-12-2019 09:40:17 0 C 36 %
3371 02-12-2019 09:50:17 0 C 35 %
3372 02-12-2019 10:00:17 0.1 C 35 %
3373 02-12-2019 10:10:17 0.1 C 34 %
3374 02-12-2019 10:20:17 0.2 C 35 %
3375 02-12-2019 10:30:17 0.5 C 36 %
Sensor: Nr:Datum:Temp:Feuchte:
Aussen-T/F 3376 02-12-2019 10:40:17 1 C 31 %
3377 02-12-2019 10:50:17 0.8 C 31 %
3378 02-12-2019 11:00:17 1.2 C 30 %
3379 02-12-2019 11:10:17 1.1 C 30 %
3380 02-12-2019 11:20:17 1.2 C 30 %
3381 02-12-2019 11:30:17 0.9 C 31 %
3382 02-12-2019 11:40:18 1 C 31 %
3383 02-12-2019 11:50:17 0.8 C 32 %
3384 02-12-2019 12:00:18 1.6 C 31 %
3385 02-12-2019 12:10:18 2.3 C 27 %
3386 02-12-2019 12:20:17 2.8 C 25 %
3387 02-12-2019 12:30:17 3.1 C 26 %
3388 02-12-2019 12:40:17 3 C 25 %
3389 02-12-2019 12:50:18 3.2 C 26 %
3390 02-12-2019 13:00:17 3.2 C 26 %
3391 02-12-2019 13:10:17 3.5 C 25 %
3392 02-12-2019 13:20:17 3.9 C 25 %
3393 02-12-2019 13:30:17 3.9 C 25 %
3394 02-12-2019 13:40:17 3.8 C 25 %
3395 02-12-2019 13:50:17 3.6 C 25 %
3396 02-12-2019 14:00:17 4 C 26 %
3397 02-12-2019 14:10:17 3.7 C 28 %
3398 02-12-2019 14:20:17 3.7 C 30 %
3399 02-12-2019 14:30:17 4.1 C 27 %
3400 02-12-2019 14:40:17 4.3 C 27 %
Sensor: Nr:Datum:Temp:Feuchte:
Aussen-T/F 3401 02-12-2019 14:50:17 4.5 C 27 %
3402 02-12-2019 15:00:18 4.3 C 28 %
3403 02-12-2019 15:10:18 4.3 C 29 %
3404 02-12-2019 15:20:17 4.7 C 27 %
3405 02-12-2019 15:30:17 4.4 C 27 %
3406 02-12-2019 15:40:17 4.1 C 31 %
3407 02-12-2019 15:50:17 3.9 C 36 %
3408 02-12-2019 16:00:18 3.7 C 37 %
3409 02-12-2019 16:10:18 3.6 C 37 %
3410 02-12-2019 16:20:17 3.5 C 40 %
3411 02-12-2019 16:30:17 3.5 C 38 %
3412 02-12-2019 16:40:17 3.5 C 35 %
3413 02-12-2019 16:50:17 3.5 C 35 %
3414 02-12-2019 17:00:17 3.3 C 36 %
3415 02-12-2019 17:10:17 3.2 C 39 %
3416 02-12-2019 17:20:17 3.2 C 36 %
3417 02-12-2019 17:30:18 3.3 C 36 %
3418 02-12-2019 17:40:18 3.4 C 35 %
3419 02-12-2019 17:50:17 3.3 C 35 %
3420 02-12-2019 18:01:17 3.1 C 36 %
3421 02-12-2019 18:11:17 3.2 C 37 %
3422 02-12-2019 18:21:17 3.2 C 36 %
3423 02-12-2019 18:30:17 3 C 36 %
3424 02-12-2019 18:40:17 2.5 C 40 %
3425 02-12-2019 18:50:17 2.2 C 40 %
Sensor: Nr:Datum:Temp:Feuchte:
Aussen-T/F 3426 02-12-2019 19:00:17 2.1 C 42 %
3427 02-12-2019 19:10:17 2.7 C 43 %
3428 02-12-2019 19:21:17 2.7 C 42 %
3429 02-12-2019 19:30:17 2.7 C 41 %
3430 02-12-2019 19:40:17 2.9 C 42 %
3431 02-12-2019 19:51:17 2.9 C 42 %
3432 02-12-2019 20:01:17 2.9 C 39 %
3433 02-12-2019 20:11:17 2.8 C 38 %
3434 02-12-2019 20:21:17 2.9 C 37 %
3435 02-12-2019 20:31:17 2.9 C 38 %
3436 02-12-2019 20:40:17 2.8 C 40 %
3437 02-12-2019 20:51:17 2.7 C 42 %
3438 02-12-2019 21:00:17 2.7 C 42 %
3439 02-12-2019 21:10:17 2.7 C 42 %
3440 02-12-2019 21:21:17 2.7 C 42 %
3441 02-12-2019 21:30:18 2.7 C 42 %
3442 02-12-2019 21:40:18 2.6 C 41 %
3443 02-12-2019 21:51:17 2.6 C 42 %
3444 02-12-2019 22:01:17 2.6 C 41 %
3445 02-12-2019 22:11:17 2.6 C 41 %
3446 02-12-2019 22:21:17 2.6 C 41 %
3447 02-12-2019 22:30:18 2.5 C 40 %
3448 02-12-2019 22:40:18 2.5 C 41 %
3449 02-12-2019 22:51:17 2.4 C 41 %
3450 02-12-2019 23:01:17 2.5 C 41 %
Sensor: Nr:Datum:Temp:Feuchte:
Aussen-T/F 3451 02-12-2019 23:11:17 2.4 C 42 %
3452 02-12-2019 23:21:17 2.5 C 42 %
3453 02-12-2019 23:31:17 2.5 C 42 %
3454 02-12-2019 23:41:17 2.5 C 42 %
3455 02-12-2019 23:50:18 2.5 C 42 %
3456 03-12-2019 00:01:17 2.5 C 42 %
3457 03-12-2019 00:11:17 2.5 C 42 %
3458 03-12-2019 00:21:17 2.5 C 41 %
3459 03-12-2019 00:30:18 2.5 C 41 %
3460 03-12-2019 00:40:18 2.6 C 41 %
3461 03-12-2019 00:51:17 2.6 C 41 %
3462 03-12-2019 01:01:18 2.6 C 41 %
3463 03-12-2019 01:11:18 2.6 C 41 %
3464 03-12-2019 01:21:17 2.7 C 41 %
3465 03-12-2019 01:31:17 2.7 C 41 %
3466 03-12-2019 01:41:17 2.7 C 42 %
3467 03-12-2019 01:51:17 2.7 C 42 %
3468 03-12-2019 02:01:17 2.7 C 42 %
3469 03-12-2019 02:11:17 2.8 C 42 %
3470 03-12-2019 02:21:17 2.8 C 42 %
3471 03-12-2019 02:31:17 2.8 C 42 %
3472 03-12-2019 02:41:17 2.9 C 42 %
3473 03-12-2019 02:51:17 2.8 C 42 %
3474 03-12-2019 03:01:17 2.8 C 42 %
3475 03-12-2019 03:11:17 2.8 C 42 %
Sensor: Nr:Datum:Temp:Feuchte:
Aussen-T/F 3476 03-12-2019 03:21:17 2.8 C 42 %
3477 03-12-2019 03:31:17 2.9 C 42 %
3478 03-12-2019 03:41:17 3 C 42 %
3479 03-12-2019 03:51:17 3 C 42 %
3480 03-12-2019 04:01:17 3 C 42 %
3481 03-12-2019 04:11:17 3 C 42 %
3482 03-12-2019 04:21:17 3 C 42 %
3483 03-12-2019 04:31:17 3.1 C 42 %
3484 03-12-2019 04:41:17 3.1 C 42 %
3485 03-12-2019 04:51:17 3.1 C 42 %
3486 03-12-2019 05:01:17 3.1 C 42 %
3487 03-12-2019 05:11:17 3.1 C 42 %
3488 03-12-2019 05:21:17 3.1 C 42 %
3489 03-12-2019 05:31:17 3.2 C 42 %
3490 03-12-2019 05:41:17 3.2 C 41 %
3491 03-12-2019 05:51:17 3.2 C 41 %
3492 03-12-2019 06:01:18 3.2 C 41 %
3493 03-12-2019 06:11:18 3.2 C 41 %
3494 03-12-2019 06:21:17 3.2 C 41 %
3495 03-12-2019 06:31:17 3.3 C 41 %
3496 03-12-2019 06:41:17 3.3 C 41 %
3497 03-12-2019 06:51:18 3.3 C 41 %
3498 03-12-2019 07:01:17 3.3 C 41 %
3499 03-12-2019 07:11:17 3.3 C 41 %
3500 03-12-2019 07:21:17 3.3 C 41 %
Sensor: Nr:Datum:Temp:Feuchte:
Aussen-T/F 3501 03-12-2019 07:31:17 3.2 C 41 %
3502 03-12-2019 07:41:17 3.3 C 41 %
3503 03-12-2019 07:51:17 3.3 C 42 %
3504 03-12-2019 08:01:17 3.3 C 42 %
3505 03-12-2019 08:11:17 3.4 C 42 %
3506 03-12-2019 08:21:17 3.3 C 42 %
3507 03-12-2019 08:31:17 3.4 C 42 %
3508 03-12-2019 08:41:17 3.4 C 41 %
3509 03-12-2019 08:51:17 3.4 C 41 %
3510 03-12-2019 09:01:17 3.5 C 42 %
3511 03-12-2019 09:11:17 3.5 C 42 %
3512 03-12-2019 09:21:17 3.5 C 41 %
3513 03-12-2019 09:31:17 3.6 C 41 %
3514 03-12-2019 09:41:17 3.6 C 41 %
3515 03-12-2019 09:51:17 3.7 C 41 %
3516 03-12-2019 10:01:17 3.7 C 41 %
3517 03-12-2019 10:11:17 3.8 C 41 %
3518 03-12-2019 10:21:17 3.8 C 41 %
3519 03-12-2019 10:31:17 3.8 C 41 %
3520 03-12-2019 10:41:17 4.1 C 40 %
3521 03-12-2019 10:51:17 4.1 C 40 %
3522 03-12-2019 11:01:18 4.3 C 39 %
3523 03-12-2019 11:11:18 4.3 C 37 %
3524 03-12-2019 11:21:17 4.4 C 37 %
3525 03-12-2019 11:31:17 4.6 C 37 %
Sensor: Nr:Datum:Temp:Feuchte:
Aussen-T/F 3526 03-12-2019 11:41:17 4.6 C 37 %
3527 03-12-2019 11:51:17 4.7 C 37 %
3528 03-12-2019 12:01:17 4.7 C 37 %
3529 03-12-2019 12:11:17 4.9 C 35 %
3530 03-12-2019 12:21:17 5 C 34 %
3531 03-12-2019 12:31:17 5 C 35 %
3532 03-12-2019 12:41:17 5.2 C 35 %
3533 03-12-2019 12:51:18 5.3 C 34 %
3534 03-12-2019 13:01:17 5.6 C 34 %
3535 03-12-2019 13:11:17 5.8 C 33 %
3536 03-12-2019 13:21:17 5.8 C 32 %
3537 03-12-2019 13:31:17 5.7 C 32 %
3538 03-12-2019 13:41:17 5.9 C 32 %
3539 03-12-2019 13:51:18 6.1 C 31 %
3540 03-12-2019 14:01:17 6.1 C 31 %
3541 03-12-2019 14:11:17 6.2 C 31 %
3542 03-12-2019 14:21:17 6.1 C 31 %
3543 03-12-2019 14:31:17 6.3 C 31 %
3544 03-12-2019 14:41:17 6.2 C 30 %
3545 03-12-2019 14:51:18 6.4 C 31 %
3546 03-12-2019 15:01:17 6.2 C 30 %
3547 03-12-2019 15:11:17 6.3 C 31 %
3548 03-12-2019 15:21:17 6.3 C 31 %
3549 03-12-2019 15:31:17 6.2 C 31 %
3550 03-12-2019 15:41:17 6.1 C 32 %
Sensor: Nr:Datum:Temp:Feuchte:
Aussen-T/F 3551 03-12-2019 15:51:17 6 C 33 %
3552 03-12-2019 16:01:17 5.7 C 36 %
3553 03-12-2019 16:11:17 5.6 C 39 %
3554 03-12-2019 16:21:17 5.4 C 40 %
3555 03-12-2019 16:31:18 5.3 C 41 %
3556 03-12-2019 16:41:18 5.2 C 41 %
3557 03-12-2019 16:51:17 5.2 C 41 %
3558 03-12-2019 17:01:18 5.1 C 41 %
3559 03-12-2019 17:11:18 5.1 C 41 %
3560 03-12-2019 17:21:17 5.1 C 41 %
3561 03-12-2019 17:31:17 5 C 41 %
3562 03-12-2019 17:41:17 5 C 41 %
3563 03-12-2019 17:51:17 5 C 41 %
3564 03-12-2019 18:01:18 4.8 C 41 %
3565 03-12-2019 18:11:18 4.7 C 40 %
3566 03-12-2019 18:21:17 4.7 C 40 %
3567 03-12-2019 18:31:18 4.7 C 40 %
3568 03-12-2019 18:41:18 4.7 C 40 %
3569 03-12-2019 18:51:17 4.7 C 40 %
3570 03-12-2019 19:01:17 4.7 C 40 %
3571 03-12-2019 19:11:17 4.6 C 39 %
3572 03-12-2019 19:21:17 4.6 C 38 %
3573 03-12-2019 19:31:17 4.6 C 38 %
3574 03-12-2019 19:41:17 4.4 C 37 %
3575 03-12-2019 19:51:17 4.3 C 38 %
Sensor: Nr:Datum:Temp:Feuchte:
Aussen-T/F 3576 03-12-2019 20:01:17 4.3 C 39 %
3577 03-12-2019 20:11:17 4.3 C 38 %
3578 03-12-2019 20:21:18 4.2 C 37 %
3579 03-12-2019 20:31:17 4.2 C 38 %
3580 03-12-2019 20:41:18 4.1 C 39 %
3581 03-12-2019 20:51:17 3.9 C 40 %
3582 03-12-2019 21:01:17 3.9 C 41 %
3583 03-12-2019 21:11:17 4 C 40 %
3584 03-12-2019 21:21:17 4 C 40 %
3585 03-12-2019 21:31:17 3.8 C 40 %
3586 03-12-2019 21:41:17 3.5 C 40 %
3587 03-12-2019 21:51:17 3.3 C 40 %
3588 03-12-2019 22:01:17 2.9 C 41 %
3589 03-12-2019 22:11:17 2.8 C 42 %
3590 03-12-2019 22:21:18 2.8 C 42 %
3591 03-12-2019 22:31:18 3.3 C 42 %
3592 03-12-2019 22:41:18 3.5 C 40 %
3593 03-12-2019 22:51:17 3.2 C 38 %
3594 03-12-2019 23:01:18 2.6 C 39 %
3595 03-12-2019 23:11:18 2.5 C 41 %
3596 03-12-2019 23:21:17 2.5 C 41 %
3597 03-12-2019 23:31:17 2.2 C 40 %
3598 03-12-2019 23:41:17 2.8 C 40 %
3599 03-12-2019 23:51:17 2.6 C 38 %
3600 04-12-2019 00:01:18 2.3 C 39 %
Sensor: Nr:Datum:Temp:Feuchte:
Aussen-T/F 3601 04-12-2019 00:11:18 1.7 C 41 %
3602 04-12-2019 00:21:17 1.3 C 42 %
3603 04-12-2019 00:31:17 0.9 C 43 %
3604 04-12-2019 00:41:17 0.4 C 43 %
3605 04-12-2019 00:51:17 0.6 C 45 %
3606 04-12-2019 01:01:18 0.2 C 44 %
3607 04-12-2019 01:11:18 0.2 C 45 %
3608 04-12-2019 01:21:17 0 C 44 %
3609 04-12-2019 01:31:17 -0.1 C 45 %
3610 04-12-2019 01:41:17 0.1 C 45 %
3611 04-12-2019 01:51:18 -0.3 C 45 %
3612 04-12-2019 02:01:17 -0.3 C 45 %
3613 04-12-2019 02:11:17 -0.2 C 45 %
3614 04-12-2019 02:21:17 -0.5 C 45 %
3615 04-12-2019 02:31:18 -0.4 C 45 %
3616 04-12-2019 02:41:18 0.1 C 45 %
3617 04-12-2019 02:51:17 0.3 C 45 %
3618 04-12-2019 03:01:18 0.6 C 45 %
3619 04-12-2019 03:11:18 0.9 C 45 %
3620 04-12-2019 03:21:17 0.9 C 45 %
3621 04-12-2019 03:31:17 1 C 44 %
3622 04-12-2019 03:41:17 1 C 44 %
3623 04-12-2019 03:51:17 1 C 44 %
3624 04-12-2019 04:01:18 0.8 C 45 %
3625 04-12-2019 04:11:18 0.9 C 45 %
Sensor: Nr:Datum:Temp:Feuchte:
Aussen-T/F 3626 04-12-2019 04:21:17 0.8 C 45 %
3627 04-12-2019 04:31:17 0.8 C 45 %
3628 04-12-2019 04:41:17 0.8 C 45 %
3629 04-12-2019 04:51:17 0.8 C 45 %
3630 04-12-2019 05:01:17 0.8 C 45 %
3631 04-12-2019 05:11:17 0.8 C 44 %
3632 04-12-2019 05:21:17 0.8 C 44 %
3633 04-12-2019 05:31:17 1 C 43 %
3634 04-12-2019 05:41:17 1 C 43 %
3635 04-12-2019 05:51:18 1 C 43 %
3636 04-12-2019 06:01:17 1 C 43 %
3637 04-12-2019 06:11:17 1.1 C 43 %
3638 04-12-2019 06:21:17 1.2 C 43 %
3639 04-12-2019 06:31:17 1.2 C 43 %
3640 04-12-2019 06:41:18 1.2 C 43 %
3641 04-12-2019 06:51:17 1.2 C 43 %
3642 04-12-2019 07:01:17 1.1 C 43 %
3643 04-12-2019 07:11:17 1.1 C 43 %
3644 04-12-2019 07:21:18 1.1 C 43 %
3645 04-12-2019 07:31:17 1 C 43 %
3646 04-12-2019 07:41:17 0.9 C 44 %
3647 04-12-2019 07:51:17 1 C 43 %
3648 04-12-2019 08:01:17 0.9 C 44 %
3649 04-12-2019 08:11:17 0.9 C 44 %
3650 04-12-2019 08:21:17 0.9 C 44 %
Sensor: Nr:Datum:Temp:Feuchte:
Aussen-T/F 3651 04-12-2019 08:31:17 0.9 C 44 %
3652 04-12-2019 08:41:17 1 C 42 %
3653 04-12-2019 08:51:17 1 C 42 %
3654 04-12-2019 09:01:18 1 C 42 %
3655 04-12-2019 09:11:18 1.2 C 42 %
3656 04-12-2019 09:21:18 1.2 C 42 %
3657 04-12-2019 09:31:17 1.2 C 41 %
3658 04-12-2019 09:41:17 1.2 C 41 %
3659 04-12-2019 09:51:17 1.4 C 41 %
3660 04-12-2019 10:01:17 1.5 C 41 %
3661 04-12-2019 10:11:18 1.4 C 39 %
3662 04-12-2019 10:21:17 1.3 C 38 %
3663 04-12-2019 10:31:17 1.1 C 37 %
3664 04-12-2019 10:41:17 1.1 C 37 %
3665 04-12-2019 10:51:18 1 C 38 %
3666 04-12-2019 11:01:17 1 C 38 %
3667 04-12-2019 11:11:17 1.1 C 39 %
3668 04-12-2019 11:21:17 1.1 C 39 %
3669 04-12-2019 11:31:18 1.1 C 40 %
3670 04-12-2019 11:41:18 1 C 40 %
3671 04-12-2019 11:51:17 1.1 C 41 %
3672 04-12-2019 12:01:17 1.2 C 41 %
3673 04-12-2019 12:11:17 1.3 C 41 %
3674 04-12-2019 12:21:18 1.3 C 41 %
3675 04-12-2019 12:31:17 1.5 C 41 %
Sensor: Nr:Datum:Temp:Feuchte:
Aussen-T/F 3676 04-12-2019 12:41:17 1.5 C 41 %
3677 04-12-2019 12:51:17 1.6 C 41 %
3678 04-12-2019 13:01:17 1.6 C 41 %
3679 04-12-2019 13:11:17 1.7 C 41 %
3680 04-12-2019 13:21:17 1.8 C 40 %
3681 04-12-2019 13:31:18 1.8 C 40 %
3682 04-12-2019 13:41:18 2.1 C 38 %
3683 04-12-2019 13:51:17 2.1 C 37 %
3684 04-12-2019 14:01:17 2.1 C 37 %
3685 04-12-2019 14:11:17 2.1 C 36 %
3686 04-12-2019 14:21:17 2.1 C 36 %
3687 04-12-2019 14:31:18 2 C 36 %
3688 04-12-2019 14:41:18 2.2 C 35 %
3689 04-12-2019 14:51:17 2.1 C 36 %
3690 04-12-2019 15:01:18 2 C 37 %
3691 04-12-2019 15:11:18 1.7 C 38 %
3692 04-12-2019 15:21:17 1.7 C 40 %
3693 04-12-2019 15:31:17 1.7 C 40 %
3694 04-12-2019 15:41:17 1.8 C 39 %
3695 04-12-2019 15:51:18 1.8 C 39 %
3696 04-12-2019 16:01:17 1.6 C 37 %
3697 04-12-2019 16:11:17 1.5 C 37 %
3698 04-12-2019 16:21:17 1.4 C 37 %
3699 04-12-2019 16:31:17 1.4 C 37 %
3700 04-12-2019 16:41:17 1.2 C 37 %
Sensor: Nr:Datum:Temp:Feuchte:
Aussen-T/F 3701 04-12-2019 16:51:17 1.1 C 36 %
3702 04-12-2019 17:01:17 1 C 37 %
3703 04-12-2019 17:11:17 1 C 37 %
3704 04-12-2019 17:21:18 1 C 36 %
3705 04-12-2019 17:31:17 0.9 C 38 %
3706 04-12-2019 17:41:17 0.6 C 38 %
3707 04-12-2019 17:51:18 0.7 C 39 %
3708 04-12-2019 18:01:17 0.8 C 38 %
3709 04-12-2019 18:11:17 0.3 C 39 %
3710 04-12-2019 18:21:17 0.4 C 40 %
3711 04-12-2019 18:31:17 0.6 C 40 %
3712 04-12-2019 18:41:17 -0.2 C 40 %
3713 04-12-2019 18:51:17 -0.5 C 41 %
3714 04-12-2019 19:01:17 -0.3 C 44 %
3715 04-12-2019 19:11:17 -0.7 C 42 %
3716 04-12-2019 19:21:17 -1.1 C 42 %
3717 04-12-2019 19:31:17 -1 C 44 %
3718 04-12-2019 19:41:17 -1.2 C 44 %
3719 04-12-2019 19:51:17 -1.4 C 43 %
3720 04-12-2019 20:01:17 -1.3 C 44 %
3721 04-12-2019 20:11:17 -1.1 C 45 %
3722 04-12-2019 20:21:17 -1.5 C 44 %
3723 04-12-2019 20:31:17 -1.5 C 44 %
3724 04-12-2019 20:41:17 -1.8 C 43 %
3725 04-12-2019 20:51:18 -1.9 C 44 %
Sensor: Nr:Datum:Temp:Feuchte:
Aussen-T/F 3726 04-12-2019 21:01:18 -1.9 C 44 %
3727 04-12-2019 21:11:18 -1.7 C 44 %
3728 04-12-2019 21:21:17 -2 C 43 %
3729 04-12-2019 21:31:17 -2 C 43 %
3730 04-12-2019 21:41:17 -2.4 C 43 %
3731 04-12-2019 21:51:17 -2.4 C 43 %
3732 04-12-2019 22:01:17 -2.5 C 43 %
3733 04-12-2019 22:11:17 -2.6 C 43 %
3734 04-12-2019 22:21:17 -2.7 C 44 %
3735 04-12-2019 22:31:18 -2.8 C 43 %
3736 04-12-2019 22:41:18 -2.7 C 43 %
3737 04-12-2019 22:51:17 -2.5 C 43 %
3738 04-12-2019 23:01:17 -2.6 C 42 %
3739 04-12-2019 23:11:17 -2.9 C 42 %
3740 04-12-2019 23:21:17 -2.7 C 42 %
3741 04-12-2019 23:31:17 -2.7 C 42 %
3742 04-12-2019 23:41:17 -2.9 C 41 %
3743 04-12-2019 23:51:18 -2.9 C 42 %
3744 05-12-2019 00:01:17 -3 C 41 %
3745 05-12-2019 00:11:17 -3 C 41 %
3746 05-12-2019 00:21:17 -3.1 C 41 %
3747 05-12-2019 00:31:18 -2.8 C 41 %
3748 05-12-2019 00:41:18 -2.8 C 41 %
3749 05-12-2019 00:51:17 -2.9 C 41 %
3750 05-12-2019 01:01:17 -2.9 C 41 %
Sensor: Nr:Datum:Temp:Feuchte:
Aussen-T/F 3751 05-12-2019 01:11:17 -3.2 C 41 %
3752 05-12-2019 01:21:17 -2.5 C 43 %
3753 05-12-2019 01:31:18 -2.6 C 43 %
3754 05-12-2019 01:41:18 -2.7 C 43 %
3755 05-12-2019 01:51:17 -2.6 C 43 %
3756 05-12-2019 02:01:17 -2.6 C 42 %
3757 05-12-2019 02:11:18 -2.8 C 41 %
3758 05-12-2019 02:21:17 -3 C 41 %
3759 05-12-2019 02:31:17 -3.2 C 41 %
3760 05-12-2019 02:41:17 -3.2 C 41 %
3761 05-12-2019 02:51:17 -3.2 C 41 %
3762 05-12-2019 03:01:17 -3.4 C 40 %
3763 05-12-2019 03:11:17 -3.5 C 40 %
3764 05-12-2019 03:21:17 -3.3 C 41 %
3765 05-12-2019 03:31:17 -3.2 C 41 %
3766 05-12-2019 03:41:17 -3.6 C 40 %
3767 05-12-2019 03:51:17 -3 C 43 %
3768 05-12-2019 04:01:17 -2.7 C 43 %
3769 05-12-2019 04:11:17 -2.7 C 43 %
3770 05-12-2019 04:21:17 -2.7 C 43 %
3771 05-12-2019 04:31:18 -2.9 C 42 %
3772 05-12-2019 04:41:18 -3.3 C 40 %
3773 05-12-2019 04:51:17 -2.9 C 42 %
3774 05-12-2019 05:01:17 -2.8 C 43 %
3775 05-12-2019 05:11:17 -2.8 C 42 %
Sensor: Nr:Datum:Temp:Feuchte:
Aussen-T/F 3776 05-12-2019 05:21:17 -2.7 C 43 %
3777 05-12-2019 05:31:17 -2.7 C 43 %
3778 05-12-2019 05:41:18 -2.5 C 43 %
3779 05-12-2019 05:51:17 -2.5 C 43 %
3780 05-12-2019 06:01:17 -2.6 C 43 %
3781 05-12-2019 06:11:17 -2.7 C 43 %
3782 05-12-2019 06:21:17 -2.9 C 43 %
3783 05-12-2019 06:31:17 -2.9 C 43 %
3784 05-12-2019 06:41:17 -3 C 42 %
3785 05-12-2019 06:51:17 -2.9 C 43 %
3786 05-12-2019 07:01:17 -2.9 C 42 %
3787 05-12-2019 07:11:17 -2.9 C 42 %
3788 05-12-2019 07:21:17 -3.2 C 42 %
3789 05-12-2019 07:31:17 -3.1 C 42 %
3790 05-12-2019 07:41:18 -2.9 C 42 %
3791 05-12-2019 07:51:17 -2.9 C 42 %
3792 05-12-2019 08:01:17 -3 C 42 %
3793 05-12-2019 08:11:17 -2.8 C 43 %
3794 05-12-2019 08:21:18 -2.9 C 42 %
3795 05-12-2019 08:31:17 -2.8 C 42 %
3796 05-12-2019 08:41:17 -3 C 42 %
3797 05-12-2019 08:51:17 -3 C 42 %
3798 05-12-2019 09:01:18 -2.7 C 43 %
3799 05-12-2019 09:11:18 -2.6 C 43 %
3800 05-12-2019 09:21:17 -2.6 C 42 %
Sensor: Nr:Datum:Temp:Feuchte:
Aussen-T/F 3801 05-12-2019 09:31:17 -2.6 C 42 %
3802 05-12-2019 09:41:17 -2.5 C 43 %
3803 05-12-2019 09:51:17 -2.4 C 42 %
3804 05-12-2019 10:01:18 -2.3 C 42 %
3805 05-12-2019 10:11:18 -2.4 C 42 %
3806 05-12-2019 10:21:17 -2.1 C 43 %
3807 05-12-2019 10:31:17 -1.7 C 43 %
3808 05-12-2019 10:41:17 -2 C 42 %
3809 05-12-2019 10:51:18 -1.7 C 42 %
3810 05-12-2019 11:01:17 -1.7 C 43 %
3811 05-12-2019 11:11:17 -1.4 C 42 %
3812 05-12-2019 11:21:17 -1.2 C 41 %
3813 05-12-2019 11:31:18 -1.2 C 41 %
3814 05-12-2019 11:41:18 -0.7 C 42 %
3815 05-12-2019 11:51:17 -0.9 C 42 %
3816 05-12-2019 12:01:18 -1 C 41 %
3817 05-12-2019 12:11:18 -0.8 C 41 %
3818 05-12-2019 12:21:17 -0.6 C 41 %
3819 05-12-2019 12:31:17 -0.8 C 40 %
3820 05-12-2019 12:41:17 -0.9 C 40 %
3821 05-12-2019 12:51:18 -0.6 C 41 %
3822 05-12-2019 13:01:17 -0.5 C 40 %
3823 05-12-2019 13:11:17 -0.6 C 40 %
3824 05-12-2019 13:21:17 -0.4 C 41 %
3825 05-12-2019 13:31:17 -0.4 C 41 %
Sensor: Nr:Datum:Temp:Feuchte:
Aussen-T/F 3826 05-12-2019 13:41:17 -0.2 C 41 %
3827 05-12-2019 13:51:17 0.1 C 40 %
3828 05-12-2019 14:01:18 0.1 C 40 %
3829 05-12-2019 14:11:18 0.2 C 40 %
3830 05-12-2019 14:21:17 0.2 C 40 %
3831 05-12-2019 14:31:17 0.2 C 40 %
3832 05-12-2019 14:41:17 0.2 C 40 %
3833 05-12-2019 14:51:17 0.2 C 41 %
3834 05-12-2019 15:01:17 0.1 C 41 %
3835 05-12-2019 15:11:17 0 C 41 %
3836 05-12-2019 15:21:17 -0.1 C 42 %
3837 05-12-2019 15:31:17 -0.1 C 43 %
3838 05-12-2019 15:41:17 -0.1 C 44 %
3839 05-12-2019 15:51:18 -0.1 C 44 %
3840 05-12-2019 16:01:17 -0.4 C 44 %
3841 05-12-2019 16:11:17 -0.5 C 44 %
3842 05-12-2019 16:21:17 -0.7 C 45 %
3843 05-12-2019 16:31:18 -0.8 C 44 %
3844 05-12-2019 16:41:18 -1 C 44 %
3845 05-12-2019 16:51:17 -1 C 44 %
3846 05-12-2019 17:01:17 -1.2 C 44 %
3847 05-12-2019 17:11:17 -1.1 C 45 %
3848 05-12-2019 17:21:18 -1.2 C 45 %
3849 05-12-2019 17:31:17 -1.3 C 44 %
3850 05-12-2019 17:41:17 -1.7 C 44 %
Sensor: Nr:Datum:Temp:Feuchte:
Aussen-T/F 3851 05-12-2019 17:51:17 -1.6 C 44 %
3852 05-12-2019 18:01:18 -1.8 C 43 %
3853 05-12-2019 18:11:18 -2 C 43 %
3854 05-12-2019 18:21:17 -2 C 43 %
3855 05-12-2019 18:31:17 -2 C 43 %
3856 05-12-2019 18:41:17 -2.2 C 43 %
3857 05-12-2019 18:51:18 -2.5 C 42 %
3858 05-12-2019 19:01:17 -2.1 C 43 %
3859 05-12-2019 19:11:17 -2.1 C 44 %
3860 05-12-2019 19:21:17 -2.6 C 42 %
3861 05-12-2019 19:31:17 -2.9 C 41 %
3862 05-12-2019 19:41:17 -2.6 C 42 %
3863 05-12-2019 19:51:18 -1.9 C 43 %
3864 05-12-2019 20:01:17 -1.5 C 44 %
3865 05-12-2019 20:11:17 -1.6 C 43 %
3866 05-12-2019 20:21:17 -1.5 C 43 %
3867 05-12-2019 20:31:17 -1.9 C 42 %
3868 05-12-2019 20:41:17 -2 C 42 %
3869 05-12-2019 20:51:18 -2.1 C 42 %
3870 05-12-2019 21:01:17 -2.3 C 42 %
3871 05-12-2019 21:11:17 -2.6 C 42 %
3872 05-12-2019 21:21:17 -2.1 C 43 %
3873 05-12-2019 21:31:17 -2 C 43 %
3874 05-12-2019 21:41:17 -2 C 43 %
3875 05-12-2019 21:51:17 -2 C 43 %
Sensor: Nr:Datum:Temp:Feuchte:
Aussen-T/F 3876 05-12-2019 22:01:17 -2.3 C 42 %
3877 05-12-2019 22:11:17 -2.3 C 42 %
3878 05-12-2019 22:21:18 -2.2 C 42 %
3879 05-12-2019 22:31:17 -2.4 C 42 %
3880 05-12-2019 22:41:17 -2.4 C 42 %
3881 05-12-2019 22:51:17 -2.3 C 42 %
3882 05-12-2019 23:01:17 -2.6 C 41 %
3883 05-12-2019 23:11:17 -2.7 C 41 %
3884 05-12-2019 23:21:18 -2.7 C 42 %
3885 05-12-2019 23:31:17 -3.1 C 41 %
3886 05-12-2019 23:41:17 -3.3 C 41 %
3887 05-12-2019 23:51:17 -3.2 C 42 %
3888 06-12-2019 00:01:18 -2.9 C 42 %
3889 06-12-2019 00:11:18 -3.4 C 40 %
3890 06-12-2019 00:21:17 -3.8 C 40 %
3891 06-12-2019 00:31:17 -3.4 C 42 %
3892 06-12-2019 00:41:17 -3.2 C 42 %
3893 06-12-2019 00:51:17 -2.7 C 43 %
3894 06-12-2019 01:01:17 -2.4 C 43 %
3895 06-12-2019 01:11:17 -2.1 C 43 %
3896 06-12-2019 01:21:17 -2 C 41 %
3897 06-12-2019 01:31:18 -1.8 C 42 %
3898 06-12-2019 01:41:18 -1.6 C 43 %
3899 06-12-2019 01:51:17 -1.6 C 43 %
3900 06-12-2019 02:01:17 -1.4 C 42 %
Sensor: Nr:Datum:Temp:Feuchte:
Aussen-T/F 3901 06-12-2019 02:11:17 -1.4 C 40 %
3902 06-12-2019 02:21:17 -1.6 C 40 %
3903 06-12-2019 02:31:17 -1.5 C 40 %
3904 06-12-2019 02:41:17 -1.7 C 39 %
3905 06-12-2019 02:51:17 -1.6 C 40 %
3906 06-12-2019 03:01:18 -1.4 C 39 %
3907 06-12-2019 03:11:18 -1.2 C 39 %
3908 06-12-2019 03:21:17 -1 C 38 %
3909 06-12-2019 03:31:17 -1 C 37 %
3910 06-12-2019 03:41:17 -1 C 38 %
3911 06-12-2019 03:51:17 -1.1 C 37 %
3912 06-12-2019 04:01:17 -1.2 C 38 %
3913 06-12-2019 04:11:17 -1.3 C 37 %
3914 06-12-2019 04:21:17 -1.3 C 38 %
3915 06-12-2019 04:31:17 -1.1 C 38 %
3916 06-12-2019 04:41:17 -1.1 C 38 %
3917 06-12-2019 04:51:17 -0.8 C 38 %
3918 06-12-2019 05:01:17 -1 C 38 %
3919 06-12-2019 05:11:17 -0.8 C 37 %
3920 06-12-2019 05:21:17 -0.9 C 36 %
3921 06-12-2019 05:31:18 -1 C 37 %
3922 06-12-2019 05:41:18 -0.8 C 38 %
3923 06-12-2019 05:51:17 -0.6 C 36 %
3924 06-12-2019 06:01:17 -0.6 C 35 %
3925 06-12-2019 06:11:17 -0.6 C 36 %
Sensor: Nr:Datum:Temp:Feuchte:
Aussen-T/F 3926 06-12-2019 06:21:17 -0.5 C 36 %
3927 06-12-2019 06:31:17 -0.5 C 35 %
3928 06-12-2019 06:41:17 -0.4 C 36 %
3929 06-12-2019 06:51:18 -0.4 C 37 %
3930 06-12-2019 07:01:17 -0.4 C 38 %
3931 06-12-2019 07:11:17 -0.4 C 38 %
3932 06-12-2019 07:21:17 -0.1 C 37 %
3933 06-12-2019 07:31:17 0 C 36 %
3934 06-12-2019 07:41:17 0.2 C 34 %
3935 06-12-2019 07:51:18 0.4 C 32 %
3936 06-12-2019 08:01:17 0.4 C 32 %
3937 06-12-2019 08:11:17 0.4 C 32 %
3938 06-12-2019 08:21:17 0.4 C 35 %
3939 06-12-2019 08:31:17 0.6 C 32 %
3940 06-12-2019 08:41:17 0.5 C 35 %
3941 06-12-2019 08:51:18 0.5 C 35 %
3942 06-12-2019 09:01:17 0.6 C 36 %
3943 06-12-2019 09:11:17 0.8 C 36 %
3944 06-12-2019 09:21:17 1.2 C 33 %
3945 06-12-2019 09:31:17 1.4 C 33 %
3946 06-12-2019 09:41:17 1.5 C 33 %
3947 06-12-2019 09:51:17 1.7 C 34 %
3948 06-12-2019 10:01:17 1.8 C 33 %
3949 06-12-2019 10:11:17 1.8 C 35 %
3950 06-12-2019 10:21:18 1.9 C 36 %
Sensor: Nr:Datum:Temp:Feuchte:
Aussen-T/F 3951 06-12-2019 10:31:17 1.9 C 36 %
3952 06-12-2019 10:41:17 2.4 C 35 %
3953 06-12-2019 10:51:17 2.5 C 35 %
3954 06-12-2019 11:01:18 2.7 C 35 %
3955 06-12-2019 11:11:18 3.2 C 32 %
3956 06-12-2019 11:21:17 3.3 C 32 %
3957 06-12-2019 11:31:17 3.5 C 32 %
3958 06-12-2019 11:41:17 3.5 C 32 %
3959 06-12-2019 11:51:17 3.5 C 33 %
3960 06-12-2019 12:01:17 3.6 C 33 %
3961 06-12-2019 12:11:17 3.6 C 33 %
3962 06-12-2019 12:21:17 3.6 C 35 %
3963 06-12-2019 12:31:18 3.7 C 37 %
3964 06-12-2019 12:41:18 3.7 C 39 %
3965 06-12-2019 12:51:17 3.7 C 40 %
3966 06-12-2019 13:01:17 3.8 C 39 %
3967 06-12-2019 13:11:17 3.9 C 38 %
3968 06-12-2019 13:21:17 4 C 36 %
3969 06-12-2019 13:31:18 4.2 C 35 %
3970 06-12-2019 13:41:18 4.2 C 35 %
3971 06-12-2019 13:51:17 4.1 C 36 %
3972 06-12-2019 14:01:17 4.1 C 39 %
3973 06-12-2019 14:11:17 4.2 C 40 %
3974 06-12-2019 14:21:17 4.2 C 38 %
3975 06-12-2019 14:31:18 4.2 C 38 %
Sensor: Nr:Datum:Temp:Feuchte:
Aussen-T/F 3976 06-12-2019 14:41:18 4.4 C 38 %
3977 06-12-2019 14:51:17 4.4 C 39 %
3978 06-12-2019 15:01:17 4.3 C 38 %
3979 06-12-2019 15:11:17 4.4 C 38 %
3980 06-12-2019 15:21:17 4.7 C 36 %
3981 06-12-2019 15:31:17 4.5 C 37 %
3982 06-12-2019 15:41:17 4.5 C 37 %
3983 06-12-2019 15:51:18 4.6 C 37 %
3984 06-12-2019 16:01:18 4.8 C 38 %
3985 06-12-2019 16:11:18 5 C 34 %
3986 06-12-2019 16:21:17 5.2 C 32 %
3987 06-12-2019 16:31:17 5.1 C 32 %
3988 06-12-2019 16:41:17 5.3 C 32 %
3989 06-12-2019 16:51:17 5.2 C 31 %
3990 06-12-2019 17:01:17 5.2 C 31 %
3991 06-12-2019 17:11:17 5.3 C 31 %
3992 06-12-2019 17:21:17 5.3 C 30 %
3993 06-12-2019 17:31:18 5.5 C 30 %
3994 06-12-2019 17:41:18 5.6 C 29 %
3995 06-12-2019 17:51:17 5.5 C 30 %
3996 06-12-2019 18:01:17 5.9 C 29 %
3997 06-12-2019 18:11:17 6 C 28 %
3998 06-12-2019 18:21:18 6.2 C 29 %
3999 06-12-2019 18:31:17 6.1 C 28 %
4000 06-12-2019 18:41:17 6.1 C 29 %
Sensor: Nr:Datum:Temp:Feuchte:
Aussen-T/F 4001 06-12-2019 18:51:17 5.9 C 30 %
4002 06-12-2019 19:01:17 5.6 C 31 %
4003 06-12-2019 19:11:17 5.8 C 32 %
4004 06-12-2019 19:21:17 5.9 C 31 %
4005 06-12-2019 19:31:17 6.2 C 30 %
4006 06-12-2019 19:41:17 6.5 C 28 %
4007 06-12-2019 19:51:17 6.5 C 28 %
4008 06-12-2019 20:01:17 6.8 C 28 %
4009 06-12-2019 20:11:17 6.7 C 28 %
4010 06-12-2019 20:21:17 6.8 C 28 %
4011 06-12-2019 20:31:17 6.7 C 28 %
4012 06-12-2019 20:41:17 6.7 C 28 %
4013 06-12-2019 20:51:18 6.7 C 28 %
4014 06-12-2019 21:01:17 6.8 C 27 %
4015 06-12-2019 21:11:17 6.7 C 28 %
4016 06-12-2019 21:21:17 6.7 C 28 %
4017 06-12-2019 21:31:17 6.6 C 28 %
4018 06-12-2019 21:41:17 6.5 C 28 %
4019 06-12-2019 21:51:17 6.5 C 29 %
4020 06-12-2019 22:01:17 6.6 C 29 %
4021 06-12-2019 22:11:17 6.7 C 28 %
4022 06-12-2019 22:21:17 6.7 C 28 %
4023 06-12-2019 22:31:17 6.7 C 28 %
4024 06-12-2019 22:41:17 6.9 C 28 %
4025 06-12-2019 22:51:17 6.9 C 27 %
Sensor: Nr:Datum:Temp:Feuchte:
Aussen-T/F 4026 06-12-2019 23:01:18 7 C 27 %
4027 06-12-2019 23:11:18 6.9 C 28 %
4028 06-12-2019 23:21:17 6.8 C 29 %
4029 06-12-2019 23:31:17 6.8 C 29 %
4030 06-12-2019 23:41:17 6.9 C 29 %
4031 06-12-2019 23:51:18 6.8 C 30 %
4032 07-12-2019 00:01:17 6.9 C 30 %
4033 07-12-2019 00:11:17 7 C 28 %
4034 07-12-2019 00:21:17 7.2 C 28 %
4035 07-12-2019 00:31:17 7.2 C 28 %
4036 07-12-2019 00:41:17 7.2 C 28 %
4037 07-12-2019 00:51:17 7.4 C 28 %
4038 07-12-2019 01:01:17 7.4 C 28 %
4039 07-12-2019 01:11:17 7.6 C 28 %
4040 07-12-2019 01:21:17 7.7 C 28 %
4041 07-12-2019 01:31:18 7.8 C 28 %
4042 07-12-2019 01:41:18 7.6 C 29 %
4043 07-12-2019 01:51:17 7.6 C 29 %
4044 07-12-2019 02:01:17 7.5 C 30 %
4045 07-12-2019 02:11:17 7.7 C 31 %
4046 07-12-2019 02:21:17 7.5 C 31 %
4047 07-12-2019 02:31:17 7.1 C 35 %
4048 07-12-2019 02:41:17 7.2 C 38 %
4049 07-12-2019 02:51:17 7.3 C 35 %
4050 07-12-2019 03:01:17 7.4 C 35 %
Sensor: Nr:Datum:Temp:Feuchte:
Aussen-T/F 4051 07-12-2019 03:11:17 7.6 C 33 %
4052 07-12-2019 03:21:17 8.4 C 30 %
4053 07-12-2019 03:31:17 8.5 C 29 %
4054 07-12-2019 03:41:17 8.7 C 28 %
4055 07-12-2019 03:51:17 9 C 27 %
4056 07-12-2019 04:01:18 8.4 C 29 %
4057 07-12-2019 04:11:18 8.5 C 29 %
4058 07-12-2019 04:21:17 8 C 30 %
4059 07-12-2019 04:31:17 7.9 C 30 %
4060 07-12-2019 04:41:17 8 C 30 %
4061 07-12-2019 04:51:17 8 C 30 %
4062 07-12-2019 05:01:17 7.7 C 30 %
4063 07-12-2019 05:11:17 8 C 30 %
4064 07-12-2019 05:21:17 8 C 30 %
4065 07-12-2019 05:31:17 7.8 C 31 %
4066 07-12-2019 05:41:17 8.2 C 30 %
4067 07-12-2019 05:51:18 7.2 C 31 %
4068 07-12-2019 06:01:18 7.6 C 30 %
4069 07-12-2019 06:11:18 8.7 C 26 %
4070 07-12-2019 06:21:17 8.6 C 26 %
4071 07-12-2019 06:31:18 8.2 C 26 %
4072 07-12-2019 06:41:18 8.1 C 26 %
4073 07-12-2019 06:51:17 7.5 C 27 %
4074 07-12-2019 07:01:17 6.8 C 30 %
4075 07-12-2019 07:11:17 7.1 C 28 %
Sensor: Nr:Datum:Temp:Feuchte:
Aussen-T/F 4076 07-12-2019 07:21:17 7.3 C 27 %
4077 07-12-2019 07:31:17 6.8 C 30 %
4078 07-12-2019 07:41:17 6.3 C 31 %
4079 07-12-2019 07:51:18 7.8 C 28 %
4080 07-12-2019 08:01:18 8 C 27 %
4081 07-12-2019 08:11:18 7.9 C 28 %
4082 07-12-2019 08:21:17 8.1 C 28 %
4083 07-12-2019 08:31:17 8.1 C 27 %
4084 07-12-2019 08:41:17 8.3 C 28 %
4085 07-12-2019 08:51:17 8.4 C 27 %
4086 07-12-2019 09:01:17 8.4 C 27 %
4087 07-12-2019 09:11:17 8.3 C 28 %
4088 07-12-2019 09:21:17 8.2 C 28 %
4089 07-12-2019 09:31:17 8.1 C 29 %
4090 07-12-2019 09:41:17 8.3 C 28 %
4091 07-12-2019 09:51:18 8.6 C 27 %
4092 07-12-2019 10:01:17 8.6 C 27 %
4093 07-12-2019 10:11:17 8.8 C 27 %
4094 07-12-2019 10:21:17 9 C 26 %
4095 07-12-2019 10:31:17 9.1 C 25 %
4096 07-12-2019 10:41:17 9.1 C 26 %
4097 07-12-2019 10:51:18 9.2 C 25 %
4098 07-12-2019 11:01:18 9 C 26 %
4099 07-12-2019 11:11:18 8.4 C 29 %
4100 07-12-2019 11:21:17 8.3 C 30 %
Sensor: Nr:Datum:Temp:Feuchte:
Aussen-T/F 4101 07-12-2019 11:31:17 8.4 C 30 %
4102 07-12-2019 11:41:17 8.5 C 30 %
4103 07-12-2019 11:51:17 8.6 C 28 %
4104 07-12-2019 12:01:17 8.8 C 27 %
4105 07-12-2019 12:11:17 8.9 C 27 %
4106 07-12-2019 12:21:17 9.2 C 25 %
4107 07-12-2019 12:31:18 9.4 C 25 %
4108 07-12-2019 12:41:18 9.5 C 25 %
4109 07-12-2019 12:51:17 9.5 C 25 %
4110 07-12-2019 13:01:17 9.7 C 23 %
4111 07-12-2019 13:11:17 10 C 20 %
4112 07-12-2019 13:21:17 9.8 C 20 %
4113 07-12-2019 13:31:17 9.8 C 20 %
4114 07-12-2019 13:41:17 9.9 C 20 %
4115 07-12-2019 13:51:17 9.9 C 20 %
4116 07-12-2019 14:01:17 9.8 C 20 %
4117 07-12-2019 14:11:17 9.7 C 20 %
4118 07-12-2019 14:21:17 9.9 C 20 %
4119 07-12-2019 14:31:18 9.9 C 20 %
4120 07-12-2019 14:41:18 9.9 C 20 %
4121 07-12-2019 14:51:17 9.9 C 20 %
4122 07-12-2019 15:01:17 9.9 C 20 %
4123 07-12-2019 15:11:17 9.7 C 21 %
4124 07-12-2019 15:21:17 9.6 C 21 %
4125 07-12-2019 15:31:17 9.7 C 21 %
Sensor: Nr:Datum:Temp:Feuchte:
Aussen-T/F 4126 07-12-2019 15:41:17 9.6 C 20 %
4127 07-12-2019 15:51:17 9.4 C 23 %
4128 07-12-2019 16:01:17 9 C 25 %
4129 07-12-2019 16:11:17 8.9 C 25 %
4130 07-12-2019 16:21:18 8.8 C 25 %
4131 07-12-2019 16:31:17 8.6 C 26 %
4132 07-12-2019 16:41:18 8.5 C 26 %
4133 07-12-2019 16:51:17 8.2 C 27 %
4134 07-12-2019 17:01:17 8.1 C 29 %
4135 07-12-2019 17:11:17 8.2 C 28 %
4136 07-12-2019 17:21:17 8.1 C 28 %
4137 07-12-2019 17:31:18 8.2 C 28 %
4138 07-12-2019 17:41:18 8.3 C 27 %
4139 07-12-2019 17:51:17 8.1 C 27 %
4140 07-12-2019 18:01:18 8 C 28 %
4141 07-12-2019 18:11:18 8 C 27 %
4142 07-12-2019 18:21:17 7.8 C 28 %
4143 07-12-2019 18:31:17 7.7 C 29 %
4144 07-12-2019 18:41:17 7.6 C 30 %
4145 07-12-2019 18:51:17 7.6 C 30 %
4146 07-12-2019 19:01:17 7.5 C 31 %
4147 07-12-2019 19:11:17 7.5 C 31 %
4148 07-12-2019 19:21:17 7.5 C 32 %
4149 07-12-2019 19:31:17 7.7 C 31 %
4150 07-12-2019 19:41:17 7.6 C 30 %
Sensor: Nr:Datum:Temp:Feuchte:
Aussen-T/F 4151 07-12-2019 19:51:17 7.7 C 30 %
4152 07-12-2019 20:01:18 7.4 C 30 %
4153 07-12-2019 20:11:18 7.3 C 31 %
4154 07-12-2019 20:21:17 7.3 C 31 %
4155 07-12-2019 20:31:17 7.4 C 30 %
4156 07-12-2019 20:41:17 7.6 C 30 %
4157 07-12-2019 20:51:17 7.6 C 30 %
4158 07-12-2019 21:01:17 7.5 C 30 %
4159 07-12-2019 21:11:17 7.6 C 30 %
4160 07-12-2019 21:21:17 8 C 28 %
4161 07-12-2019 21:31:17 8.1 C 28 %
4162 07-12-2019 21:41:17 8.2 C 28 %
4163 07-12-2019 21:51:17 7.9 C 28 %
4164 07-12-2019 22:01:17 8.2 C 28 %
4165 07-12-2019 22:11:17 8.1 C 27 %
4166 07-12-2019 22:21:17 7.8 C 28 %
4167 07-12-2019 22:31:18 7.7 C 30 %
4168 07-12-2019 22:41:18 7.6 C 30 %
4169 07-12-2019 22:51:17 7.5 C 31 %
4170 07-12-2019 23:01:17 7.4 C 32 %
4171 07-12-2019 23:11:17 7.6 C 31 %
4172 07-12-2019 23:21:17 7.6 C 32 %
4173 07-12-2019 23:31:17 7.5 C 32 %
4174 07-12-2019 23:41:17 7.7 C 31 %
4175 07-12-2019 23:51:18 7.9 C 28 %
Sensor: Nr:Datum:Temp:Feuchte:
G-T/H 1 09-11-2019 00:09:17 11.1 C 72 %
2 09-11-2019 00:19:17 11.1 C 72 %
3 09-11-2019 00:29:17 11.1 C 72 %
4 09-11-2019 00:39:17 11.1 C 72 %
5 09-11-2019 00:48:17 11.1 C 72 %
6 09-11-2019 00:58:17 11.1 C 72 %
7 09-11-2019 01:08:17 11.1 C 72 %
8 09-11-2019 01:18:17 11.1 C 72 %
9 09-11-2019 01:28:17 11.1 C 72 %
10 09-11-2019 01:38:17 11.1 C 72 %
11 09-11-2019 01:49:17 11 C 72 %
12 09-11-2019 01:59:17 11 C 72 %
13 09-11-2019 02:09:18 11 C 72 %
14 09-11-2019 02:19:17 11 C 72 %
15 09-11-2019 02:29:17 11 C 72 %
16 09-11-2019 02:39:17 11 C 72 %
17 09-11-2019 02:49:17 11 C 72 %
18 09-11-2019 02:59:17 11 C 72 %
19 09-11-2019 03:09:18 11 C 72 %
20 09-11-2019 03:19:17 11 C 72 %
21 09-11-2019 03:29:17 11 C 72 %
22 09-11-2019 03:39:17 11 C 72 %
23 09-11-2019 03:49:17 11 C 72 %
24 09-11-2019 03:59:17 11 C 72 %
25 09-11-2019 04:09:18 11 C 72 %
Sensor: Nr:Datum:Temp:Feuchte:
G-T/H 26 09-11-2019 04:19:17 11 C 72 %
27 09-11-2019 04:29:17 11 C 72 %
28 09-11-2019 04:39:17 11 C 72 %
29 09-11-2019 04:49:17 11 C 72 %
30 09-11-2019 04:59:17 10.9 C 73 %
31 09-11-2019 05:09:17 10.9 C 73 %
32 09-11-2019 05:19:17 10.9 C 73 %
33 09-11-2019 05:29:17 10.9 C 73 %
34 09-11-2019 05:39:17 10.8 C 73 %
35 09-11-2019 05:49:17 10.9 C 73 %
36 09-11-2019 05:59:17 10.9 C 73 %
37 09-11-2019 06:09:17 10.8 C 73 %
38 09-11-2019 06:19:17 10.8 C 73 %
39 09-11-2019 06:29:17 10.8 C 73 %
40 09-11-2019 06:39:17 10.8 C 73 %
41 09-11-2019 06:49:17 10.8 C 72 %
42 09-11-2019 06:59:17 10.8 C 72 %
43 09-11-2019 07:09:17 10.7 C 72 %
44 09-11-2019 07:19:17 10.7 C 71 %
45 09-11-2019 07:29:17 10.7 C 71 %
46 09-11-2019 07:39:17 10.7 C 71 %
47 09-11-2019 07:49:18 10.6 C 71 %
48 09-11-2019 07:59:18 10.6 C 71 %
49 09-11-2019 08:09:17 10.6 C 70 %
50 09-11-2019 08:19:17 10.6 C 70 %
Sensor: Nr:Datum:Temp:Feuchte:
G-T/H 51 09-11-2019 08:29:17 10.5 C 70 %
52 09-11-2019 08:39:17 10.5 C 70 %
53 09-11-2019 08:49:18 10.5 C 70 %
54 09-11-2019 08:59:18 10.5 C 70 %
55 09-11-2019 09:09:17 10.5 C 70 %
56 09-11-2019 09:19:17 10.5 C 70 %
57 09-11-2019 09:29:17 10.5 C 70 %
58 09-11-2019 09:39:17 10 C 68 %
59 09-11-2019 09:49:18 9.3 C 67 %
60 09-11-2019 09:59:18 8.8 C 67 %
61 09-11-2019 10:09:17 8.6 C 67 %
62 09-11-2019 10:19:17 8.6 C 67 %
63 09-11-2019 10:29:17 8.6 C 67 %
64 09-11-2019 10:39:17 8.6 C 67 %
65 09-11-2019 10:49:17 8.5 C 66 %
66 09-11-2019 10:59:17 8.5 C 66 %
67 09-11-2019 11:09:17 8.7 C 67 %
68 09-11-2019 11:19:17 8.9 C 67 %
69 09-11-2019 11:29:17 8.9 C 67 %
70 09-11-2019 11:39:17 8.9 C 67 %
71 09-11-2019 11:49:18 8.9 C 67 %
72 09-11-2019 11:59:18 8.9 C 67 %
73 09-11-2019 12:09:17 11.9 C 67 %
74 09-11-2019 12:19:17 12.1 C 66 %
75 09-11-2019 12:29:17 12.2 C 66 %
Sensor: Nr:Datum:Temp:Feuchte:
G-T/H 76 09-11-2019 12:39:17 12.4 C 66 %
77 09-11-2019 12:49:18 12.5 C 67 %
78 09-11-2019 12:59:18 12.7 C 67 %
79 09-11-2019 13:09:17 12.8 C 67 %
80 09-11-2019 13:19:17 12.8 C 67 %
81 09-11-2019 13:29:17 13 C 66 %
82 09-11-2019 13:39:17 13 C 66 %
83 09-11-2019 13:49:17 13.1 C 66 %
84 09-11-2019 13:59:17 13.1 C 66 %
85 09-11-2019 14:09:17 13.2 C 66 %
86 09-11-2019 14:19:17 13 C 64 %
87 09-11-2019 14:29:17 13 C 64 %
88 09-11-2019 14:39:17 12.3 C 63 %
89 09-11-2019 14:49:17 12.4 C 64 %
90 09-11-2019 14:59:17 12.4 C 64 %
91 09-11-2019 15:09:17 12.2 C 64 %
92 09-11-2019 15:19:17 12.1 C 64 %
93 09-11-2019 15:29:17 12 C 65 %
94 09-11-2019 15:39:17 11.9 C 66 %
95 09-11-2019 15:49:17 11.8 C 66 %
96 09-11-2019 15:59:17 11.8 C 67 %
97 09-11-2019 16:09:18 11.7 C 67 %
98 09-11-2019 16:19:17 11.7 C 67 %
99 09-11-2019 16:29:17 11.7 C 67 %
100 09-11-2019 16:39:17 11.6 C 68 %
Sensor: Nr:Datum:Temp:Feuchte:
G-T/H 101 09-11-2019 16:49:17 11.6 C 68 %
102 09-11-2019 16:59:17 11.5 C 68 %
103 09-11-2019 17:09:17 11.5 C 68 %
104 09-11-2019 17:19:17 11.5 C 68 %
105 09-11-2019 17:29:17 11.5 C 69 %
106 09-11-2019 17:39:17 11.4 C 69 %
107 09-11-2019 17:49:18 11.5 C 69 %
108 09-11-2019 17:59:18 11.4 C 69 %
109 09-11-2019 18:09:17 11.4 C 69 %
110 09-11-2019 18:19:17 11.4 C 69 %
111 09-11-2019 18:29:17 11.4 C 69 %
112 09-11-2019 18:39:17 11.4 C 69 %
113 09-11-2019 18:49:17 11.3 C 69 %
114 09-11-2019 18:59:17 11.4 C 69 %
115 09-11-2019 19:09:17 11.3 C 69 %
116 09-11-2019 19:19:17 11.3 C 69 %
117 09-11-2019 19:29:17 11.3 C 69 %
118 09-11-2019 19:39:17 11.2 C 69 %
119 09-11-2019 19:49:17 11.3 C 69 %
120 09-11-2019 19:59:17 11.3 C 69 %
121 09-11-2019 20:09:18 11.2 C 69 %
122 09-11-2019 20:19:17 11.2 C 69 %
123 09-11-2019 20:29:17 11.2 C 69 %
124 09-11-2019 20:39:17 11 C 69 %
125 09-11-2019 20:49:17 11 C 69 %
Sensor: Nr:Datum:Temp:Feuchte:
G-T/H 126 09-11-2019 20:59:17 11 C 69 %
127 09-11-2019 21:09:17 11 C 68 %
128 09-11-2019 21:19:17 11 C 68 %
129 09-11-2019 21:29:17 10.9 C 69 %
130 09-11-2019 21:39:17 10.9 C 69 %
131 09-11-2019 21:49:17 10.8 C 68 %
132 09-11-2019 21:59:17 10.8 C 68 %
133 09-11-2019 22:09:17 10.8 C 68 %
134 09-11-2019 22:19:17 10.7 C 68 %
135 09-11-2019 22:29:17 10.8 C 68 %
136 09-11-2019 22:39:17 10.7 C 68 %
137 09-11-2019 22:49:18 10.7 C 68 %
138 09-11-2019 22:59:18 10.7 C 68 %
139 09-11-2019 23:09:17 10.7 C 67 %
140 09-11-2019 23:19:17 10.7 C 67 %
141 09-11-2019 23:29:17 10.6 C 68 %
142 09-11-2019 23:39:17 10.7 C 67 %
143 09-11-2019 23:49:17 10.6 C 67 %
144 09-11-2019 23:59:17 10.5 C 67 %
145 10-11-2019 00:09:18 10.5 C 67 %
146 10-11-2019 00:19:17 10.5 C 67 %
147 10-11-2019 00:29:17 10.5 C 67 %
148 10-11-2019 00:39:17 10.4 C 67 %
149 10-11-2019 00:49:17 10.4 C 66 %
150 10-11-2019 00:59:17 10.4 C 66 %
Sensor: Nr:Datum:Temp:Feuchte:
G-T/H 151 10-11-2019 01:09:17 10.3 C 66 %
152 10-11-2019 01:19:17 10.4 C 66 %
153 10-11-2019 01:29:17 10.3 C 66 %
154 10-11-2019 01:39:17 10.3 C 66 %
155 10-11-2019 01:49:17 10.3 C 66 %
156 10-11-2019 01:59:17 10.3 C 66 %
157 10-11-2019 02:09:18 10.2 C 66 %
158 10-11-2019 02:19:17 10.2 C 66 %
159 10-11-2019 02:29:17 10.2 C 66 %
160 10-11-2019 02:39:17 10.2 C 66 %
161 10-11-2019 02:49:17 10.2 C 66 %
162 10-11-2019 02:59:17 10.2 C 66 %
163 10-11-2019 03:09:17 10.2 C 66 %
164 10-11-2019 03:19:17 10.2 C 66 %
165 10-11-2019 03:29:17 10.1 C 65 %
166 10-11-2019 03:39:17 10.1 C 65 %
167 10-11-2019 03:49:17 10.1 C 65 %
168 10-11-2019 03:59:18 10.1 C 65 %
169 10-11-2019 04:09:17 10.1 C 65 %
170 10-11-2019 04:19:17 10 C 65 %
171 10-11-2019 04:29:17 10 C 65 %
172 10-11-2019 04:39:17 10 C 65 %
173 10-11-2019 04:49:18 10 C 65 %
174 10-11-2019 04:59:18 10 C 65 %
175 10-11-2019 05:09:17 10 C 65 %
Sensor: Nr:Datum:Temp:Feuchte:
G-T/H 176 10-11-2019 05:19:17 10.1 C 66 %
177 10-11-2019 05:29:17 10.1 C 66 %
178 10-11-2019 05:39:17 10 C 66 %
179 10-11-2019 05:49:17 10.1 C 66 %
180 10-11-2019 05:59:17 10 C 66 %
181 10-11-2019 06:09:17 10 C 66 %
182 10-11-2019 06:19:17 10.1 C 66 %
183 10-11-2019 06:29:17 10 C 66 %
184 10-11-2019 06:39:17 10 C 66 %
185 10-11-2019 06:49:17 10 C 66 %
186 10-11-2019 06:59:17 10 C 67 %
187 10-11-2019 07:09:17 10 C 67 %
188 10-11-2019 07:19:18 10 C 67 %
189 10-11-2019 07:29:18 10 C 67 %
190 10-11-2019 07:39:17 10 C 67 %
191 10-11-2019 07:49:17 10 C 67 %
192 10-11-2019 07:59:17 10 C 67 %
193 10-11-2019 08:09:17 10 C 67 %
194 10-11-2019 08:19:17 10 C 67 %
195 10-11-2019 08:29:17 10 C 67 %
196 10-11-2019 08:39:17 10 C 68 %
197 10-11-2019 08:49:17 10 C 68 %
198 10-11-2019 08:59:17 9.9 C 69 %
199 10-11-2019 09:09:18 9.9 C 69 %
200 10-11-2019 09:19:17 10 C 68 %
Sensor: Nr:Datum:Temp:Feuchte:
G-T/H 201 10-11-2019 09:29:18 9.9 C 69 %
202 10-11-2019 09:39:17 9.9 C 69 %
203 10-11-2019 09:49:17 10 C 68 %
204 10-11-2019 09:59:17 10 C 68 %
205 10-11-2019 10:09:17 10 C 68 %
206 10-11-2019 10:19:17 9.9 C 69 %
207 10-11-2019 10:29:17 9.9 C 69 %
208 10-11-2019 10:39:18 9.9 C 69 %
209 10-11-2019 10:49:17 9.9 C 69 %
210 10-11-2019 10:59:17 9.9 C 69 %
211 10-11-2019 11:09:17 9.9 C 69 %
212 10-11-2019 11:19:17 9.9 C 69 %
213 10-11-2019 11:29:17 9.9 C 69 %
214 10-11-2019 11:39:17 9.9 C 70 %
215 10-11-2019 11:49:17 9.9 C 70 %
216 10-11-2019 11:59:17 9.9 C 70 %
217 10-11-2019 12:09:17 9.9 C 70 %
218 10-11-2019 12:19:17 9.9 C 70 %
219 10-11-2019 12:29:17 9.9 C 70 %
220 10-11-2019 12:39:17 9.9 C 70 %
221 10-11-2019 12:49:17 9.9 C 70 %
222 10-11-2019 12:59:17 9.9 C 70 %
223 10-11-2019 13:09:17 9.9 C 70 %
224 10-11-2019 13:19:17 9.9 C 70 %
225 10-11-2019 13:29:17 9.9 C 70 %
Sensor: Nr:Datum:Temp:Feuchte:
G-T/H 226 10-11-2019 13:39:17 9.9 C 70 %
227 10-11-2019 13:49:17 9.9 C 70 %
228 10-11-2019 13:59:17 9.9 C 70 %
229 10-11-2019 14:09:17 9.9 C 70 %
230 10-11-2019 14:19:17 9.9 C 70 %
231 10-11-2019 14:29:17 9.9 C 70 %
232 10-11-2019 14:39:17 9.9 C 70 %
233 10-11-2019 14:49:17 10 C 69 %
234 10-11-2019 14:59:17 9.9 C 70 %
235 10-11-2019 15:09:18 9.9 C 70 %
236 10-11-2019 15:19:17 9.9 C 70 %
237 10-11-2019 15:29:17 10 C 69 %
238 10-11-2019 15:39:17 10 C 69 %
239 10-11-2019 15:49:17 10 C 69 %
240 10-11-2019 15:59:17 10 C 69 %
241 10-11-2019 16:09:17 10 C 69 %
242 10-11-2019 16:19:17 10 C 69 %
243 10-11-2019 16:29:17 10 C 69 %
244 10-11-2019 16:39:17 10 C 70 %
245 10-11-2019 16:49:18 10 C 70 %
246 10-11-2019 16:59:18 9.2 C 68 %
247 10-11-2019 17:09:17 8.8 C 68 %
248 10-11-2019 17:19:17 9.2 C 67 %
249 10-11-2019 17:29:17 9.4 C 67 %
250 10-11-2019 17:39:17 9.5 C 68 %
Sensor: Nr:Datum:Temp:Feuchte:
G-T/H 251 10-11-2019 17:49:18 9.6 C 68 %
252 10-11-2019 17:59:18 9.6 C 68 %
253 10-11-2019 18:09:17 9.7 C 68 %
254 10-11-2019 18:19:17 9.7 C 69 %
255 10-11-2019 18:29:17 9.7 C 69 %
256 10-11-2019 18:39:17 9.7 C 69 %
257 10-11-2019 18:49:18 9.8 C 69 %
258 10-11-2019 18:59:18 9.8 C 69 %
259 10-11-2019 19:09:17 9.8 C 69 %
260 10-11-2019 19:19:17 9.8 C 69 %
261 10-11-2019 19:29:17 9.8 C 70 %
262 10-11-2019 19:39:17 9.8 C 70 %
263 10-11-2019 19:49:17 9.8 C 70 %
264 10-11-2019 19:59:17 9.8 C 70 %
265 10-11-2019 20:09:17 9.8 C 70 %
266 10-11-2019 20:19:17 9.8 C 70 %
267 10-11-2019 20:29:17 9.9 C 70 %
268 10-11-2019 20:39:17 9.9 C 70 %
269 10-11-2019 20:49:17 9.9 C 70 %
270 10-11-2019 20:59:17 9.9 C 70 %
271 10-11-2019 21:09:18 9.9 C 70 %
272 10-11-2019 21:19:17 9.9 C 70 %
273 10-11-2019 21:29:17 9.9 C 70 %
274 10-11-2019 21:39:17 9.9 C 70 %
275 10-11-2019 21:49:17 9.9 C 71 %
Sensor: Nr:Datum:Temp:Feuchte:
G-T/H 276 10-11-2019 21:59:17 9.9 C 71 %
277 10-11-2019 22:09:17 9.9 C 71 %
278 10-11-2019 22:19:17 9.9 C 71 %
279 10-11-2019 22:29:17 9.9 C 71 %
280 10-11-2019 22:39:17 9.9 C 71 %
281 10-11-2019 22:49:17 9.9 C 71 %
282 10-11-2019 22:59:17 9.9 C 71 %
283 10-11-2019 23:09:17 9.9 C 71 %
284 10-11-2019 23:19:17 9.9 C 71 %
285 10-11-2019 23:29:17 9.9 C 71 %
286 10-11-2019 23:39:17 9.9 C 71 %
287 10-11-2019 23:49:17 9.9 C 71 %
288 10-11-2019 23:59:17 9.9 C 71 %
289 11-11-2019 00:09:17 9.9 C 71 %
290 11-11-2019 00:19:17 9.9 C 71 %
291 11-11-2019 00:29:17 9.9 C 71 %
292 11-11-2019 00:39:17 10 C 70 %
293 11-11-2019 00:49:17 9.9 C 71 %
294 11-11-2019 00:59:17 9.9 C 71 %
295 11-11-2019 01:09:17 9.9 C 71 %
296 11-11-2019 01:19:17 9.9 C 71 %
297 11-11-2019 01:29:17 10 C 70 %
298 11-11-2019 01:39:17 10 C 70 %
299 11-11-2019 01:49:17 9.9 C 71 %
300 11-11-2019 01:59:17 10 C 70 %
Sensor: Nr:Datum:Temp:Feuchte:
G-T/H 301 11-11-2019 02:09:17 9.9 C 71 %
302 11-11-2019 02:19:17 9.9 C 71 %
303 11-11-2019 02:29:17 9.9 C 71 %
304 11-11-2019 02:39:17 9.9 C 71 %
305 11-11-2019 02:49:17 9.9 C 71 %
306 11-11-2019 02:59:17 9.9 C 71 %
307 11-11-2019 03:09:17 9.9 C 71 %
308 11-11-2019 03:19:17 9.9 C 71 %
309 11-11-2019 03:29:17 9.9 C 71 %
310 11-11-2019 03:39:17 9.9 C 71 %
311 11-11-2019 03:49:17 9.9 C 71 %
312 11-11-2019 03:59:17 9.9 C 71 %
313 11-11-2019 04:09:17 9.9 C 71 %
314 11-11-2019 04:19:17 9.9 C 71 %
315 11-11-2019 04:29:17 9.9 C 71 %
316 11-11-2019 04:39:17 9.9 C 71 %
317 11-11-2019 04:49:17 9.9 C 71 %
318 11-11-2019 04:59:17 9.9 C 71 %
319 11-11-2019 05:09:17 9.9 C 71 %
320 11-11-2019 05:19:17 9.9 C 71 %
321 11-11-2019 05:29:17 9.9 C 71 %
322 11-11-2019 05:39:17 9.9 C 71 %
323 11-11-2019 05:49:17 9.9 C 71 %
324 11-11-2019 05:59:17 9.9 C 71 %
325 11-11-2019 06:09:17 9.9 C 71 %
Sensor: Nr:Datum:Temp:Feuchte:
G-T/H 326 11-11-2019 06:19:17 9.9 C 71 %
327 11-11-2019 06:29:17 9.9 C 71 %
328 11-11-2019 06:39:17 9.8 C 71 %
329 11-11-2019 06:49:17 9.8 C 71 %
330 11-11-2019 06:59:17 9.8 C 71 %
331 11-11-2019 07:09:17 9.9 C 71 %
332 11-11-2019 07:19:18 9.8 C 71 %
333 11-11-2019 07:29:18 9.8 C 71 %
334 11-11-2019 07:39:17 9.8 C 71 %
335 11-11-2019 07:49:17 9.8 C 71 %
336 11-11-2019 07:59:17 9.8 C 71 %
337 11-11-2019 08:09:17 9.8 C 71 %
338 11-11-2019 08:19:17 9.8 C 71 %
339 11-11-2019 08:29:17 9.8 C 71 %
340 11-11-2019 08:39:17 9.8 C 71 %
341 11-11-2019 08:49:17 9.8 C 71 %
342 11-11-2019 08:59:17 9.8 C 71 %
343 11-11-2019 09:09:17 9.8 C 71 %
344 11-11-2019 09:19:17 9.8 C 71 %
345 11-11-2019 09:29:17 9.9 C 71 %
346 11-11-2019 09:39:17 9.8 C 71 %
347 11-11-2019 09:49:17 9.8 C 71 %
348 11-11-2019 09:59:17 9.8 C 72 %
349 11-11-2019 10:09:17 9.8 C 72 %
350 11-11-2019 10:19:17 9.9 C 72 %
Sensor: Nr:Datum:Temp:Feuchte:
G-T/H 351 11-11-2019 10:29:17 9.9 C 72 %
352 11-11-2019 10:39:17 9.8 C 72 %
353 11-11-2019 10:49:17 9.8 C 72 %
354 11-11-2019 10:59:17 9.9 C 72 %
355 11-11-2019 11:09:17 9.9 C 72 %
356 11-11-2019 11:19:17 9.9 C 72 %
357 11-11-2019 11:29:17 9.9 C 72 %
358 11-11-2019 11:39:17 9.9 C 72 %
359 11-11-2019 11:49:17 9.9 C 72 %
360 11-11-2019 11:59:17 9.9 C 72 %
361 11-11-2019 12:09:17 9.9 C 72 %
362 11-11-2019 12:19:17 9.9 C 72 %
363 11-11-2019 12:29:17 9.9 C 72 %
364 11-11-2019 12:39:17 9.9 C 72 %
365 11-11-2019 12:49:17 9.9 C 72 %
366 11-11-2019 12:59:17 9.9 C 72 %
367 11-11-2019 13:09:17 9.9 C 72 %
368 11-11-2019 13:19:17 10 C 71 %
369 11-11-2019 13:29:17 10 C 71 %
370 11-11-2019 13:39:17 9.9 C 72 %
371 11-11-2019 13:49:17 10 C 71 %
372 11-11-2019 13:59:17 10 C 71 %
373 11-11-2019 14:09:17 10 C 71 %
374 11-11-2019 14:19:17 10 C 71 %
375 11-11-2019 14:29:17 10 C 71 %
Sensor: Nr:Datum:Temp:Feuchte:
G-T/H 376 11-11-2019 14:39:17 10 C 71 %
377 11-11-2019 14:49:17 10 C 71 %
378 11-11-2019 14:59:17 10 C 71 %
379 11-11-2019 15:09:17 10 C 71 %
380 11-11-2019 15:19:17 10 C 71 %
381 11-11-2019 15:29:17 10.1 C 71 %
382 11-11-2019 15:39:17 10 C 71 %
383 11-11-2019 15:49:17 10 C 71 %
384 11-11-2019 15:59:17 10 C 71 %
385 11-11-2019 16:09:17 10 C 71 %
386 11-11-2019 16:19:17 10 C 71 %
387 11-11-2019 16:29:17 10.1 C 71 %
388 11-11-2019 16:39:17 10.1 C 71 %
389 11-11-2019 16:49:17 10.1 C 71 %
390 11-11-2019 16:59:17 10.1 C 71 %
391 11-11-2019 17:09:17 10.1 C 71 %
392 11-11-2019 17:19:17 10.1 C 71 %
393 11-11-2019 17:29:17 10.1 C 71 %
394 11-11-2019 17:39:17 10.1 C 71 %
395 11-11-2019 17:49:17 10.1 C 71 %
396 11-11-2019 17:59:17 10.1 C 71 %
397 11-11-2019 18:09:17 10.1 C 71 %
398 11-11-2019 18:19:17 10.1 C 71 %
399 11-11-2019 18:29:17 10.1 C 71 %
400 11-11-2019 18:39:17 10.1 C 71 %
Sensor: Nr:Datum:Temp:Feuchte:
G-T/H 401 11-11-2019 18:49:17 10.1 C 71 %
402 11-11-2019 18:59:17 10.1 C 71 %
403 11-11-2019 19:09:17 10.1 C 71 %
404 11-11-2019 19:19:17 10.1 C 71 %
405 11-11-2019 19:29:17 10.1 C 71 %
406 11-11-2019 19:39:17 10.1 C 71 %
407 11-11-2019 19:49:17 10.1 C 71 %
408 11-11-2019 19:59:17 10.1 C 71 %
409 11-11-2019 20:09:17 10.1 C 71 %
410 11-11-2019 20:19:17 10.1 C 71 %
411 11-11-2019 20:29:17 10.1 C 72 %
412 11-11-2019 20:39:18 10.1 C 72 %
413 11-11-2019 20:49:17 10.1 C 72 %
414 11-11-2019 20:59:17 10.1 C 72 %
415 11-11-2019 21:09:17 10.1 C 72 %
416 11-11-2019 21:19:17 10.1 C 72 %
417 11-11-2019 21:29:17 10.1 C 72 %
418 11-11-2019 21:39:17 10.1 C 72 %
419 11-11-2019 21:49:17 10.1 C 72 %
420 11-11-2019 21:59:17 10.1 C 72 %
421 11-11-2019 22:09:17 10.1 C 72 %
422 11-11-2019 22:19:17 10.1 C 72 %
423 11-11-2019 22:29:17 10.1 C 72 %
424 11-11-2019 22:39:17 10.1 C 72 %
425 11-11-2019 22:49:17 10.1 C 72 %
Sensor: Nr:Datum:Temp:Feuchte:
G-T/H 426 11-11-2019 22:59:17 10.1 C 72 %
427 11-11-2019 23:09:17 10.1 C 72 %
428 11-11-2019 23:19:17 10.1 C 72 %
429 11-11-2019 23:29:17 10.1 C 72 %
430 11-11-2019 23:39:17 10.1 C 72 %
431 11-11-2019 23:49:17 10.1 C 72 %
432 11-11-2019 23:59:17 10.1 C 72 %
433 12-11-2019 00:09:17 10.1 C 72 %
434 12-11-2019 00:19:17 10.1 C 72 %
435 12-11-2019 00:29:17 10.1 C 72 %
436 12-11-2019 00:39:17 10.1 C 72 %
437 12-11-2019 00:49:17 10.1 C 72 %
438 12-11-2019 00:59:17 10.1 C 72 %
439 12-11-2019 01:09:17 10.1 C 72 %
440 12-11-2019 01:19:17 10.1 C 72 %
441 12-11-2019 01:29:17 10.1 C 72 %
442 12-11-2019 01:39:17 10 C 72 %
443 12-11-2019 01:49:17 10.1 C 72 %
444 12-11-2019 01:59:17 10.1 C 72 %
445 12-11-2019 02:09:17 10.1 C 72 %
446 12-11-2019 02:19:17 10 C 72 %
447 12-11-2019 02:29:17 10.1 C 72 %
448 12-11-2019 02:39:17 10.1 C 72 %
449 12-11-2019 02:49:17 10.1 C 72 %
450 12-11-2019 02:59:17 10 C 72 %
Sensor: Nr:Datum:Temp:Feuchte:
G-T/H 451 12-11-2019 03:09:17 10.1 C 72 %
452 12-11-2019 03:19:17 10 C 72 %
453 12-11-2019 03:29:17 10 C 72 %
454 12-11-2019 03:39:17 10 C 72 %
455 12-11-2019 03:49:17 10 C 72 %
456 12-11-2019 03:59:17 10 C 72 %
457 12-11-2019 04:09:17 10 C 72 %
458 12-11-2019 04:19:17 10 C 72 %
459 12-11-2019 04:29:17 10 C 72 %
460 12-11-2019 04:39:17 10 C 72 %
461 12-11-2019 04:49:17 10.1 C 72 %
462 12-11-2019 04:59:17 10 C 72 %
463 12-11-2019 05:09:17 10 C 72 %
464 12-11-2019 05:19:17 10.1 C 72 %
465 12-11-2019 05:29:17 10 C 72 %
466 12-11-2019 05:39:17 10 C 72 %
467 12-11-2019 05:49:17 10 C 72 %
468 12-11-2019 05:59:17 10 C 72 %
469 12-11-2019 06:09:17 10 C 72 %
470 12-11-2019 06:19:18 10 C 72 %
471 12-11-2019 06:29:18 10 C 72 %
472 12-11-2019 06:39:17 10 C 72 %
473 12-11-2019 06:49:17 10 C 72 %
474 12-11-2019 06:59:17 10 C 72 %
475 12-11-2019 07:09:17 10 C 72 %
Sensor: Nr:Datum:Temp:Feuchte:
G-T/H 476 12-11-2019 07:19:17 10 C 72 %
477 12-11-2019 07:29:17 10 C 72 %
478 12-11-2019 07:39:17 10 C 72 %
479 12-11-2019 07:49:17 10 C 72 %
480 12-11-2019 07:59:17 10 C 72 %
481 12-11-2019 08:09:17 10 C 72 %
482 12-11-2019 08:19:17 10 C 72 %
483 12-11-2019 08:29:17 10 C 72 %
484 12-11-2019 08:39:17 10 C 72 %
485 12-11-2019 08:49:17 10 C 72 %
486 12-11-2019 08:59:17 10 C 72 %
487 12-11-2019 09:09:17 10 C 72 %
488 12-11-2019 09:19:17 10 C 72 %
489 12-11-2019 09:29:17 10 C 72 %
490 12-11-2019 09:39:17 10 C 72 %
491 12-11-2019 09:49:17 10 C 72 %
492 12-11-2019 09:59:17 10 C 72 %
493 12-11-2019 10:09:17 10 C 72 %
494 12-11-2019 10:19:17 10 C 72 %
495 12-11-2019 10:29:17 10 C 72 %
496 12-11-2019 10:39:17 10 C 72 %
497 12-11-2019 10:49:17 10 C 72 %
498 12-11-2019 10:59:17 10.1 C 72 %
499 12-11-2019 11:09:17 10.1 C 72 %
500 12-11-2019 11:19:17 10.1 C 72 %
Sensor: Nr:Datum:Temp:Feuchte:
G-T/H 501 12-11-2019 11:29:17 10.1 C 72 %
502 12-11-2019 11:39:17 10.1 C 73 %
503 12-11-2019 11:49:17 10.1 C 73 %
504 12-11-2019 11:59:17 10.1 C 73 %